[[{"header":{"parameterUnit":"m.s-1","parameterCategory":1,"la1":30.6,"la2":29.2853,"lo1":-89.7004,"lo2":-87.6739,"dy":0.0162,"dx":0.0183,"nx":112,"ny":82,"refTime":"2024-02-08T18:00:00:Z","depth":0,"parameterNumber":2,"parameterNumberName":"U-component_of_WINDS"},"data":[0.0,0.0,0.0,0.0,0.0,0.0,0.0,0.0,0.0,0.0,0.0,0.0,0.0,0.0,0.0,0.0,0.0,0.0,0.0,0.0,0.0,0.0,0.0,0.0,0.0,0.0,0.0,0.0,0.0,0.0,0.0,0.0,0.0,0.0,0.0,0.0,0.0,0.0,0.0,0.0,0.0,0.0,0.0,0.0,0.0,0.0,0.0,0.0,0.0,0.0,0.0,0.0,0.0,0.0,0.0,0.0,0.0,0.0,0.0,0.0,0.0,0.0,0.0,0.0,0.0,0.0,0.0,0.0,0.0,0.0,0.0,0.0,0.0,0.0,0.0,0.0,0.0,0.0,0.0,0.0,0.0,0.0,0.0,0.0,0.0,0.0,0.0,0.0,0.0,0.0,5.2498,5.2498,5.2498,5.2498,5.2498,5.2498,5.2498,5.2498,0.0,0.0,0.0,0.0,0.0,0.0,0.0,0.0,0.0,0.0,0.0,0.0,0.0,0.0,0.0,0.0,0.0,0.0,0.0,0.0,0.0,0.0,0.0,0.0,0.0,0.0,0.0,0.0,0.0,0.0,0.0,0.0,0.0,0.0,0.0,0.0,0.0,0.0,0.0,0.0,0.0,0.0,0.0,0.0,0.0,0.0,0.0,0.0,0.0,0.0,0.0,0.0,0.0,0.0,0.0,0.0,0.0,0.0,0.0,0.0,0.0,0.0,0.0,0.0,0.0,0.0,0.0,0.0,0.0,0.0,0.0,0.0,0.0,0.0,0.0,0.0,0.0,0.0,0.0,0.0,0.0,0.0,0.0,0.0,0.0,0.0,0.0,0.0,0.0,0.0,0.0,0.0,0.0,0.0,0.0,0.0,0.0,0.0,0.0,0.0,0.0,0.0,0.0,0.0,5.2498,5.2498,5.2498,5.2498,5.2498,5.2498,5.2498,5.2498,0.0,0.0,0.0,0.0,0.0,0.0,0.0,0.0,0.0,0.0,0.0,0.0,0.0,0.0,0.0,0.0,0.0,0.0,0.0,0.0,0.0,0.0,0.0,0.0,0.0,0.0,0.0,0.0,0.0,0.0,0.0,0.0,0.0,0.0,0.0,0.0,0.0,0.0,0.0,0.0,0.0,0.0,0.0,0.0,0.0,0.0,0.0,0.0,0.0,0.0,0.0,0.0,0.0,0.0,0.0,0.0,0.0,0.0,0.0,0.0,0.0,0.0,0.0,0.0,0.0,0.0,0.0,0.0,0.0,0.0,0.0,0.0,0.0,0.0,0.0,0.0,0.0,0.0,0.0,0.0,0.0,0.0,0.0,0.0,0.0,0.0,0.0,0.0,0.0,0.0,0.0,0.0,0.0,0.0,0.0,0.0,0.0,0.0,0.0,0.0,0.0,0.0,0.0,5.2498,5.2498,5.2498,5.2498,5.2498,5.2498,5.2498,5.2498,5.2498,5.1933,0.0,0.0,0.0,0.0,0.0,0.0,0.0,0.0,0.0,0.0,0.0,0.0,0.0,0.0,0.0,0.0,0.0,0.0,0.0,0.0,0.0,0.0,0.0,0.0,0.0,0.0,0.0,0.0,0.0,0.0,0.0,0.0,0.0,0.0,0.0,0.0,0.0,0.0,0.0,0.0,0.0,0.0,0.0,0.0,0.0,0.0,0.0,0.0,0.0,0.0,0.0,0.0,0.0,0.0,0.0,0.0,0.0,0.0,0.0,0.0,0.0,0.0,0.0,0.0,0.0,0.0,0.0,0.0,0.0,0.0,0.0,0.0,0.0,0.0,0.0,0.0,0.0,0.0,0.0,0.0,0.0,0.0,0.0,0.0,0.0,0.0,0.0,0.0,0.0,0.0,0.0,0.0,0.0,0.0,0.0,0.0,0.0,0.0,0.0,0.0,0.0,0.0,5.2498,5.2498,5.2498,5.2498,5.2498,5.2498,5.2498,5.2498,5.2498,5.1933,0.0,0.0,0.0,0.0,0.0,0.0,0.0,0.0,0.0,0.0,0.0,0.0,0.0,0.0,0.0,0.0,0.0,0.0,0.0,0.0,0.0,0.0,0.0,0.0,0.0,0.0,0.0,0.0,0.0,0.0,0.0,0.0,0.0,0.0,0.0,0.0,0.0,0.0,0.0,0.0,0.0,0.0,0.0,0.0,0.0,0.0,0.0,0.0,0.0,0.0,0.0,0.0,0.0,0.0,0.0,0.0,0.0,0.0,0.0,0.0,0.0,0.0,0.0,0.0,0.0,0.0,0.0,0.0,0.0,0.0,0.0,0.0,0.0,0.0,0.0,0.0,0.0,0.0,0.0,0.0,0.0,0.0,0.0,0.0,0.0,0.0,0.0,0.0,0.0,0.0,0.0,0.0,0.0,0.0,0.0,0.0,0.0,0.0,0.0,0.0,0.0,0.0,5.2498,5.2498,5.2498,5.2498,5.2498,5.2498,5.2498,5.2498,5.2498,5.1933,0.0,0.0,0.0,0.0,0.0,0.0,0.0,0.0,0.0,0.0,0.0,0.0,0.0,0.0,0.0,0.0,0.0,0.0,0.0,0.0,0.0,0.0,0.0,0.0,0.0,0.0,0.0,0.0,0.0,0.0,0.0,0.0,0.0,0.0,0.0,0.0,0.0,0.0,0.0,0.0,0.0,0.0,0.0,0.0,0.0,0.0,0.0,0.0,0.0,0.0,0.0,0.0,0.0,0.0,0.0,0.0,0.0,0.0,0.0,0.0,0.0,0.0,0.0,0.0,0.0,0.0,0.0,0.0,0.0,0.0,0.0,0.0,0.0,0.0,0.0,0.0,0.0,0.0,0.0,0.0,0.0,0.0,0.0,0.0,0.0,0.0,0.0,0.0,0.0,0.0,0.0,0.0,0.0,0.0,0.0,0.0,0.0,0.0,0.0,0.0,0.0,0.0,5.2498,5.2498,0.0,5.2498,5.2498,5.2498,5.2498,5.2498,5.2498,0.0,0.0,0.0,0.0,0.0,0.0,0.0,0.0,0.0,0.0,0.0,0.0,0.0,0.0,0.0,0.0,0.0,0.0,0.0,0.0,0.0,0.0,0.0,0.0,0.0,0.0,0.0,0.0,0.0,0.0,0.0,0.0,0.0,0.0,0.0,0.0,0.0,0.0,0.0,0.0,0.0,0.0,0.0,0.0,0.0,0.0,0.0,0.0,0.0,0.0,0.0,0.0,0.0,0.0,0.0,0.0,0.0,0.0,0.0,0.0,0.0,0.0,0.0,0.0,0.0,0.0,0.0,0.0,0.0,0.0,0.0,0.0,0.0,0.0,0.0,0.0,0.0,0.0,0.0,0.0,0.0,0.0,0.0,0.0,0.0,0.0,0.0,0.0,0.0,0.0,0.0,0.0,0.0,0.0,0.0,0.0,0.0,0.0,0.0,0.0,0.0,0.0,5.2498,5.2498,5.2498,0.0,5.2498,5.2589,5.286,5.2878,5.2987,5.3241,0.0,0.0,0.0,0.0,0.0,0.0,0.0,0.0,0.0,0.0,0.0,0.0,0.0,0.0,0.0,0.0,0.0,0.0,0.0,0.0,0.0,0.0,0.0,0.0,0.0,0.0,0.0,0.0,0.0,0.0,0.0,0.0,0.0,0.0,0.0,0.0,0.0,0.0,0.0,0.0,0.0,0.0,0.0,0.0,0.0,0.0,0.0,0.0,0.0,0.0,0.0,0.0,0.0,0.0,0.0,0.0,0.0,0.0,0.0,0.0,0.0,0.0,0.0,0.0,0.0,0.0,0.0,0.0,0.0,0.0,0.0,0.0,0.0,0.0,0.0,0.0,0.0,0.0,0.0,0.0,0.0,0.0,0.0,0.0,0.0,0.0,0.0,0.0,0.0,0.0,0.0,0.0,0.0,0.0,0.0,0.0,0.0,0.0,0.0,0.0,0.0,0.0,5.2498,5.2498,5.2498,5.2498,5.2498,5.2842,5.3639,5.3711,5.4055,0.0,0.0,0.0,0.0,0.0,0.0,0.0,0.0,0.0,0.0,0.0,0.0,0.0,0.0,0.0,0.0,0.0,0.0,0.0,0.0,0.0,0.0,0.0,0.0,0.0,0.0,0.0,0.0,0.0,0.0,0.0,0.0,0.0,0.0,0.0,0.0,0.0,0.0,0.0,0.0,0.0,0.0,0.0,0.0,0.0,0.0,0.0,0.0,0.0,0.0,0.0,0.0,0.0,0.0,0.0,0.0,0.0,0.0,0.0,0.0,0.0,0.0,0.0,0.0,0.0,0.0,0.0,0.0,0.0,0.0,0.0,0.0,0.0,0.0,0.0,0.0,0.0,0.0,0.0,0.0,0.0,0.0,0.0,0.0,0.0,0.0,0.0,0.0,0.0,0.0,0.0,0.0,0.0,0.0,0.0,0.0,0.0,0.0,0.0,0.0,0.0,0.0,0.0,5.2498,5.2498,5.2498,5.2498,5.3005,5.344,5.3675,5.4218,5.4653,5.4888,0.0,0.0,0.0,0.0,0.0,0.0,0.0,0.0,0.0,0.0,0.0,0.0,0.0,0.0,0.0,0.0,0.0,0.0,0.0,0.0,0.0,0.0,0.0,0.0,0.0,0.0,0.0,0.0,0.0,0.0,0.0,0.0,0.0,0.0,0.0,0.0,0.0,0.0,0.0,0.0,0.0,0.0,0.0,0.0,0.0,0.0,0.0,0.0,0.0,0.0,0.0,0.0,0.0,0.0,0.0,0.0,0.0,0.0,0.0,0.0,0.0,0.0,0.0,0.0,0.0,0.0,0.0,0.0,0.0,0.0,0.0,0.0,0.0,0.0,0.0,0.0,0.0,0.0,0.0,0.0,0.0,0.0,0.0,0.0,0.0,0.0,0.0,0.0,0.0,0.0,0.0,0.0,0.0,0.0,0.0,0.0,0.0,0.0,0.0,0.0,0.0,0.0,5.2498,5.2498,5.2625,5.2933,5.3403,5.3851,5.4251,5.4687,5.4981,5.5079,0.0,0.0,0.0,0.0,0.0,0.0,0.0,0.0,0.0,0.0,0.0,0.0,0.0,0.0,0.0,0.0,0.0,0.0,0.0,0.0,0.0,0.0,0.0,0.0,0.0,0.0,0.0,0.0,0.0,0.0,0.0,0.0,0.0,0.0,0.0,0.0,0.0,0.0,0.0,0.0,0.0,0.0,0.0,0.0,0.0,0.0,0.0,0.0,0.0,0.0,0.0,0.0,0.0,0.0,0.0,0.0,0.0,0.0,0.0,0.0,0.0,0.0,0.0,0.0,0.0,0.0,0.0,0.0,0.0,0.0,0.0,0.0,0.0,0.0,0.0,0.0,0.0,0.0,0.0,0.0,0.0,0.0,0.0,0.0,0.0,0.0,0.0,0.0,0.0,0.0,0.0,0.0,0.0,0.0,0.0,0.0,0.0,0.0,0.0,0.0,0.0,0.0,5.2498,5.257,5.2878,5.3621,5.3838,5.426,5.5115,5.5241,5.5363,5.5583,0.0,0.0,0.0,0.0,0.0,0.0,0.0,0.0,0.0,0.0,0.0,0.0,0.0,0.0,0.0,0.0,0.0,0.0,0.0,0.0,0.0,0.0,0.0,0.0,0.0,0.0,0.0,0.0,0.0,0.0,0.0,0.0,0.0,0.0,0.0,0.0,0.0,0.0,0.0,0.0,0.0,0.0,0.0,0.0,0.0,0.0,0.0,0.0,0.0,0.0,0.0,0.0,0.0,0.0,0.0,0.0,0.0,0.0,0.0,0.0,4.7717,0.0,0.0,0.0,0.0,0.0,0.0,0.0,0.0,0.0,0.0,0.0,0.0,0.0,0.0,0.0,0.0,0.0,0.0,0.0,0.0,0.0,0.0,0.0,0.0,0.0,0.0,0.0,0.0,0.0,0.0,0.0,0.0,0.0,0.0,0.0,0.0,0.0,0.0,0.0,0.0,0.0,5.2498,5.3041,5.3512,5.3675,5.478,5.5582,5.579,5.6404,5.6786,5.6793,5.6073,0.0,0.0,0.0,0.0,0.0,0.0,0.0,0.0,0.0,0.0,0.0,0.0,0.0,0.0,0.0,0.0,0.0,0.0,0.0,0.0,0.0,0.0,0.0,0.0,0.0,0.0,0.0,0.0,0.0,0.0,0.0,0.0,0.0,0.0,0.0,0.0,0.0,0.0,0.0,0.0,0.0,0.0,0.0,0.0,0.0,0.0,0.0,0.0,0.0,0.0,0.0,0.0,0.0,0.0,0.0,0.0,0.0,0.0,0.0,0.0,4.7717,0.0,0.0,0.0,0.0,0.0,0.0,0.0,0.0,0.0,0.0,0.0,0.0,0.0,0.0,0.0,0.0,0.0,0.0,0.0,0.0,0.0,0.0,0.0,0.0,0.0,0.0,0.0,0.0,0.0,0.0,0.0,0.0,0.0,0.0,0.0,0.0,0.0,0.0,0.0,0.0,5.3023,5.344,5.3983,5.4725,5.5504,5.6038,5.6163,5.6277,5.6221,5.5851,5.529,0.0,0.0,0.0,0.0,0.0,0.0,0.0,0.0,0.0,0.0,0.0,0.0,0.0,0.0,0.0,0.0,0.0,0.0,0.0,0.0,0.0,0.0,0.0,0.0,0.0,0.0,0.0,0.0,0.0,0.0,0.0,0.0,0.0,0.0,0.0,0.0,0.0,0.0,0.0,0.0,0.0,0.0,0.0,0.0,0.0,0.0,0.0,0.0,0.0,0.0,0.0,0.0,0.0,4.7302,4.7363,4.7468,4.7468,4.7468,4.7468,4.7572,4.7657,4.7675,4.7675,0.0,0.0,0.0,0.0,0.0,0.0,0.0,0.0,0.0,0.0,0.0,0.0,0.0,0.0,0.0,0.0,0.0,0.0,0.0,0.0,0.0,0.0,0.0,0.0,5.2498,5.2498,0.0,0.0,0.0,0.0,0.0,0.0,0.0,0.0,0.0,0.0,0.0,0.0,5.3603,5.3929,5.4581,5.5848,5.612,5.6263,5.6421,5.6017,5.5484,5.4913,5.4686,5.4641,0.0,0.0,0.0,0.0,0.0,0.0,0.0,0.0,0.0,0.0,0.0,0.0,0.0,0.0,0.0,0.0,0.0,0.0,0.0,0.0,0.0,0.0,0.0,0.0,0.0,0.0,0.0,0.0,0.0,0.0,0.0,0.0,4.7554,4.7657,0.0,0.0,0.0,0.0,0.0,0.0,0.0,0.0,0.0,0.0,0.0,0.0,0.0,4.7276,4.7223,4.7276,4.7276,4.7223,4.7276,4.7302,4.732,4.732,4.732,4.732,4.7363,0.0,4.7511,4.7511,0.0,0.0,0.0,0.0,0.0,0.0,0.0,0.0,0.0,0.0,0.0,0.0,0.0,0.0,0.0,0.0,0.0,0.0,0.0,0.0,0.0,0.0,5.2498,5.2498,5.2498,5.2498,0.0,5.2498,5.2498,5.2498,5.2498,0.0,0.0,0.0,0.0,0.0,0.0,0.0,5.3693,5.487,5.5758,5.5975,5.6627,5.708,5.7069,5.7036,5.6915,5.6845,5.583,5.5484,5.6017,5.4488,0.0,0.0,0.0,0.0,0.0,0.0,0.0,0.0,0.0,0.0,0.0,0.0,0.0,0.0,0.0,0.0,0.0,0.0,0.0,0.0,0.0,0.0,0.0,0.0,0.0,0.0,0.0,0.0,0.0,4.7468,4.7381,4.7399,4.7425,4.7468,0.0,0.0,0.0,0.0,0.0,0.0,0.0,0.0,0.0,4.7143,4.7143,4.7116,4.7088,4.7116,4.7116,4.7088,4.7116,4.716,4.7249,4.7249,4.7249,4.7249,4.7276,4.732,4.7356,4.7363,4.7407,4.7468,0.0,0.0,0.0,0.0,4.745,4.7407,4.745,4.7757,0.0,4.855,0.0,0.0,0.0,0.0,0.0,0.0,0.0,0.0,0.0,0.0,5.2498,5.2498,5.2498,5.2498,5.2498,5.2498,5.2498,0.0,5.2498,5.2498,5.2498,0.0,0.0,0.0,0.0,5.4001,5.487,5.5577,5.6156,5.6627,5.6989,5.7188,5.7188,5.6863,5.6528,5.6184,5.5367,5.4782,5.4738,5.3915,5.3601,0.0,0.0,0.0,0.0,0.0,0.0,0.0,0.0,0.0,0.0,0.0,0.0,0.0,0.0,0.0,0.0,0.0,0.0,0.0,0.0,0.0,0.0,0.0,0.0,0.0,0.0,0.0,0.0,4.7363,4.7232,4.7223,4.7276,4.7276,0.0,0.0,0.0,0.0,0.0,0.0,4.7133,4.7133,4.7088,4.698,4.6998,4.6998,4.6998,4.6998,4.6998,4.6998,4.6998,4.7043,4.7133,4.7133,4.7133,4.7133,4.7187,4.7205,4.7133,4.7249,4.7276,4.732,4.7276,4.7276,4.7302,4.7302,4.7276,4.7312,4.7553,4.7958,4.8515,4.8974,4.9721,5.0587,5.1182,0.0,0.0,0.0,0.0,5.2452,5.2498,5.2498,5.2498,5.2498,5.2498,5.2498,5.2498,5.2498,5.2498,0.0,5.2498,5.2498,5.2498,0.0,0.0,0.0,0.0,5.449,5.5812,5.6174,5.6536,5.7134,5.7188,5.7188,5.7188,5.6811,5.6366,5.5904,5.5231,5.4596,5.4045,5.3783,5.3668,5.3501,0.0,0.0,0.0,0.0,0.0,0.0,0.0,0.0,0.0,0.0,0.0,0.0,0.0,0.0,0.0,0.0,0.0,0.0,0.0,0.0,0.0,0.0,0.0,0.0,0.0,0.0,0.0,0.0,0.0,4.7276,4.732,0.0,0.0,0.0,0.0,4.7196,4.7088,4.698,4.6998,4.6998,4.6998,4.6998,4.6998,4.6998,4.6998,4.6998,4.6998,4.6998,4.6998,4.698,4.6998,4.6998,4.6998,4.6998,4.698,4.698,4.7043,4.7133,4.7249,4.7302,4.7223,4.7249,4.7302,4.7302,4.7249,4.7331,4.8138,4.8362,4.8603,5.0239,5.1329,5.1976,5.203,5.2066,0.0,0.0,5.2311,5.2358,5.2452,5.2498,5.2498,5.2498,5.2498,5.2498,5.2498,5.2498,5.2498,0.0,5.2498,5.2498,5.2498,0.0,5.277,5.3585,5.4345,5.5124,5.5884,5.6663,5.7152,5.7188,5.7188,5.7188,5.7188,5.7188,5.7138,5.7138,5.6528,5.5904,5.5325,5.4703,5.4059,5.3501,5.3501,0.0,0.0,0.0,0.0,0.0,0.0,0.0,0.0,0.0,0.0,0.0,0.0,0.0,0.0,0.0,0.0,0.0,0.0,0.0,0.0,0.0,0.0,0.0,0.0,0.0,0.0,0.0,0.0,4.7116,4.7116,0.0,4.7116,4.7088,4.7088,4.7088,4.7043,4.6998,4.6998,4.6998,4.6998,4.6998,4.6998,4.6998,4.6998,4.6998,4.6998,4.6998,4.6998,4.6998,4.6998,4.6998,4.6998,4.6998,4.6998,4.6998,4.698,4.7043,4.7088,4.7098,4.7088,4.7088,4.7116,4.7116,4.7392,4.7893,4.8207,4.8912,4.9931,5.1119,5.1723,5.2005,5.2054,5.2102,5.215,5.2264,5.2311,5.2311,5.2452,5.2498,5.2498,5.2498,5.2498,5.2498,5.2498,5.2498,5.2498,5.2498,5.2498,5.2498,5.2498,5.2933,5.3548,5.4345,5.5124,5.5884,5.6663,5.7025,5.7188,5.7188,5.7188,5.7188,5.7188,5.7188,5.7036,5.6653,5.6073,5.5426,5.4765,5.4124,5.3734,5.3501,5.3501,5.3501,0.0,0.0,0.0,0.0,0.0,0.0,0.0,0.0,0.0,0.0,0.0,0.0,0.0,0.0,0.0,0.0,0.0,0.0,0.0,0.0,0.0,0.0,0.0,0.0,0.0,0.0,4.6998,4.6998,4.6998,4.6998,4.6998,4.6998,4.6998,4.6998,4.6998,4.6998,4.6998,4.6998,4.6998,4.6998,4.6998,4.6998,4.6998,4.6998,4.6998,4.6998,4.6998,4.6998,4.6998,4.6998,4.6998,4.6998,4.6998,4.6998,4.6998,4.6998,4.6998,4.6998,4.6998,4.6998,4.7015,4.7283,4.7729,4.8247,4.8782,4.9817,5.0994,5.1629,5.1858,5.1858,5.1956,5.1956,5.1987,5.212,5.2168,5.2216,5.2405,5.2452,5.2452,5.2498,5.2498,5.2498,5.2498,5.2498,5.2498,5.2498,5.2498,5.2589,5.286,5.3349,5.4055,5.5106,5.5685,5.6283,5.7098,5.7188,5.7188,5.7188,5.7188,5.7188,5.7188,5.7188,5.7036,5.6653,5.6017,5.5426,5.4765,5.4124,5.3734,5.3501,5.3501,5.3501,5.3501,0.0,0.0,0.0,0.0,0.0,0.0,0.0,0.0,0.0,0.0,0.0,0.0,0.0,0.0,0.0,0.0,0.0,0.0,0.0,0.0,0.0,0.0,0.0,4.6998,4.6998,4.6998,4.6998,4.6998,4.6998,4.6998,4.6998,4.6998,4.6998,4.6998,4.6998,4.6998,4.6998,4.6998,4.6998,4.6998,4.6998,4.6998,4.6998,4.6998,4.6998,4.6998,4.6998,4.6998,4.6998,4.6998,4.6998,4.6998,4.6998,4.6998,4.7015,4.7033,4.7033,4.7033,4.7033,4.7122,4.7925,4.8229,4.8478,5.0013,5.1048,5.169,5.169,5.169,5.169,5.169,5.169,5.174,5.1858,5.1907,5.1974,5.2216,5.2311,5.2358,5.2452,5.2498,5.2498,5.2498,5.2498,5.2498,5.2498,5.2516,5.2788,5.3566,5.3729,5.4255,5.5758,5.6011,0.0,5.7098,5.7188,5.7188,5.7188,5.7188,5.7188,5.7188,5.7188,5.7188,5.7188,5.6635,5.6017,5.5443,5.4765,5.4124,5.3501,5.3501,5.3501,5.3501,0.0,0.0,0.0,0.0,0.0,0.0,0.0,0.0,0.0,0.0,0.0,0.0,0.0,0.0,0.0,0.0,0.0,0.0,0.0,0.0,0.0,4.7025,4.6998,4.6998,4.6998,4.6998,4.6998,4.6998,4.6998,4.6998,4.6998,4.6998,4.6998,4.6998,4.6998,4.6998,4.6998,4.6998,4.6998,4.6998,4.6998,4.6998,4.6998,4.6998,4.6998,4.6998,4.6998,4.6998,4.6998,4.6998,4.6998,4.6998,4.6998,4.7033,4.7604,4.7854,4.7854,4.7854,4.7854,4.7943,4.871,4.9371,5.0013,5.1012,5.1512,5.169,5.169,5.169,5.169,5.169,5.169,5.174,5.1858,5.1956,5.2102,5.2264,5.2358,5.2452,5.2498,5.2498,5.2498,5.2498,5.2498,5.2498,5.2498,5.2969,5.344,5.3657,5.4182,5.4907,5.5848,5.65,0.0,5.717,5.7188,5.7188,5.7188,5.7188,5.7188,5.7188,5.7188,5.7188,5.7188,5.6635,5.6017,5.5443,5.4765,5.4124,5.3501,5.3501,5.3501,0.0,0.0,0.0,0.0,0.0,0.0,0.0,0.0,0.0,0.0,0.0,0.0,0.0,0.0,0.0,0.0,0.0,0.0,0.0,0.0,0.0,0.0,4.6998,4.6998,4.6998,4.6998,4.6998,4.6998,4.6998,4.6998,4.6998,4.6998,4.6998,4.6998,4.6998,4.6998,4.6998,4.6998,4.6998,4.6998,4.6998,4.6998,4.6998,4.6998,4.6998,4.6998,4.6998,4.6819,4.6516,4.6837,4.6819,4.6516,4.6837,4.7176,4.7515,4.7997,4.8371,0.0,0.0,0.0,0.0,0.0,5.0316,5.1066,5.153,5.169,5.169,5.169,5.169,5.169,5.169,5.169,5.169,5.179,5.184,5.1938,5.212,5.2198,5.2311,5.2405,5.2405,5.2452,5.2498,5.2498,5.2589,5.2933,5.3385,0.0,5.4544,5.5051,5.5613,5.6373,5.6899,5.7188,5.7188,5.7188,5.7188,5.7188,5.7188,5.7188,5.7188,5.7188,0.0,0.0,0.0,5.5904,5.5009,5.4362,0.0,0.0,0.0,5.3501,5.3501,0.0,0.0,0.0,5.3078,5.3027,0.0,0.0,0.0,0.0,0.0,0.0,0.0,0.0,0.0,0.0,0.0,0.0,0.0,0.0,0.0,0.0,4.6998,4.6998,4.6998,4.6998,4.6998,4.6998,4.6998,4.6998,4.6998,4.6998,4.6998,4.6998,4.6998,4.6998,4.6998,0.0,0.0,0.0,0.0,4.6998,4.6998,4.6998,4.6944,4.6855,4.6855,4.6444,4.5695,4.6498,4.6516,4.598,4.6783,4.7568,4.8318,4.8407,4.8889,4.9585,4.9478,4.9513,4.9674,5.0388,5.1083,5.169,5.169,0.0,0.0,5.169,5.169,5.169,5.169,5.169,5.169,5.169,5.169,5.174,5.1858,5.1907,5.2005,5.2264,5.2311,5.2358,5.2452,5.257,5.2842,5.3566,5.3838,5.4381,5.5758,5.5993,5.6265,5.708,5.7188,5.7188,5.7188,5.7188,5.7188,5.7188,0.0,0.0,5.7188,5.7188,5.7188,5.7188,5.6582,5.5716,5.4579,5.3832,5.3501,5.3501,5.3501,5.3501,5.3501,5.3501,5.3501,5.3501,5.3501,5.3501,0.0,0.0,0.0,0.0,0.0,0.0,0.0,0.0,0.0,0.0,0.0,0.0,0.0,0.0,0.0,4.6998,4.6998,4.6998,4.6998,4.6998,4.6998,4.6998,4.6998,4.6998,4.6998,4.6998,4.6998,4.6998,4.6998,4.6998,4.6998,4.6998,4.6998,4.6998,4.6998,4.6998,4.6998,4.6998,4.6659,4.6034,0.0,0.0,4.4874,4.5677,4.6302,4.6801,4.7604,4.8389,4.9156,4.9799,5.0513,5.1173,5.053,5.0673,5.1244,5.1405,5.1565,5.169,5.169,5.169,5.169,5.169,5.169,5.169,5.169,5.169,0.0,5.169,5.1808,5.1858,5.1907,5.1956,5.2102,5.2264,5.2311,5.2358,5.2452,5.3005,5.3512,5.3675,5.4689,5.5649,5.5939,5.5993,5.6265,5.708,5.7188,5.7188,5.7188,5.7188,5.7188,5.7188,5.7188,5.7188,5.7188,5.7188,5.7188,5.7188,5.6184,5.5443,5.5207,5.4093,5.3501,5.3501,5.3501,5.3501,5.3501,5.3501,5.3501,5.3501,5.3501,5.3501,0.0,0.0,0.0,0.0,0.0,0.0,0.0,0.0,0.0,0.0,0.0,4.6998,4.6998,0.0,4.6998,4.6998,4.6998,4.6998,4.6998,4.6998,4.6998,4.6998,4.6998,4.6998,4.6998,4.6998,4.6998,4.6998,4.6998,4.6998,4.6998,4.6998,4.6819,4.6409,4.6391,4.6212,4.5802,4.5802,4.5802,4.5802,4.5802,4.5802,4.5838,4.6623,4.7212,4.7622,4.8407,4.9192,4.9977,5.078,5.1333,5.1654,5.1262,5.1351,5.169,5.169,5.169,5.169,5.169,5.169,5.169,5.169,5.169,5.169,5.169,5.169,5.169,5.169,5.174,5.1808,5.1808,5.1907,5.2054,5.215,5.2264,5.2466,5.2958,5.3422,5.3929,5.4689,5.5468,5.612,5.6518,5.6591,5.6736,5.7134,5.7188,5.7188,5.7188,5.7188,5.7188,5.7188,5.7188,5.7188,5.7188,5.7188,5.7188,5.7188,5.6348,5.5733,5.5385,5.4488,5.3849,5.3501,5.3501,5.3501,5.3501,5.3501,5.3501,5.3501,5.3501,5.3501,0.0,0.0,0.0,0.0,0.0,0.0,0.0,0.0,4.6998,4.6998,4.6998,4.6998,4.6998,4.6998,4.6998,4.6998,4.6998,4.6998,4.6998,4.6998,4.6998,4.6998,4.6998,4.6998,4.6998,4.6998,4.6998,4.6998,4.6998,4.6926,4.6766,4.6766,4.6391,4.5588,4.557,4.5338,4.4856,4.4839,4.5249,4.6034,4.6034,4.6373,4.7015,4.7818,4.8264,4.8443,4.9371,5.0138,5.078,5.1422,5.169,5.169,5.169,5.169,5.169,5.169,5.169,5.169,5.169,5.169,5.169,5.169,5.169,5.169,5.169,5.169,5.169,5.169,5.169,5.169,5.169,5.1808,5.1907,5.2054,5.2324,5.2773,5.3519,5.3947,5.4508,5.5758,5.612,5.6428,5.708,5.7188,5.7188,5.7188,5.7188,5.7188,5.7188,5.7188,5.7188,5.7188,5.7188,5.7188,5.7188,5.7188,5.7188,5.7188,5.6635,5.6017,5.5443,5.4765,5.4124,5.3501,5.3501,5.3501,5.3501,5.3501,5.3501,5.3501,5.3501,5.3501,4.6998,4.6998,4.6998,4.6998,4.6998,4.6998,0.0,0.0,4.6998,4.6998,4.6998,4.6998,4.6998,4.6998,4.6998,4.6998,4.6998,4.6998,4.6998,4.6998,4.6998,4.6998,4.6998,4.6998,4.6998,4.6998,4.6998,4.6998,4.6998,4.6676,4.5963,4.5927,4.557,4.4767,4.4749,4.5035,4.5659,4.5677,4.607,4.6855,4.6855,4.6908,4.7015,4.7818,4.855,4.9281,5.078,5.1476,5.1565,5.1654,5.169,5.169,5.169,5.169,5.169,5.169,5.169,5.169,5.169,5.169,5.169,5.169,5.169,5.169,5.169,5.169,5.169,5.169,5.169,5.169,5.169,5.1808,5.1907,5.2054,5.2738,5.3424,5.3628,5.478,5.5776,5.5957,5.6573,5.708,5.717,5.7188,5.7188,5.7188,5.7188,5.7188,5.7188,5.7188,5.7188,5.7188,5.7188,5.7188,5.7188,5.7188,5.7188,5.7188,5.6635,5.6017,5.5443,5.4765,5.4124,5.3501,5.3501,5.3501,5.3501,5.3501,5.3501,5.3501,5.3501,5.3501,4.6998,4.6998,0.0,0.0,4.6998,4.6998,4.6998,4.6998,4.6998,4.6998,4.6998,4.6998,4.6998,4.6998,4.6998,0.0,4.6998,4.6998,4.6998,4.6998,4.6998,4.6998,4.6998,4.6998,4.6998,4.6998,4.6801,4.6337,4.6302,4.5945,4.516,4.5106,4.4767,4.4,4.3982,4.4125,4.4464,4.4892,4.5749,4.6998,4.7461,4.8157,4.9049,4.9388,4.9959,5.0727,5.1405,5.169,5.169,5.169,5.169,5.169,5.169,5.169,5.169,5.169,5.169,5.169,5.169,5.169,5.169,5.169,5.169,5.169,5.169,5.169,5.169,5.169,5.169,5.169,5.169,5.1858,5.2161,5.2677,5.3201,5.3881,5.4834,5.554,5.6138,5.6609,5.6971,5.7188,5.7188,5.7188,5.7188,5.7188,5.7188,5.7188,5.7188,5.7188,5.7188,5.7188,5.7188,5.7188,5.7188,5.7188,5.7387,5.7876,5.767,5.7314,5.6761,5.6475,5.5865,5.4786,5.4786,5.4786,5.4786,5.4786,5.4786,5.4786,5.4786,5.4786,4.6998,0.0,0.0,4.6998,4.6998,4.6998,4.6998,4.6998,4.6998,4.6998,4.6998,4.6998,4.6998,4.6998,4.6998,4.6998,4.6998,4.6998,4.6998,4.6998,4.698,4.7043,4.7043,4.6999,4.6784,4.6704,4.6427,4.59,4.5606,4.5142,4.4357,4.4321,4.3964,4.3197,4.359,4.3929,4.4143,4.5106,4.6391,4.7961,4.855,4.9531,5.0816,5.0602,5.0816,5.1351,5.1137,5.103,5.103,5.103,5.1173,5.1369,5.1369,5.1494,5.169,5.169,5.169,5.169,5.169,5.169,5.169,5.169,5.169,5.169,5.169,5.169,5.169,5.169,5.169,5.169,5.1758,5.2117,5.2569,5.3212,5.3875,5.4635,5.5758,5.6156,5.65,5.708,5.7188,5.7188,5.7188,5.7188,5.7188,5.7188,5.7188,5.7188,5.7188,5.7188,5.7188,5.7188,5.7188,5.7279,5.7514,5.7532,5.7876,5.8691,5.8728,5.8393,5.7728,5.7684,5.7074,5.5716,5.5716,5.5716,5.5716,5.5716,5.5716,5.5716,5.5716,5.5716,0.0,0.0,4.6998,4.6998,4.6998,4.6998,4.6998,4.6998,4.6998,4.6998,4.6998,4.6998,4.6998,4.6998,4.6998,4.6998,4.6998,4.6998,4.6998,4.6998,4.7043,4.7196,4.7178,4.6936,0.0,4.5988,4.5882,4.5996,4.5132,4.4321,4.359,4.3536,4.3179,4.2341,4.3804,4.4946,4.5731,4.7283,4.8853,5.0388,5.0423,5.0869,5.1637,5.0869,5.0513,5.0495,4.9727,4.9388,4.9388,4.9388,4.9834,5.0548,5.0548,5.1012,5.169,5.169,5.169,5.169,5.169,5.169,5.169,5.169,5.169,5.169,5.169,5.169,5.169,5.169,5.169,5.174,5.1858,5.2579,5.3302,5.3484,5.4719,5.5939,5.5975,5.6609,5.717,5.7188,5.7188,5.7188,5.7188,5.7188,5.7188,5.7188,5.7188,5.7188,5.7188,5.7188,5.7188,5.7188,5.7188,5.7514,5.8293,5.8365,5.8709,5.9524,5.9561,5.8986,5.7745,5.7684,5.7074,5.5716,5.5716,5.5716,5.5716,5.5716,5.5716,5.5716,5.5716,5.5716,0.0,0.0,4.6998,4.6998,4.6998,4.6998,4.6998,4.6998,4.6998,4.6998,4.6998,4.6998,4.6998,4.6998,4.6998,4.6998,4.6998,4.6998,4.6998,4.7088,4.7133,4.7178,4.6819,0.0,0.0,0.0,0.0,4.4492,4.4127,4.3602,4.2869,4.2757,4.2846,4.3179,4.4114,4.5249,4.6569,4.764,4.8693,4.971,4.971,4.987,5.0102,4.9834,4.971,4.971,4.9442,4.962,5.0102,5.0102,5.0584,5.1298,5.1298,5.1458,5.169,5.169,5.169,5.169,5.169,5.169,5.169,5.169,5.169,5.169,5.169,5.169,5.169,5.169,5.2165,5.2627,5.2677,5.3468,5.4355,5.4945,5.555,5.6138,5.6681,5.7007,5.7188,5.7188,5.7188,5.7188,5.7188,5.7188,5.7188,5.7188,5.7188,5.7188,5.7188,5.7188,5.7188,5.7188,5.7677,5.8112,5.8383,5.8891,5.9542,6.0357,6.0412,6.0212,5.9912,5.9444,5.8811,5.7844,5.7406,5.7154,5.7154,5.7154,5.7154,5.7154,5.7154,5.7154,4.6998,4.6998,4.6998,4.6998,4.6998,4.6998,4.6998,4.6998,4.6998,4.6998,4.6998,4.6998,4.6998,4.6998,4.6998,4.6998,4.6998,4.7043,4.7043,4.7151,4.7133,4.6916,4.6475,4.6038,0.0,0.0,0.0,4.3745,4.3404,4.3046,4.2539,4.2655,4.3179,4.4068,4.4997,4.6105,4.75,4.824,4.8835,4.9317,4.9317,4.9317,4.9317,4.9032,4.9049,4.9299,4.9032,4.9353,5.0084,5.0084,5.0548,5.1262,5.1262,5.144,5.169,5.169,5.169,5.169,5.169,5.169,5.169,5.169,5.169,5.169,5.169,5.169,5.1744,5.208,5.2627,5.3193,5.3562,5.4395,5.5284,5.584,5.6197,5.6573,5.708,5.7188,5.7188,5.7188,5.7188,5.7188,5.7188,5.7188,5.7188,5.7188,5.7188,5.7188,5.7188,5.7188,5.7315,5.7605,5.8094,5.8637,5.9216,5.9742,6.0375,6.119,6.1245,6.1151,6.1027,6.0608,6.003,5.9297,5.8581,5.8263,5.8263,5.801,5.7881,5.7881,5.7881,5.7881,4.6998,4.6998,4.6998,4.6998,4.6998,4.6998,4.6998,4.6998,4.6998,4.6998,4.6998,4.6998,0.0,0.0,4.6998,4.6998,4.6998,4.7043,4.7196,4.7196,4.6962,0.0,0.0,0.0,0.0,0.0,0.0,4.3836,0.0,4.2641,4.2557,4.3274,4.4086,4.5036,4.6328,4.7464,4.8424,4.8954,4.9228,4.9192,4.9192,4.9228,4.9228,4.8514,4.8586,4.9281,4.855,4.8675,4.9388,4.9388,4.9852,5.0566,5.0566,5.103,5.169,5.169,5.169,5.169,5.169,5.169,5.169,5.169,5.169,5.169,5.169,5.1726,5.1955,5.2856,5.3175,5.3476,5.4499,5.5392,5.597,5.6066,5.6627,5.7188,5.7188,5.7188,5.7188,5.7188,5.7188,5.7188,5.7188,5.7188,5.7188,5.7188,5.7188,5.7188,5.7188,5.7243,5.755,5.8329,5.8474,5.9144,6.0683,6.0846,6.1208,6.1969,6.2023,6.1692,6.1104,6.1004,6.0686,6.003,5.9297,5.8892,5.8892,5.8209,5.7881,5.7881,5.7881,5.7881,4.6998,4.6998,4.6998,4.6998,4.6998,4.6998,4.6998,4.6998,4.6998,4.6998,4.6998,4.6998,0.0,0.0,0.0,4.6998,4.6998,0.0,4.7196,4.7249,0.0,4.6368,0.0,4.516,4.4186,4.3552,0.0,0.0,4.3754,4.3646,4.3606,4.4263,4.5054,4.5954,4.6798,4.7626,4.8479,4.8522,4.8307,4.7824,4.766,4.7936,4.8565,4.8293,4.8586,4.9299,4.9103,4.9478,5.0191,5.0191,5.0673,5.1387,5.1387,5.1512,5.169,5.169,5.174,5.1858,5.174,5.169,5.169,5.169,5.169,5.169,5.169,5.2201,5.2802,5.3017,5.4083,5.5256,5.5523,5.6237,5.6848,5.6899,5.7043,5.7188,5.7188,5.7188,5.7188,5.7188,5.7188,5.7188,5.7188,5.7188,5.7188,5.7188,5.7188,5.7188,5.7188,5.7713,5.8166,5.8383,5.947,6.0357,6.0774,6.1371,6.1788,6.2005,6.2023,6.195,6.1766,6.1257,6.0927,6.0729,5.9543,5.8892,5.8892,5.8209,5.7881,5.7881,5.7881,5.7881,4.6998,4.6998,4.6998,4.6998,4.6998,4.6998,4.6998,4.6998,4.6998,4.6998,4.6998,0.0,0.0,0.0,0.0,0.0,0.0,0.0,4.7205,4.7006,4.6572,0.0,4.5214,0.0,4.3643,4.3462,4.3607,0.0,4.4035,4.4177,4.4498,4.5215,4.599,4.691,4.7173,4.7535,4.7985,4.7878,4.7824,4.7841,4.7707,4.8092,4.8918,4.8862,4.9245,4.9931,0.0,5.0329,5.103,5.1079,5.1347,5.169,5.174,5.1808,5.1808,5.1808,5.1858,5.1956,5.1889,5.1907,5.184,5.174,5.169,5.1762,5.2201,5.2663,5.3265,5.4083,5.508,5.6006,5.6382,5.683,5.7188,5.7188,5.7188,5.7188,5.7188,5.7188,5.7188,5.7188,5.7188,5.7188,5.7188,5.7188,5.7188,5.7188,5.7188,5.7333,5.7677,5.8112,5.8546,5.8891,6.0068,6.0955,6.1317,6.1752,6.2023,6.2023,6.2023,6.2023,6.2023,6.1636,6.143,6.143,6.0388,5.9674,5.9363,5.8324,5.7715,5.7408,5.7087,5.6934,4.698,4.6998,4.6998,4.6998,4.6998,4.6998,4.6998,4.6998,4.6998,4.6998,0.0,4.6998,4.6998,4.698,4.7043,4.698,0.0,4.7116,4.7276,4.6654,4.5966,4.5359,4.4584,4.3824,4.3118,4.3679,4.4186,4.4403,4.4421,4.469,4.5351,4.6068,4.685,4.7681,4.745,4.7363,4.7363,4.7453,4.7867,4.8551,4.8614,4.9081,4.9919,4.9855,5.0239,5.0898,5.0898,5.1195,5.174,5.1858,5.1858,5.174,5.1907,5.1907,5.1907,5.1907,5.2005,5.215,5.2102,5.2156,5.2246,5.1875,5.1812,5.2076,5.2856,5.3265,5.3832,5.5437,5.6006,5.6223,5.7025,5.7188,5.7188,5.7188,5.7188,5.7188,5.7188,5.7188,5.7188,5.7188,5.7188,5.7188,5.7188,5.7188,5.7188,5.7188,5.7279,5.7605,5.8311,5.8492,5.8872,5.9669,6.0484,6.1245,6.1951,6.2023,6.2023,6.2023,6.2023,6.2023,6.2023,6.1915,6.186,6.186,6.1103,6.0427,5.9794,5.8407,5.7465,5.6772,5.6128,5.577,4.7043,4.6998,4.6998,4.6998,4.6998,4.6998,4.6998,4.6998,0.0,0.0,0.0,4.6998,4.6998,4.7088,0.0,4.7043,0.0,0.0,0.0,0.0,4.6031,0.0,0.0,0.0,0.0,0.0,0.0,0.0,0.0,4.6142,4.6264,4.7024,4.7512,4.7699,4.7657,4.7615,4.7615,4.8179,4.8576,4.8826,4.928,4.9973,5.0857,5.0746,5.1131,5.1886,5.1886,0.0,5.2036,5.2054,5.2036,5.2036,5.2054,5.2054,5.2054,5.2054,5.215,5.2264,5.215,5.263,5.3111,5.23,5.2485,5.3059,5.3203,5.4255,5.5473,5.5812,5.6418,5.7025,5.717,5.7188,5.7188,5.7188,5.7188,5.7188,5.7188,5.7188,5.7188,5.7188,5.7188,5.7188,5.7188,5.7188,5.7188,5.7188,5.7768,5.8239,5.8383,5.8981,5.9705,6.052,6.1317,6.186,6.2005,6.2023,6.2023,6.2023,6.2023,6.2023,6.2023,6.1371,6.1027,6.1027,5.9701,5.8984,5.8868,5.8053,5.7295,5.6658,5.652,5.6184,4.7143,4.7143,4.7143,4.7143,4.7143,4.7143,4.7143,0.0,0.0,0.0,0.0,4.7143,4.7143,0.0,0.0,0.0,0.0,0.0,0.0,0.0,0.0,0.0,0.0,0.0,0.0,0.0,0.0,0.0,0.0,4.712,4.712,4.75,4.7717,4.7717,4.8116,4.8333,4.8333,4.9068,4.9683,5.0144,5.0389,5.0985,5.1827,5.1762,5.1885,5.2198,5.2198,5.215,5.2102,5.215,5.215,5.2102,5.215,5.2198,5.2198,5.2198,5.2564,5.3038,5.2972,5.3496,5.414,5.3713,5.3693,5.404,5.4503,5.522,5.6006,5.6454,5.6866,5.7188,5.7188,5.7188,5.7188,5.7188,5.7188,5.7188,5.7188,5.7188,5.7188,5.7188,5.7188,5.7188,5.7188,5.7188,5.7333,5.775,5.8148,5.8709,5.9542,5.9995,6.0375,6.0774,6.1534,6.2023,6.2023,6.2023,6.1842,6.1408,6.139,6.1208,6.0774,6.0394,6.0194,6.0194,5.9493,5.8948,5.8592,5.7876,5.7173,5.6558,5.5778,5.53,4.7302,4.7302,4.7302,4.7302,4.7302,4.7302,4.7302,4.7302,0.0,0.0,0.0,4.7302,4.7302,0.0,0.0,0.0,0.0,0.0,0.0,0.0,0.0,0.0,0.0,0.0,0.0,0.0,0.0,0.0,0.0,0.0,4.7717,4.7717,4.779,4.7953,4.8586,4.9003,4.9166,4.9963,5.0651,5.1285,5.1466,5.1882,5.2498,5.2498,5.2452,5.2358,5.2358,5.2293,5.2198,5.2311,5.2311,5.2198,5.2311,5.2466,5.2611,5.2611,5.3182,5.3965,5.3965,5.4472,5.5142,5.5142,5.4977,5.4936,5.5717,5.6024,5.6346,5.7025,5.7188,5.7188,5.7188,5.7188,5.7188,5.7188,5.7188,5.7188,5.7188,5.7188,5.7188,5.7188,5.7188,5.7188,5.7188,5.7188,5.746,5.8275,5.8546,5.918,6.0629,6.081,6.081,6.081,6.139,6.1752,6.1752,6.1589,6.1227,6.0593,6.0557,6.0267,5.9633,5.9434,5.9343,5.9343,5.918,5.8843,5.8317,5.7746,5.7092,5.6441,5.5331,5.4624,4.7302,4.7302,4.7302,4.7302,4.7302,4.7302,4.7302,0.0,0.0,0.0,4.7302,4.7302,4.7302,0.0,0.0,0.0,0.0,4.6494,0.0,0.0,0.0,0.0,0.0,0.0,0.0,0.0,0.0,0.0,0.0,0.0,4.7717,4.7717,4.8043,4.8786,4.8876,4.9257,4.9963,5.0778,5.1212,5.1303,5.2027,5.2426,5.2498,5.2498,5.2498,5.2498,5.2498,5.2498,0.0,5.2498,5.2498,5.2452,5.2498,5.2951,5.3585,5.3585,5.411,5.4798,5.4798,5.5287,5.5884,5.5884,5.5884,5.5853,5.5975,5.6518,5.7116,5.717,5.7188,5.7188,5.7188,5.7188,5.7188,5.7188,5.7188,5.7188,5.7188,5.7188,5.7188,5.7188,5.7188,5.7188,5.7188,5.7188,5.746,5.8275,5.9017,5.9814,6.0701,6.081,6.081,6.081,6.0883,6.0919,6.0919,6.0249,5.9796,5.9724,5.9724,5.9687,5.9615,5.8909,5.851,5.851,5.7786,5.7373,5.7355,5.7282,5.6901,5.6308,5.6164,5.5543,4.7852,4.7893,4.7955,4.8137,4.8056,4.7893,4.7893,0.0,0.0,4.7554,4.7747,4.7811,4.7597,4.7788,0.0,0.0,4.7343,0.0,0.0,0.0,0.0,0.0,0.0,0.0,0.0,0.0,0.0,0.0,0.0,0.0,4.8707,4.8514,4.8586,4.8912,4.9836,5.0488,5.0814,5.1611,5.2009,5.2027,5.2353,5.2498,5.2498,5.2498,5.2498,5.2498,5.2498,5.2498,0.0,5.2498,5.2788,5.3222,5.3222,5.3711,5.4418,5.4418,5.4907,5.5558,5.5558,5.6066,5.6717,5.6717,5.6717,5.6717,5.6717,5.6935,5.7188,5.7188,5.7188,5.7188,5.7188,5.7188,5.7188,5.7188,5.7188,5.7188,5.7188,5.7188,5.7188,5.7188,5.7188,5.7188,5.7188,5.7188,5.746,5.8275,5.8673,5.918,5.9977,6.0086,6.0086,6.0086,6.0086,6.0086,6.0086,5.9796,5.9398,5.8909,5.8891,5.8655,5.8184,5.784,5.7677,5.7677,5.7351,5.7188,5.7188,5.7188,5.7087,5.6811,5.6474,5.6017,4.8229,4.8364,4.8495,4.8746,4.8623,4.8439,0.0,0.0,0.0,4.8014,4.8249,4.8326,4.7929,4.813,4.8151,4.7783,4.7625,4.7405,4.713,0.0,0.0,0.0,0.0,0.0,0.0,0.0,0.0,0.0,0.0,0.0,4.9774,4.9677,4.9619,4.9619,5.0705,5.1411,5.1647,5.2208,5.2498,5.2498,5.2498,5.2498,5.2498,5.2498,5.2498,5.2498,5.2498,5.2643,0.0,5.2842,5.3331,5.4055,5.4055,5.4526,5.5233,5.5233,5.5703,5.6337,5.6337,5.6717,5.7188,5.7188,5.7188,5.7188,5.7188,5.7188,5.7188,5.7188,5.7188,5.7188,5.7188,5.7188,5.7188,5.7188,5.7188,5.7188,5.7188,5.7188,5.7188,5.7188,5.7188,5.7188,5.7188,5.7188,5.746,5.8275,5.8402,5.8691,5.9506,5.9398,5.9253,5.9253,5.9035,5.8999,5.9216,5.9035,5.8655,5.8076,5.8058,5.7786,5.7224,5.7188,5.7188,5.7188,5.7188,5.7188,5.7188,5.7188,5.7188,5.7188,5.6758,5.6474,4.8306,4.8532,4.8816,4.8816,4.8816,4.8781,0.0,0.0,0.0,4.8781,4.8781,4.8676,4.8382,4.8306,4.8151,4.7783,4.7375,4.7095,4.7095,0.0,0.0,0.0,0.0,0.0,0.0,0.0,0.0,0.0,0.0,0.0,5.0618,5.106,5.1267,5.1267,5.1285,5.1665,5.248,5.2498,5.2498,5.2498,5.2498,5.2498,5.2498,5.2498,5.2498,5.2498,5.2498,5.2951,0.0,5.3693,5.4164,5.4888,5.4888,5.5341,5.5975,5.5975,5.65,5.7188,5.7188,5.7188,5.7188,5.7188,5.7188,5.7188,5.7188,5.7188,5.7188,5.7188,5.7188,5.7188,5.7188,5.7188,5.7188,5.7188,5.7188,5.7188,5.7188,5.7188,5.7188,5.7188,5.7188,5.7188,5.7188,5.7188,5.746,5.8275,5.8402,5.8691,5.9506,5.8909,5.842,5.842,5.7695,5.755,5.8347,5.7677,5.7224,5.7206,5.7206,5.7206,5.7188,5.7188,5.7188,5.7188,5.7188,5.7188,5.7188,5.7188,5.7188,5.7188,5.7188,5.6863,4.8513,4.8711,4.8919,4.942,4.9377,4.922,4.922,0.0,0.0,0.0,4.9005,4.9071,4.873,4.8887,4.8922,4.8513,4.8365,4.834,4.8632,0.0,0.0,0.0,0.0,0.0,0.0,0.0,0.0,0.0,0.0,0.0,5.186,5.2293,5.2149,5.1303,5.1828,5.2226,5.2498,5.2498,5.2498,5.2498,5.2498,5.2498,5.2498,5.2498,5.2498,5.2516,5.3078,5.3458,5.3748,5.4291,5.4979,5.5649,5.5649,5.612,5.6808,5.6808,5.6971,5.7188,5.7188,5.7188,5.7188,5.7188,5.7188,5.7188,5.7188,5.7188,5.7188,5.7188,5.7188,5.7188,5.7188,5.7188,5.7188,5.7188,5.7188,5.7188,5.7188,5.7188,5.7188,5.7188,5.7188,5.7188,5.7188,5.7188,5.7279,5.7532,5.7587,5.7677,5.7931,5.7732,5.7587,5.7587,5.7351,5.7297,5.755,5.7351,5.7188,5.7188,5.7188,5.7188,5.7188,5.7188,5.7188,5.7188,5.7188,5.7188,5.7188,5.7188,5.7188,5.7188,5.7188,5.7376,0.0,4.9137,4.9327,4.9797,4.9741,0.0,0.0,0.0,0.0,0.0,0.0,0.0,4.9104,4.922,4.927,4.885,4.8937,4.9104,4.9365,0.0,0.0,0.0,0.0,0.0,0.0,0.0,0.0,0.0,0.0,0.0,5.2884,5.3031,5.2681,5.1801,5.2226,5.2498,5.2498,5.2498,5.2498,5.2498,5.2498,5.2498,5.2498,5.2806,5.2951,5.3005,5.3802,5.4309,0.0,5.5106,5.5758,5.6446,5.6446,5.6754,5.7188,5.7188,5.7188,5.7188,5.7188,5.7188,5.7188,5.7188,5.7188,5.7188,5.7188,5.7188,5.7188,5.7188,5.7188,5.7188,5.7188,5.7188,5.7188,5.7188,5.7188,5.7188,5.7188,5.7188,5.7188,5.7188,5.7188,5.7188,5.7188,5.7188,5.7188,5.7188,5.7188,5.7188,5.7188,5.7188,5.7188,5.7188,5.7188,5.7188,5.7188,5.7188,5.7188,5.7188,5.7188,5.7188,5.7188,5.7188,5.7188,5.7188,5.7188,5.7188,5.7188,5.7496,5.7641,5.7659,5.7967,5.8365,0.0,4.9655,4.9852,4.9879,4.9898,4.9898,0.0,0.0,0.0,0.0,0.0,0.0,4.9506,4.9446,4.9315,4.8952,4.9169,4.9446,4.9446,0.0,0.0,0.0,0.0,0.0,0.0,0.0,0.0,0.0,0.0,0.0,5.3758,5.3428,5.3011,5.2599,5.2599,5.2572,5.2498,5.2544,5.2544,5.2498,5.2498,5.2516,5.2607,5.3367,5.3729,0.0,5.4635,5.5377,5.5993,5.6047,5.6518,5.7188,5.7188,5.7188,5.7188,5.7188,5.7188,5.7188,5.7188,5.7188,5.7188,5.7188,5.7188,5.7188,5.7188,5.7188,5.7188,5.7188,5.7188,5.7188,5.7188,5.7188,5.7188,5.7188,5.7188,5.7188,5.7188,5.7188,5.7188,5.7188,5.7188,5.7188,5.7188,5.7188,5.7188,5.7188,5.7188,5.7188,5.7188,5.7188,5.7188,5.7188,5.7188,5.7188,5.7188,5.7188,5.7188,5.7188,5.7188,5.7188,5.7188,5.7188,5.7188,5.7188,5.7261,5.7315,5.7369,5.8112,5.8492,5.851,5.9253,5.9633,4.9914,0.0,4.9596,4.9824,4.9898,4.9898,0.0,0.0,0.0,0.0,0.0,0.0,0.0,4.9769,4.9769,4.9665,4.9722,4.9797,4.9852,0.0,0.0,0.0,0.0,0.0,0.0,0.0,0.0,0.0,0.0,5.4538,5.4322,5.4221,5.3994,5.3589,5.351,5.3185,5.2498,5.2787,5.2787,5.2498,5.2498,5.2824,5.3422,5.3603,5.4037,5.4671,5.5414,5.583,5.6047,5.6663,5.7025,5.7188,5.7188,5.7188,5.7188,5.7188,5.7188,5.7188,5.7188,5.7188,5.7188,5.7188,5.7188,5.7188,5.7188,5.7188,5.7188,5.7188,5.7188,5.7188,5.7188,5.7188,5.7188,5.7188,5.7188,5.7188,5.7188,5.7188,5.7188,5.7188,5.7188,5.7188,5.7188,5.7188,5.7188,5.7188,5.7188,5.7188,5.7188,5.7188,5.7188,5.7188,5.7188,5.7188,5.7188,5.7188,5.7188,5.7188,5.7188,5.7188,5.7188,5.7188,5.7188,5.7188,5.7804,5.842,5.9054,5.9235,5.9325,5.9325,5.9524,5.9941,5.0158,4.9933,4.975,4.9952,5.0005,5.0005,5.0005,0.0,0.0,0.0,0.0,0.0,0.0,0.0,0.0,5.0005,5.0005,4.9986,0.0,0.0,0.0,0.0,0.0,0.0,0.0,0.0,0.0,0.0,0.0,5.4971,5.4535,5.4503,5.4322,5.3904,5.403,5.3721,5.2857,5.3072,5.2962,5.2498,5.2889,5.3305,5.3729,5.4436,5.4979,5.545,5.621,5.6536,5.6573,5.7025,5.7188,5.7188,5.7188,5.7188,5.7188,5.7188,5.7188,5.7188,5.7188,5.7188,5.7188,5.7188,5.7188,5.7188,5.7188,5.7188,5.7188,5.7188,5.7188,5.7188,5.7188,5.7188,5.7188,5.7188,5.7188,5.7188,5.7188,5.7188,5.7188,5.7188,5.7188,5.7188,5.7188,5.7188,5.7188,5.7188,5.7188,5.7188,5.7188,5.7188,5.7188,5.7188,5.7188,5.7188,5.7188,5.7188,5.7188,5.7188,5.7188,5.7188,5.7188,5.7188,5.7369,5.7732,5.8546,5.9162,5.9615,5.9977,6.0158,6.0176,6.0538,6.0937,5.0231,5.0163,5.0133,5.0108,5.0108,5.0108,0.0,0.0,0.0,0.0,0.0,0.0,0.0,0.0,0.0,0.0,0.0,0.0,0.0,0.0,0.0,0.0,0.0,0.0,0.0,0.0,0.0,0.0,0.0,5.5056,5.4647,5.4647,5.4471,5.4134,5.442,5.4236,5.3434,5.3407,5.3188,5.2845,5.3499,5.3907,5.4139,5.5444,5.6066,5.626,0.0,0.0,5.7188,5.7188,5.7188,5.7188,5.7188,5.7188,5.7188,5.7188,5.7188,5.7188,5.7188,5.7188,5.7188,5.7188,5.7188,5.7188,5.7188,5.7188,5.7188,5.7188,5.7188,5.7188,5.7188,5.7188,5.7188,5.7188,5.7188,5.7188,5.7188,5.7188,5.7188,5.7188,5.7188,5.7188,5.7188,5.7188,5.7188,5.7188,5.7188,5.7188,5.7188,5.7188,5.7188,5.7188,5.7188,5.7188,5.7188,5.7188,5.7188,5.7188,5.7188,5.7261,5.7369,5.7496,5.7949,5.8746,5.9452,5.985,5.9977,6.0665,6.0991,6.1009,6.1697,6.2023,5.0278,5.0278,5.0255,5.0133,5.0108,5.0108,0.0,0.0,0.0,0.0,0.0,0.0,0.0,0.0,0.0,0.0,0.0,0.0,0.0,0.0,0.0,0.0,0.0,0.0,0.0,0.0,0.0,0.0,0.0,5.5332,5.526,5.526,5.5214,5.5187,5.5102,5.4857,5.4382,5.4067,5.4016,5.4257,5.3945,5.4563,5.5986,5.5982,5.6405,5.7175,0.0,5.7188,5.7188,5.7188,5.7188,5.7188,5.7188,5.7188,5.7188,5.7188,5.7188,5.7188,5.7188,5.7188,5.7188,5.7188,5.7188,5.7188,5.7188,5.7188,5.7188,5.7188,5.7188,5.7188,5.7188,5.7188,5.7188,5.7188,5.7188,5.7188,5.7188,5.7188,5.7188,5.7188,5.7188,5.7188,5.7188,5.7188,5.7188,5.7188,5.7188,5.7188,5.7188,5.7188,5.7188,5.7188,5.7188,5.7188,5.7188,5.7188,5.7188,5.7188,5.7188,5.7514,5.8184,5.8872,5.9615,6.043,6.0557,6.0955,6.1643,6.177,6.1842,6.1842,6.1951,6.2023,5.0302,5.0302,5.0278,5.0231,5.0207,0.0,0.0,0.0,0.0,0.0,0.0,0.0,0.0,0.0,0.0,0.0,0.0,0.0,0.0,0.0,0.0,0.0,0.0,0.0,0.0,0.0,0.0,0.0,0.0,0.0,5.5403,5.5403,5.5403,5.5403,5.5339,5.5431,5.5674,5.5316,5.5069,5.4929,5.5391,5.6004,5.6738,5.7024,5.7277,5.7406,0.0,5.7257,5.7188,5.7188,5.7188,5.7188,5.7188,5.7188,5.7188,5.7188,5.7188,5.7188,5.7188,5.7188,5.7188,5.7188,5.7188,5.7188,5.7188,5.7188,5.7188,5.7188,5.7188,5.7188,5.7188,5.7188,5.7188,5.7188,5.7188,5.7188,5.7188,5.7188,5.7188,5.7188,5.7188,5.7188,5.7188,5.7188,5.7188,5.7188,5.7239,5.7289,5.7206,5.7239,5.7289,5.7206,5.7188,5.7188,5.7188,5.7605,5.784,5.784,5.784,5.8202,5.9017,5.9832,6.043,6.081,6.1245,6.1643,6.2023,6.2023,6.2023,6.2023,6.2023,6.2023,5.0302,5.0302,5.0302,0.0,0.0,0.0,0.0,0.0,0.0,0.0,0.0,0.0,0.0,0.0,0.0,0.0,0.0,0.0,0.0,0.0,0.0,0.0,0.0,0.0,0.0,0.0,0.0,0.0,0.0,0.0,5.5403,5.5403,5.5403,5.5403,5.5575,5.5976,5.6587,5.6654,5.6449,5.5988,5.6908,5.7394,5.7538,5.7999,5.8005,5.766,5.7486,5.7406,5.7289,5.7289,5.7307,5.7257,5.7257,5.7257,5.7188,5.7188,5.7188,5.7188,5.7188,5.7188,5.7188,5.7188,5.7188,5.7188,5.7188,5.7188,5.7188,5.7188,5.7188,5.7188,5.7188,5.7188,5.7188,5.7188,5.7188,5.7188,5.7188,5.7188,5.7188,5.7188,5.7188,5.7188,5.7188,5.7188,5.7188,5.7239,5.7338,5.7388,5.7289,5.7388,5.7406,5.7289,5.7257,5.7311,5.751,5.8272,5.8815,5.9048,5.9066,5.9338,5.9903,6.0719,6.1082,6.11,6.1697,6.2023,6.2023,6.2023,6.2023,6.2023,6.2023,6.2023,5.0302,5.0302,5.0302,0.0,0.0,0.0,0.0,0.0,0.0,0.0,0.0,0.0,0.0,0.0,0.0,0.0,0.0,0.0,0.0,0.0,0.0,0.0,0.0,0.0,0.0,0.0,0.0,0.0,0.0,0.0,5.5403,5.5403,5.5403,5.5403,5.611,5.653,5.6587,5.7745,5.8299,5.8248,5.7935,5.8222,5.9028,5.8471,5.827,5.8314,5.7784,5.7601,5.7601,5.7601,5.7504,5.7406,5.7406,5.7307,5.7188,5.7188,5.7188,5.7188,5.7188,5.7188,5.7188,5.7188,5.7188,5.7188,5.7188,5.7188,5.7188,5.7188,5.7188,5.7188,5.7188,5.7188,5.7188,5.7188,5.7188,5.7188,5.7188,5.7188,5.7188,5.7188,5.7188,5.7188,5.7188,5.7188,5.7239,5.7356,5.7388,5.7455,5.7553,5.7601,5.7601,5.7601,5.7455,5.7697,5.846,5.9241,6.0074,6.0923,6.0978,6.0944,6.0895,6.1676,6.2023,6.1933,6.1987,6.2023,6.2023,6.2023,6.2023,6.2023,6.2023,6.2023,5.0302,5.0302,5.0302,5.0302,0.0,0.0,0.0,0.0,0.0,0.0,0.0,0.0,0.0,0.0,0.0,0.0,0.0,0.0,0.0,0.0,0.0,0.0,0.0,0.0,0.0,0.0,0.0,0.0,0.0,0.0,5.5403,5.5403,5.5632,5.6129,5.6434,5.7103,5.8135,5.8635,5.9149,5.9682,5.9233,5.9216,5.9571,5.9323,5.8893,5.84,5.8201,5.7923,5.7601,5.7601,5.7601,5.7504,5.7437,5.7289,5.7188,5.7289,5.7338,5.7338,5.7338,5.7338,5.7289,5.7257,5.7188,5.7188,5.7188,5.7188,5.7188,5.7188,5.7239,5.7307,5.7188,5.7188,5.7188,5.7289,5.7338,5.7356,5.7437,5.7388,5.7338,5.7338,5.7257,5.7188,5.7188,5.7257,5.7338,5.7388,5.7553,5.7649,5.7601,5.7697,5.788,5.8294,5.8737,5.9356,6.0125,6.0555,6.1167,6.1989,6.1518,6.1379,6.1836,6.2146,6.2257,6.2114,6.2096,6.206,6.2023,6.2023,6.2277,6.2748,6.2748,6.3019,5.0348,5.0348,5.0348,5.0325,0.0,0.0,0.0,0.0,0.0,0.0,0.0,0.0,0.0,0.0,0.0,0.0,0.0,0.0,0.0,0.0,0.0,0.0,0.0,0.0,0.0,0.0,0.0,0.0,0.0,0.0,0.0,5.5651,5.6033,5.6568,5.7103,5.7944,5.909,5.9376,5.9816,6.0389,6.0129,5.9988,5.9988,5.9874,5.9378,5.8632,5.8526,5.8157,5.7745,5.7745,5.7697,5.7649,5.7504,5.7406,5.7356,5.7455,5.7437,5.7437,5.7437,5.7437,5.7455,5.7356,5.7356,5.7356,5.7356,5.7356,5.7356,5.7356,5.7388,5.7437,5.7338,5.7356,5.7356,5.7455,5.7437,5.7504,5.7601,5.7553,5.7437,5.7437,5.7406,5.7356,5.7356,5.7388,5.7504,5.7504,5.7697,5.7883,5.8092,5.8176,5.8487,5.9146,5.9949,6.0642,6.1208,6.1583,6.205,6.2618,6.204,6.1934,6.243,6.2449,6.2362,6.2203,6.2203,6.2277,6.2386,6.2386,6.2802,6.3563,6.3563,6.3852,5.0478,5.05,5.0478,0.0,0.0,0.0,0.0,0.0,0.0,0.0,0.0,0.0,0.0,0.0,0.0,0.0,0.0,0.0,0.0,0.0,0.0,0.0,0.0,0.0,0.0,0.0,0.0,0.0,0.0,0.0,0.0,5.6167,5.6606,5.6606,5.823,5.9109,5.9109,5.9969,6.0389,6.0389,6.0389,6.0389,6.0389,5.9988,5.9571,5.9159,5.8772,5.8369,5.7997,5.7997,5.795,5.7792,5.7649,5.7583,5.7583,5.7601,5.7601,5.7601,5.7601,5.7601,5.7601,5.7601,5.7601,5.7601,5.7601,5.7601,5.7601,5.7601,5.7601,5.7601,5.7601,5.7601,5.7601,5.7601,5.7601,5.7601,5.7601,5.7601,5.7601,5.7601,5.7601,5.7601,5.7601,5.7601,5.7649,5.781,5.781,5.815,5.9069,5.9245,5.9491,6.0133,6.0938,6.1414,6.1396,6.2128,6.2654,6.2805,6.2805,6.2755,6.2603,6.2603,6.25,6.2203,6.2203,6.2549,6.32,6.32,6.3617,6.4396,6.4396,6.4414,5.05,0.0,0.0,0.0,0.0,0.0,0.0,0.0,0.0,0.0,0.0,0.0,0.0,0.0,0.0,0.0,0.0,0.0,0.0,0.0,0.0,0.0,0.0,0.0,0.0,0.0,0.0,0.0,0.0,0.0,0.0,5.6473,5.7141,5.8326,5.8842,5.9396,6.0007,6.0255,6.0389,6.0389,6.0389,6.0389,6.0389,6.0285,6.0019,5.9624,5.9502,5.9046,5.8394,5.8394,5.8351,5.8245,5.8508,5.8531,5.8429,5.8208,5.8508,5.8905,5.8022,5.8128,5.8464,5.7832,5.7601,5.7601,5.7601,5.7601,5.7601,5.7601,5.7649,5.7745,5.7745,5.7792,5.7857,5.7745,5.7745,5.7745,5.7839,5.7792,5.7745,5.7745,5.7649,5.7601,5.7601,5.7697,5.7946,5.856,5.8699,5.9087,5.996,6.0548,6.097,6.116,6.1911,6.2407,6.2388,6.2608,6.2755,6.2823,6.2805,6.2755,6.2755,6.2755,6.2878,6.3182,6.3306,6.3547,6.4033,6.422,6.4638,6.5247,6.5343,6.5651,0.0,0.0,0.0,0.0,0.0,0.0,0.0,0.0,0.0,0.0,0.0,0.0,0.0,0.0,0.0,0.0,0.0,0.0,0.0,0.0,0.0,0.0,0.0,0.0,0.0,0.0,0.0,0.0,0.0,0.0,0.0,5.7218,5.8058,5.9071,5.9434,5.9873,6.0389,6.0389,6.0389,6.0389,6.0389,6.0389,6.0389,6.0389,6.0178,5.9791,5.9639,5.927,5.8831,5.8831,5.8812,5.8753,5.8989,5.9008,5.8969,5.8962,5.9078,5.9122,5.8538,5.8443,5.8498,5.7956,5.7745,5.7745,5.7745,5.7745,5.7745,5.7745,5.7792,5.7904,5.7904,5.795,5.7997,5.7904,5.7904,5.7904,5.7997,5.795,5.7904,5.7904,5.8048,5.8238,5.8238,5.8589,5.9022,5.9468,5.9913,6.0346,6.0805,6.1575,6.2089,6.2089,6.2511,6.2805,6.2805,6.2805,6.2805,6.2805,6.3135,6.3319,6.3319,6.3319,6.3438,6.3688,6.4087,6.4547,6.5018,6.5223,6.5642,6.6235,6.6331,6.6528,0.0,0.0,0.0,0.0,0.0,0.0,0.0,0.0,0.0,0.0,0.0,0.0,0.0,0.0,0.0,0.0,0.0,0.0,0.0,0.0,0.0,0.0,0.0,0.0,0.0,0.0,0.0,0.0,0.0,0.0,5.6816,5.8268,5.9147,5.9224,5.9988,6.0389,6.0389,6.0389,6.0389,6.0389,6.0389,6.0389,6.0389,6.0389,6.0207,5.9842,5.9432,5.9233,5.9233,5.9233,5.9233,5.9252,5.9289,5.9363,5.944,5.9763,5.9469,5.8921,5.9181,5.8777,5.8107,5.8015,5.7997,5.7997,5.7997,5.7997,5.7997,5.7997,5.7997,5.7997,5.7997,5.7997,5.7997,5.7997,5.7997,5.7997,5.7997,5.8052,5.8107,5.8107,5.8767,5.9318,5.9318,5.9924,6.0419,6.0511,6.119,6.1704,6.1704,6.2346,6.2805,6.2805,6.2805,6.2805,6.2805,6.2805,6.2842,6.2915,6.3668,6.4127,6.42,6.42,6.4167,6.403,6.4799,6.5513,6.6098,6.6153,6.6537,6.721,6.721,6.7154,0.0,0.0,0.0,0.0,0.0,0.0,0.0,0.0,0.0,0.0,0.0,0.0,0.0,0.0,0.0,0.0,0.0,0.0,0.0,0.0,0.0,0.0,0.0,0.0,0.0,0.0,0.0,0.0,0.0,0.0,5.8498,5.8899,5.9415,6.0102,6.0293,6.0389,6.0389,6.0389,6.0389,0.0,6.0389,6.0389,6.0389,6.0389,6.0342,6.0237,5.9842,5.9692,5.9692,5.9692,5.9692,5.9692,6.0019,6.0529,6.1069,6.0827,6.0885,6.0898,6.0059,5.9364,5.8859,5.8217,5.7997,5.7997,5.7997,5.7997,5.7997,5.7997,5.7997,5.7997,5.7997,5.7997,5.7997,5.7997,5.7997,5.7997,5.7997,5.851,5.8951,5.8951,5.9593,6.0144,6.0144,6.0291,6.0621,6.1245,6.2034,6.2548,6.2548,6.2695,6.2805,6.2805,6.2805,6.2805,6.2805,6.2805,6.3099,6.3778,6.3998,6.4383,6.5026,6.5044,6.5267,6.5695,6.6021,6.6444,6.6937,6.7195,6.7268,6.7192,6.7341,6.7341,0.0,0.0,0.0,0.0,0.0,0.0,0.0,0.0,0.0,0.0,0.0,0.0,0.0,0.0,0.0,0.0,0.0,0.0,0.0,0.0,0.0,0.0,0.0,0.0,0.0,0.0,0.0,0.0,0.0,5.8192,5.9052,5.951,5.9931,6.0389,6.0389,6.0389,6.0389,6.0389,6.0389,6.0389,6.0389,6.0389,6.0389,6.0389,6.0389,6.0389,6.0178,6.0099,6.0099,6.0099,6.0099,6.0099,6.0313,6.0886,6.1602,6.1628,6.1492,6.1261,6.0677,5.9795,5.8829,5.8217,5.7997,5.7997,5.7997,5.7997,5.7997,5.7997,5.7997,5.7997,5.7997,5.829,5.8584,5.8584,5.8584,5.8584,5.8584,5.9226,5.9777,5.9777,6.0419,6.097,6.097,6.13,6.1704,6.2108,6.2548,6.2805,6.2805,6.2805,6.2805,6.2805,6.2805,6.2805,6.2805,6.3191,6.3613,6.4053,6.4806,6.543,6.587,6.6237,6.6404,6.6351,6.6808,6.7211,6.7433,6.7615,6.7633,6.7433,6.7524,6.7524,0.0,0.0,0.0,0.0,0.0,0.0,0.0,0.0,0.0,0.0,0.0,0.0,0.0,0.0,0.0,0.0,0.0,0.0,0.0,0.0,0.0,0.0,0.0,0.0,0.0,0.0,0.0,0.0,0.0,5.9185,5.9319,6.0007,6.0389,6.0389,6.0389,6.0389,6.0389,6.0389,6.0389,6.0389,6.0389,6.0389,6.0389,6.0389,6.0389,6.0389,6.0389,6.0389,6.0389,6.0389,6.0389,6.0408,6.0542,6.1115,6.1889,6.2433,6.2056,6.1239,6.1293,6.017,5.8628,5.8213,5.8115,5.8115,5.8042,5.7997,5.7997,5.7997,5.7997,5.8033,5.8162,5.8712,5.9263,5.9391,5.952,5.9593,5.9446,6.0052,6.0621,6.0621,6.1263,6.1814,6.1814,6.2365,6.2805,6.2805,6.2805,6.2805,6.2805,6.2805,6.2805,6.2805,6.2934,6.3025,6.3025,6.3815,6.4365,6.4494,6.576,6.6549,6.6696,6.7338,6.7375,6.6714,6.7357,6.7687,6.7687,6.7687,6.7687,6.7687,6.7687,6.7633,0.0,0.0,0.0,0.0,0.0,0.0,0.0,0.0,0.0,0.0,0.0,0.0,0.0,0.0,0.0,0.0,0.0,0.0,0.0,0.0,0.0,0.0,0.0,0.0,0.0,0.0,0.0,0.0,5.8574,5.9434,6.0179,6.0332,6.0389,6.0389,6.0389,6.0389,6.0389,6.0389,6.0389,6.0389,6.0389,6.0389,6.0389,6.0389,6.0389,6.0389,6.0389,6.0389,6.0389,6.0389,6.0389,6.0465,6.1172,6.1975,6.2834,6.3645,6.3194,6.2122,6.2148,6.0808,5.9046,5.8669,5.8521,5.8437,5.8115,5.7997,5.7997,5.7997,5.7997,5.8162,5.8877,5.9134,5.9391,6.007,6.0768,6.108,6.0401,6.0878,6.1429,6.1429,6.2089,6.2658,6.2658,6.275,6.2805,6.2805,6.2805,6.2805,6.2805,6.2805,6.2805,6.2805,6.3484,6.3925,6.3925,6.4677,6.5448,6.6145,6.6384,6.6806,6.7504,6.7632,6.7632,6.7522,6.7632,6.7687,6.7687,6.7687,6.7687,6.7687,6.7687,6.7687,0.0,0.0,0.0,0.0,0.0,0.0,0.0,0.0,0.0,0.0,0.0,0.0,0.0,0.0,0.0,0.0,0.0,0.0,0.0,0.0,0.0,0.0,0.0,0.0,0.0,0.0,0.0,0.0,5.9357,5.9988,6.037,6.0389,6.0389,6.0389,6.0389,6.0389,6.0389,6.0389,6.0389,6.0389,6.0389,6.0389,6.0389,6.0389,6.0389,6.0389,6.0389,6.0389,6.0389,6.0389,6.0656,6.1115,6.1459,6.2433,6.3618,6.3503,6.3108,6.2516,6.1842,6.0519,5.9122,5.875,5.8437,5.8213,5.807,5.7997,5.8088,5.8547,5.8887,5.9187,5.9714,6.0369,6.0978,6.1036,6.1686,6.2181,6.1832,6.2034,6.2273,6.2273,6.2567,6.2805,6.2805,6.2805,6.2805,6.2805,6.2805,6.2805,6.2805,6.3227,6.3521,6.3521,6.4273,6.4769,6.4769,6.5503,6.6127,6.6476,6.6916,6.732,6.7687,6.7687,6.7687,6.7687,6.7687,6.7687,6.7687,6.7687,6.7687,6.7687,6.7687,6.7687,0.0,0.0,0.0,0.0,0.0,0.0,0.0,0.0,0.0,0.0,0.0,0.0,0.0,0.0,0.0,0.0,0.0,0.0,0.0,0.0,0.0,0.0,0.0,0.0,0.0,0.0,0.0,0.0,5.9911,6.0389,6.0389,6.0389,6.0389,6.0389,6.0389,6.0389,6.0389,6.0389,6.0389,6.0389,6.0389,6.0389,6.0389,6.0389,6.0389,6.0389,6.0389,6.0389,6.0408,6.0618,6.1058,6.165,6.2089,6.3064,6.4114,6.3465,6.3102,6.2748,6.1571,6.044,5.9432,5.893,5.8563,5.8257,5.807,5.8217,5.8584,5.921,5.9826,6.046,6.0785,6.1587,6.225,6.1997,6.2365,6.2805,6.2805,6.2805,6.2805,6.2805,6.2805,6.2805,6.2805,6.2805,6.2897,6.3099,6.3135,6.3209,6.3429,6.3998,6.4402,6.4402,6.5118,6.5613,6.5613,6.6347,6.6788,6.6788,6.7357,6.7687,6.7687,6.7687,6.7687,6.7687,6.7687,6.7687,6.7687,6.7687,6.7687,6.7687,6.7687,6.7687,0.0,0.0,0.0,0.0,0.0,0.0,0.0,0.0,0.0,0.0,0.0,0.0,0.0,0.0,0.0,0.0,0.0,0.0,0.0,0.0,0.0,0.0,0.0,0.0,0.0,0.0,0.0,0.0,5.9947,6.0389,6.0389,6.0389,6.0389,6.0389,6.0389,6.0389,6.0389,6.0389,6.0389,6.0389,6.0389,6.0389,6.0389,6.0389,6.0389,6.0389,6.0389,6.0389,6.0446,6.1211,6.1554,6.1765,6.3408,6.4114,6.4172,6.4133,6.3599,6.2777,6.1869,6.1029,6.0207,5.9413,5.9159,5.8988,5.8231,5.8855,5.9794,5.9831,6.0703,6.1709,6.2092,6.2264,6.2353,6.2647,6.2787,6.2805,6.2805,6.2805,6.2805,6.2805,6.2805,6.2805,6.2805,6.2805,6.3099,6.3906,6.4016,6.431,6.5081,6.5228,6.5246,6.5246,6.5962,6.6439,6.6439,6.7173,6.7632,6.7632,6.7669,6.7687,6.7687,6.7687,6.7687,6.7687,6.7687,6.7687,6.7687,6.7687,6.7687,6.7687,6.7687,6.7687,0.0,0.0,0.0,0.0,0.0,0.0,0.0,0.0,0.0,0.0,0.0,0.0,0.0,0.0,0.0,0.0,0.0,0.0,0.0,0.0,0.0,0.0,0.0,0.0,0.0,0.0,0.0,0.0,0.0,6.0525,6.0525,6.0499,6.0472,6.0472,6.0417,6.0389,6.0389,6.0389,6.0389,6.0389,6.0389,6.0389,6.0389,6.0389,6.0389,6.0389,6.0389,6.0389,6.0446,6.1268,6.1936,6.2548,6.3732,6.4516,6.484,6.3751,6.3178,6.2701,6.1306,6.0484,5.9988,5.9692,5.9432,5.9234,5.9505,5.9918,6.0486,6.1515,6.2334,6.2937,6.3041,6.3246,6.3345,6.291,6.2805,6.2805,6.2805,6.2805,6.2805,6.2805,6.2805,6.2989,6.3539,6.3631,6.3925,6.4751,6.4879,6.4971,6.5264,6.576,6.6072,6.6072,6.6788,6.7265,6.7265,6.7522,6.7687,6.7687,6.7687,6.7687,6.7687,6.7687,6.7687,6.7687,6.7687,6.7687,6.7687,6.7687,6.7687,6.7687,6.7687,6.7687,0.0,0.0,0.0,0.0,0.0,0.0,0.0,0.0,0.0,0.0,0.0,0.0,0.0,0.0,0.0,0.0,0.0,0.0,0.0,0.0,0.0,0.0,0.0,0.0,0.0,0.0,0.0,0.0,0.0,0.0,6.0604,6.0552,6.0525,6.0499,6.0444,6.0389,6.0389,6.0389,6.0389,6.0389,6.0389,6.0389,6.0389,6.0389,6.0389,6.0408,6.0676,6.079,6.0867,6.1707,6.2548,6.3427,6.4267,6.4917,6.5203,6.3522,6.2911,6.2662,6.0981,6.0237,5.9988,5.9842,5.9794,5.9905,6.036,6.0998,6.1768,6.2824,6.3643,6.4162,6.3984,6.393,6.3803,6.3335,6.3014,6.2855,6.2984,6.2886,6.2897,6.3191,6.3246,6.3521,6.4365,6.4494,6.4769,6.5595,6.5705,6.5815,6.6072,6.6568,6.6898,6.6898,6.7375,6.7687,6.7687,6.7687,6.7687,6.7687,6.7687,6.7687,6.7687,6.7687,6.7687,6.7687,6.7687,6.7687,6.7687,6.7687,6.7687,6.7687,6.7687,6.7687,0.0,0.0,0.0,0.0,0.0,0.0,0.0,0.0,0.0,0.0,0.0,0.0,0.0,0.0,0.0,0.0,0.0,0.0,0.0,0.0,0.0,0.0,0.0,0.0,0.0,0.0,0.0,0.0,6.0655,6.0604,6.0604,6.0604,6.0578,6.0499,6.0444,6.0389,6.0417,6.0389,6.0389,6.0417,6.0417,6.0389,6.0389,6.0389,6.0408,6.0465,6.1268,6.1631,6.1745,6.2586,6.3446,6.4267,6.5089,6.5394,6.5203,6.3522,6.2911,6.2662,6.0981,6.0389,6.0361,5.9975,6.0392,6.097,6.0696,6.201,6.363,6.3634,6.4508,6.5314,6.4898,6.4174,6.3605,6.3994,6.3453,6.2984,6.3437,6.3194,6.3099,6.3925,6.4108,6.4383,6.5209,6.5356,6.5613,6.6402,6.6531,6.6824,6.7595,6.7687,6.7687,6.7687,6.7687,6.7687,6.7687,6.7687,6.7687,6.7687,6.7687,6.7687,6.7687,6.7687,6.7687,6.7687,6.7687,6.7687,6.7687,6.7687,6.7687,6.7687,6.7687,6.7687,5.1871,0.0,0.0,0.0,0.0,0.0,5.5381,5.5615,5.5703,0.0,0.0,0.0,0.0,0.0,0.0,0.0,0.0,0.0,0.0,0.0,0.0,0.0,0.0,0.0,0.0,0.0,0.0,0.0,6.0753,6.0734,6.0734,6.0704,6.0635,6.0578,6.0499,6.0499,6.0552,6.0499,6.0499,6.0552,6.0552,6.0525,6.0472,6.0472,6.077,6.1287,6.1497,6.2319,6.3503,6.3732,6.3981,6.4267,6.5089,6.5394,6.5203,6.3522,6.2911,6.2662,6.0981,6.0389,6.0485,6.0952,6.1266,6.1656,6.2833,6.3588,6.4165,6.4737,6.5142,6.5314,6.4898,6.4369,6.3952,6.4056,6.3911,6.3885,6.4297,6.4262,6.4166,6.4136,6.4567,6.5228,6.6035,6.6164,6.6439,6.7247,6.7357,6.7448,6.765,6.7687,6.7687,6.7687,6.7687,6.7687,6.7687,6.7687,6.7687,6.7687,6.7687,6.7687,6.7687,6.7687,6.7687,6.7687,6.7687,6.7687,6.7687,6.7687,6.7687,6.7687,6.7687,6.7687,0.0,0.0,0.0,0.0,0.0,0.0,5.5816,5.5845,5.5768,0.0,0.0,0.0,0.0,0.0,0.0,0.0,0.0,0.0,0.0,0.0,0.0,0.0,0.0,0.0,0.0,6.0492,6.08,6.08,6.08,6.08,6.08,6.0753,6.0685,6.0635,6.0578,6.0552,6.0604,6.0552,6.0552,6.0604,6.0604,6.0552,6.0499,6.0843,6.1209,6.165,6.2376,6.3255,6.4229,6.4554,6.4688,6.4745,6.5222,6.5184,6.4745,6.3388,6.2682,6.2166,6.0848,6.0618,6.0981,6.1459,6.2089,6.2873,6.3885,6.442,6.4802,6.5261,6.5394,6.5364,6.5085,6.472,6.4445,6.4593,6.4614,6.4691,6.4924,6.5374,6.5634,6.5165,6.5485,6.6054,6.6861,6.699,6.7155,6.7614,6.7687,6.7687,6.7687,6.7687,6.7687,6.7687,6.7687,6.7687,6.7687,6.7687,6.7687,6.7687,6.7687,6.7687,6.7687,6.7687,6.7687,6.7687,6.7687,6.7687,6.7687,6.7687,6.7687,6.7687,6.7687,6.7687,0.0,0.0,0.0,0.0,0.0,0.0,5.5978,5.5932,5.59,5.5767,0.0,0.0,0.0,0.0,0.0,0.0,0.0,0.0,0.0,0.0,0.0,0.0,0.0,0.0,6.0723,6.08,6.08,6.08,6.08,6.08,6.08,6.0734,6.071,6.071,6.0655,6.0604,6.0629,6.0629,6.0629,6.0629,6.0629,6.0616,6.0679,6.1379,6.1792,6.1975,6.3522,6.4229,6.4412,6.5108,6.5394,6.5394,6.5394,6.4898,6.4076,6.3216,6.2357,6.1497,6.0771,6.1,6.1631,6.1822,6.293,6.421,6.4305,6.4821,6.5394,6.5394,6.5394,6.5394,6.5394,6.5117,6.497,6.5448,6.553,6.5551,6.5642,6.6544,6.7253,6.6879,6.6709,6.6861,6.7665,6.7722,6.7687,6.7687,6.7687,6.7687,6.7687,6.7687,6.7687,6.7687,6.7687,6.7687,6.7687,6.7687,6.7687,6.7687,6.7687,6.7687,6.7687,6.7687,6.7687,6.7687,6.7687,6.7687,6.7687,6.7687,6.7687,6.7687,6.7687,6.7687,0.0,0.0,0.0,0.0,0.0,0.0,5.6306,5.6232,5.6137,0.0,0.0,0.0,0.0,0.0,0.0,0.0,0.0,0.0,0.0,0.0,0.0,0.0,0.0,0.0,6.0723,6.08,6.08,6.08,6.08,6.08,6.08,6.08,6.0777,6.0777,6.0729,6.0704,6.0753,6.0729,6.0729,6.0777,6.0777,6.105,6.1536,6.1709,6.2498,6.3694,6.4038,6.4613,6.5235,6.5367,6.5394,6.5394,6.5394,6.4898,6.4076,6.3216,6.2357,6.1573,6.1421,6.1478,6.1822,6.3236,6.3904,6.4305,6.4974,6.528,6.5394,6.5394,6.5394,6.5394,6.5394,6.5364,6.5474,6.6242,6.6466,6.6707,6.7675,6.8072,6.8329,6.8559,6.7975,6.7645,6.8198,6.7948,6.7687,6.7687,6.7687,6.7687,6.7687,6.7687,6.7687,6.7687,6.7687,6.7687,6.7687,6.7687,6.7687,6.7687,6.7687,6.7687,6.7687,6.7687,6.7687,6.7687,6.7687,6.7687,6.7687,6.7687,6.7687,6.7687,6.7687,6.7687,0.0,0.0,0.0,5.6489,0.0,0.0,0.0,5.6359,5.6281,5.6207,0.0,0.0,0.0,0.0,0.0,0.0,0.0,0.0,0.0,0.0,0.0,0.0,0.0,0.0,6.0762,6.08,6.08,6.08,6.08,6.08,6.08,6.08,6.08,6.08,6.0777,6.0777,6.08,6.0777,6.0777,6.08,6.1243,6.1598,6.1921,6.2765,6.3576,6.4307,6.4709,6.5159,6.5552,6.5494,6.5484,6.5454,6.5425,6.4649,6.3503,6.3064,6.2357,6.1593,6.1593,6.2166,6.3045,6.3904,6.4458,6.4859,6.528,6.5394,6.5394,6.5394,6.5394,6.5394,6.5394,6.5719,6.6159,6.6598,6.7343,6.8049,6.8411,6.8849,6.919,6.941,6.887,6.8394,6.8394,6.8216,6.7948,6.7741,6.7687,6.7687,6.7687,6.7687,6.7687,6.7687,6.7687,6.7687,6.7687,6.7687,6.7687,6.7687,6.7687,6.7687,6.7687,6.7687,6.7687,6.7687,6.7687,6.7687,6.7687,6.7687,6.7687,6.7687,6.7687,6.7687,0.0,0.0,0.0,0.0,0.0,5.6571,0.0,0.0,0.0,0.0,0.0,0.0,0.0,0.0,0.0,0.0,0.0,0.0,0.0,0.0,0.0,0.0,0.0,0.0,6.08,6.08,6.08,6.08,6.08,6.08,6.08,6.08,6.08,6.08,6.08,6.08,6.08,6.08,6.0877,6.105,6.1762,6.2238,6.2529,6.3892,6.4531,6.4668,6.532,6.5608,6.5627,6.5608,6.558,6.5542,6.5454,6.4382,6.293,6.3102,6.249,6.165,6.1975,6.3006,6.4229,6.4382,6.4859,6.5394,6.5394,6.5394,6.5394,6.5394,6.5394,6.5433,6.5605,6.6178,6.6789,6.7095,6.8222,6.915,6.8918,6.9416,6.9909,6.9909,6.9604,6.9176,6.8614,6.849,6.8266,6.7776,6.7687,6.7687,6.7687,6.7687,6.7687,6.7687,6.7687,6.7687,6.7687,6.7687,6.7687,6.7687,6.7687,6.7687,6.7687,6.7687,6.7687,6.7687,6.7687,6.7687,6.7687,6.7687,6.7687,6.7687,6.7687,6.7687,0.0,0.0,0.0,0.0,5.6606,0.0,0.0,0.0,5.6562,5.6559,0.0,0.0,0.0,0.0,0.0,0.0,0.0,0.0,5.7076,5.8399,5.9396,5.9492,6.0262,6.08,6.08,6.08,6.08,6.08,6.08,6.08,6.08,6.08,6.08,6.08,6.08,6.08,6.08,6.08,6.1185,6.1935,6.205,6.2853,6.4219,6.4411,6.4838,6.5474,6.5569,6.5674,6.5767,6.5655,6.5674,6.5767,6.5571,6.4422,6.2987,6.377,6.3006,6.1822,6.3369,6.4019,6.4305,6.5031,6.5337,6.5394,6.5394,6.5394,6.5394,6.5394,6.5394,6.5585,6.635,6.6636,6.7076,6.8566,6.9062,6.9387,7.0028,7.0257,7.0334,7.0334,7.0281,6.9999,6.9176,6.8661,6.8266,6.7776,6.7687,6.7687,6.7687,6.7687,6.7687,6.7687,6.7687,6.7687,6.7687,6.7687,6.7687,6.7687,6.7687,6.7687,6.7687,6.7687,6.7687,6.7687,6.7687,6.7687,6.7687,6.7687,6.7687,6.7687,6.7687,6.7687,0.0,0.0,0.0,0.0,0.0,0.0,5.6593,0.0,5.6601,0.0,0.0,0.0,0.0,0.0,0.0,0.0,5.7563,0.0,0.0,0.0,5.973,0.0,0.0,0.0,6.08,6.08,6.08,0.0,6.08,6.08,6.08,6.08,6.08,6.08,6.08,6.08,6.08,6.13,6.1723,6.2108,6.3089,6.3891,6.4578,6.5077,6.5481,6.5781,6.5781,6.5801,6.5846,6.5801,6.5774,6.5755,6.5137,6.4421,6.3695,6.3532,6.3293,6.3197,6.3942,6.4526,6.5025,6.534,6.5425,6.5394,6.5394,6.5394,6.5394,6.5394,6.5757,6.6235,6.6617,6.7419,6.8336,6.9024,6.9559,6.9999,7.0342,7.04,7.04,7.04,7.04,7.0213,6.9604,6.9363,6.9047,6.8567,6.8266,6.8084,6.8084,6.7863,6.7687,6.7687,6.7687,6.7687,6.7687,6.7687,6.7687,6.7687,6.7687,6.7687,6.7687,6.7687,6.7687,6.7687,6.7687,6.7687,6.7687,6.7687,6.7687,6.7687,6.7687,6.7687,5.6383,0.0,0.0,0.0,0.0,0.0,0.0,0.0,0.0,0.0,0.0,0.0,0.0,0.0,5.8133,5.8414,0.0,5.9032,0.0,5.968,0.0,0.0,0.0,0.0,0.0,6.08,6.08,6.08,0.0,6.08,6.08,6.08,6.08,6.08,6.08,6.0916,6.1146,6.1781,6.232,6.2801,6.4012,6.4724,6.4974,6.5609,6.5897,6.5897,6.5897,6.5897,6.5897,6.5897,6.5737,6.5416,6.4737,6.4427,6.4287,6.3542,6.3714,6.4269,6.4498,6.4987,6.5523,6.5523,6.5465,6.5425,6.5425,6.5425,6.5394,6.5394,6.6025,6.6751,6.698,6.8107,6.9253,6.9483,6.9979,7.04,7.04,7.04,7.04,7.04,7.04,7.03,7.0019,6.9872,6.9623,6.9176,6.8825,6.8614,6.8614,6.8297,6.8033,6.7915,6.7915,6.781,6.7741,6.7687,6.7687,6.7687,6.7687,6.7687,6.7687,6.7687,6.7687,6.7687,6.7687,6.7687,6.7687,6.7687,6.7687,6.7687,6.7687,6.7687,0.0,0.0,0.0,5.6391,0.0,0.0,0.0,0.0,5.6601,0.0,0.0,0.0,0.0,5.8437,5.8585,5.7778,5.8828,0.0,0.0,0.0,0.0,0.0,0.0,0.0,0.0,6.08,6.08,0.0,6.08,6.08,6.08,6.08,6.08,6.08,6.08,6.1204,6.205,6.2089,6.2897,6.4512,6.457,6.5032,6.5859,6.5878,6.5897,6.5897,6.5897,6.5897,6.5897,6.5897,6.5397,6.4647,6.4533,6.4507,6.4481,6.4326,6.4298,6.4515,6.5217,6.5532,6.5608,6.5608,6.5552,6.5494,6.5494,6.5454,6.5394,6.5394,6.6025,6.6885,6.7649,6.8527,6.9406,7.019,7.0381,7.04,7.04,7.04,7.04,7.04,7.04,7.0419,7.0367,7.0073,6.9623,6.9176,6.9091,6.9091,6.9091,6.9047,6.887,6.8442,6.8394,6.8166,6.7741,6.7687,6.7687,6.7687,6.7687,6.7687,6.7687,6.7687,6.7687,6.7687,6.7687,6.7687,6.7687,6.7687,6.7687,6.7687,6.7687,6.7687,0.0,0.0,5.6131,5.6348,0.0,0.0,0.0,0.0,0.0,0.0,0.0,0.0,0.0,5.9746,5.9979,6.0215,6.0668,6.0848,0.0,0.0,0.0,0.0,0.0,0.0,0.0,0.0,0.0,0.0,6.08,0.0,6.08,6.08,6.08,6.08,6.1358,6.18,6.2089,6.3205,6.4032,6.4609,6.5186,6.5609,6.5897,6.5897,6.5897,6.5897,6.5897,6.5897,6.5897,6.5897,6.5724,6.5397,6.4795,6.493,6.5346,6.4638,6.4717,6.5244,6.5578,6.5674,6.5608,6.5701,6.5674,6.5552,6.5552,6.5552,6.5657,6.6173,6.6908,6.7749,6.8559,6.9368,7.0075,7.0342,7.04,7.04,7.04,7.04,7.04,7.04,7.04,7.04,7.04,7.03,7.0125,6.9999,6.9721,6.9565,6.9565,6.928,6.9047,6.887,6.8567,6.8346,6.8185,6.7863,6.7687,6.7687,6.7687,6.7687,6.7687,6.7687,6.7687,6.7687,6.7687,6.7687,6.7687,6.7687,6.7687,6.7687,6.7687,6.7687,5.5927,5.5935,0.0,5.6193,5.629,0.0,5.6522,0.0,0.0,0.0,0.0,0.0,0.0,6.0644,6.1023,6.1518,6.1608,6.152,0.0,6.1176,0.0,0.0,0.0,0.0,0.0,0.0,0.0,6.08,6.08,6.08,0.0,6.08,6.0935,6.1243,6.18,6.2377,6.2974,6.4051,6.4762,6.507,6.5628,6.5897,6.5897,6.5897,6.5897,6.5897,6.5897,6.5897,6.5897,6.5897,6.5724,6.5416,6.5166,6.5224,6.5378,6.4672,6.4945,6.5701,6.5793,6.5774,6.5728,6.582,6.5774,6.5674,6.5674,6.5866,6.6155,6.6701,6.7629,6.8564,6.9107,6.9821,7.04,7.04,7.04,7.04,7.04,7.04,7.04,7.04,7.04,7.04,7.04,7.04,7.04,7.04,7.0179,7.0019,7.0019,6.9759,6.9506,6.9363,6.8915,6.852,6.8166,6.8051,6.7863,6.7741,6.7687,6.7687,6.7687,6.7687,6.7687,6.7687,6.7687,6.7687,6.7687,6.7981,6.8128,6.8128,6.8421,6.8531]},{"header":{"parameterUnit":"m.s-1","parameterCategory":1,"la1":30.6,"la2":29.2853,"lo1":-89.7004,"lo2":-87.6739,"dy":0.0162,"dx":0.0183,"nx":112,"ny":82,"refTime":"2024-02-08T18:00:00:Z","depth":0,"parameterNumber":3,"parameterNumberName":"V-component_of_WINDS"},"data":[0.0,0.0,0.0,0.0,0.0,0.0,0.0,0.0,0.0,0.0,0.0,0.0,0.0,0.0,0.0,0.0,0.0,0.0,0.0,0.0,0.0,0.0,0.0,0.0,0.0,0.0,0.0,0.0,0.0,0.0,0.0,0.0,0.0,0.0,0.0,0.0,0.0,0.0,0.0,0.0,0.0,0.0,0.0,0.0,0.0,0.0,0.0,0.0,0.0,0.0,0.0,0.0,0.0,0.0,0.0,0.0,0.0,0.0,0.0,0.0,0.0,0.0,0.0,0.0,0.0,0.0,0.0,0.0,0.0,0.0,0.0,0.0,0.0,0.0,0.0,0.0,0.0,0.0,0.0,0.0,0.0,0.0,0.0,0.0,0.0,0.0,0.0,0.0,0.0,0.0,-2.1211,-2.1211,-2.1211,-2.1211,-2.1211,-2.1211,-2.1211,-2.1211,0.0,0.0,0.0,0.0,0.0,0.0,0.0,0.0,0.0,0.0,0.0,0.0,0.0,0.0,0.0,0.0,0.0,0.0,0.0,0.0,0.0,0.0,0.0,0.0,0.0,0.0,0.0,0.0,0.0,0.0,0.0,0.0,0.0,0.0,0.0,0.0,0.0,0.0,0.0,0.0,0.0,0.0,0.0,0.0,0.0,0.0,0.0,0.0,0.0,0.0,0.0,0.0,0.0,0.0,0.0,0.0,0.0,0.0,0.0,0.0,0.0,0.0,0.0,0.0,0.0,0.0,0.0,0.0,0.0,0.0,0.0,0.0,0.0,0.0,0.0,0.0,0.0,0.0,0.0,0.0,0.0,0.0,0.0,0.0,0.0,0.0,0.0,0.0,0.0,0.0,0.0,0.0,0.0,0.0,0.0,0.0,0.0,0.0,0.0,0.0,0.0,0.0,0.0,0.0,-2.1211,-2.1211,-2.1211,-2.1211,-2.1211,-2.1211,-2.1211,-2.1211,0.0,0.0,0.0,0.0,0.0,0.0,0.0,0.0,0.0,0.0,0.0,0.0,0.0,0.0,0.0,0.0,0.0,0.0,0.0,0.0,0.0,0.0,0.0,0.0,0.0,0.0,0.0,0.0,0.0,0.0,0.0,0.0,0.0,0.0,0.0,0.0,0.0,0.0,0.0,0.0,0.0,0.0,0.0,0.0,0.0,0.0,0.0,0.0,0.0,0.0,0.0,0.0,0.0,0.0,0.0,0.0,0.0,0.0,0.0,0.0,0.0,0.0,0.0,0.0,0.0,0.0,0.0,0.0,0.0,0.0,0.0,0.0,0.0,0.0,0.0,0.0,0.0,0.0,0.0,0.0,0.0,0.0,0.0,0.0,0.0,0.0,0.0,0.0,0.0,0.0,0.0,0.0,0.0,0.0,0.0,0.0,0.0,0.0,0.0,0.0,0.0,0.0,0.0,-2.1211,-2.1211,-2.1211,-2.1211,-2.1211,-2.1211,-2.1211,-2.1211,-2.1211,-2.2312,0.0,0.0,0.0,0.0,0.0,0.0,0.0,0.0,0.0,0.0,0.0,0.0,0.0,0.0,0.0,0.0,0.0,0.0,0.0,0.0,0.0,0.0,0.0,0.0,0.0,0.0,0.0,0.0,0.0,0.0,0.0,0.0,0.0,0.0,0.0,0.0,0.0,0.0,0.0,0.0,0.0,0.0,0.0,0.0,0.0,0.0,0.0,0.0,0.0,0.0,0.0,0.0,0.0,0.0,0.0,0.0,0.0,0.0,0.0,0.0,0.0,0.0,0.0,0.0,0.0,0.0,0.0,0.0,0.0,0.0,0.0,0.0,0.0,0.0,0.0,0.0,0.0,0.0,0.0,0.0,0.0,0.0,0.0,0.0,0.0,0.0,0.0,0.0,0.0,0.0,0.0,0.0,0.0,0.0,0.0,0.0,0.0,0.0,0.0,0.0,0.0,0.0,-2.1211,-2.1211,-2.1211,-2.1211,-2.1211,-2.1211,-2.1211,-2.1211,-2.1211,-2.2312,0.0,0.0,0.0,0.0,0.0,0.0,0.0,0.0,0.0,0.0,0.0,0.0,0.0,0.0,0.0,0.0,0.0,0.0,0.0,0.0,0.0,0.0,0.0,0.0,0.0,0.0,0.0,0.0,0.0,0.0,0.0,0.0,0.0,0.0,0.0,0.0,0.0,0.0,0.0,0.0,0.0,0.0,0.0,0.0,0.0,0.0,0.0,0.0,0.0,0.0,0.0,0.0,0.0,0.0,0.0,0.0,0.0,0.0,0.0,0.0,0.0,0.0,0.0,0.0,0.0,0.0,0.0,0.0,0.0,0.0,0.0,0.0,0.0,0.0,0.0,0.0,0.0,0.0,0.0,0.0,0.0,0.0,0.0,0.0,0.0,0.0,0.0,0.0,0.0,0.0,0.0,0.0,0.0,0.0,0.0,0.0,0.0,0.0,0.0,0.0,0.0,0.0,-2.1211,-2.1211,-2.1211,-2.1211,-2.1211,-2.1211,-2.1211,-2.1211,-2.1211,-2.2312,0.0,0.0,0.0,0.0,0.0,0.0,0.0,0.0,0.0,0.0,0.0,0.0,0.0,0.0,0.0,0.0,0.0,0.0,0.0,0.0,0.0,0.0,0.0,0.0,0.0,0.0,0.0,0.0,0.0,0.0,0.0,0.0,0.0,0.0,0.0,0.0,0.0,0.0,0.0,0.0,0.0,0.0,0.0,0.0,0.0,0.0,0.0,0.0,0.0,0.0,0.0,0.0,0.0,0.0,0.0,0.0,0.0,0.0,0.0,0.0,0.0,0.0,0.0,0.0,0.0,0.0,0.0,0.0,0.0,0.0,0.0,0.0,0.0,0.0,0.0,0.0,0.0,0.0,0.0,0.0,0.0,0.0,0.0,0.0,0.0,0.0,0.0,0.0,0.0,0.0,0.0,0.0,0.0,0.0,0.0,0.0,0.0,0.0,0.0,0.0,0.0,0.0,-2.1211,-2.1211,0.0,-2.1211,-2.1211,-2.1211,-2.1211,-2.1211,-2.1211,0.0,0.0,0.0,0.0,0.0,0.0,0.0,0.0,0.0,0.0,0.0,0.0,0.0,0.0,0.0,0.0,0.0,0.0,0.0,0.0,0.0,0.0,0.0,0.0,0.0,0.0,0.0,0.0,0.0,0.0,0.0,0.0,0.0,0.0,0.0,0.0,0.0,0.0,0.0,0.0,0.0,0.0,0.0,0.0,0.0,0.0,0.0,0.0,0.0,0.0,0.0,0.0,0.0,0.0,0.0,0.0,0.0,0.0,0.0,0.0,0.0,0.0,0.0,0.0,0.0,0.0,0.0,0.0,0.0,0.0,0.0,0.0,0.0,0.0,0.0,0.0,0.0,0.0,0.0,0.0,0.0,0.0,0.0,0.0,0.0,0.0,0.0,0.0,0.0,0.0,0.0,0.0,0.0,0.0,0.0,0.0,0.0,0.0,0.0,0.0,0.0,0.0,-2.1211,-2.1211,-2.1211,0.0,-2.1211,-2.1247,-2.1357,-2.1364,-2.1408,-2.1511,0.0,0.0,0.0,0.0,0.0,0.0,0.0,0.0,0.0,0.0,0.0,0.0,0.0,0.0,0.0,0.0,0.0,0.0,0.0,0.0,0.0,0.0,0.0,0.0,0.0,0.0,0.0,0.0,0.0,0.0,0.0,0.0,0.0,0.0,0.0,0.0,0.0,0.0,0.0,0.0,0.0,0.0,0.0,0.0,0.0,0.0,0.0,0.0,0.0,0.0,0.0,0.0,0.0,0.0,0.0,0.0,0.0,0.0,0.0,0.0,0.0,0.0,0.0,0.0,0.0,0.0,0.0,0.0,0.0,0.0,0.0,0.0,0.0,0.0,0.0,0.0,0.0,0.0,0.0,0.0,0.0,0.0,0.0,0.0,0.0,0.0,0.0,0.0,0.0,0.0,0.0,0.0,0.0,0.0,0.0,0.0,0.0,0.0,0.0,0.0,0.0,0.0,-2.1211,-2.1211,-2.1211,-2.1211,-2.1211,-2.135,-2.1672,-2.1701,-2.184,0.0,0.0,0.0,0.0,0.0,0.0,0.0,0.0,0.0,0.0,0.0,0.0,0.0,0.0,0.0,0.0,0.0,0.0,0.0,0.0,0.0,0.0,0.0,0.0,0.0,0.0,0.0,0.0,0.0,0.0,0.0,0.0,0.0,0.0,0.0,0.0,0.0,0.0,0.0,0.0,0.0,0.0,0.0,0.0,0.0,0.0,0.0,0.0,0.0,0.0,0.0,0.0,0.0,0.0,0.0,0.0,0.0,0.0,0.0,0.0,0.0,0.0,0.0,0.0,0.0,0.0,0.0,0.0,0.0,0.0,0.0,0.0,0.0,0.0,0.0,0.0,0.0,0.0,0.0,0.0,0.0,0.0,0.0,0.0,0.0,0.0,0.0,0.0,0.0,0.0,0.0,0.0,0.0,0.0,0.0,0.0,0.0,0.0,0.0,0.0,0.0,0.0,0.0,-2.1211,-2.1211,-2.1211,-2.1211,-2.1415,-2.1591,-2.1686,-2.1906,-2.2081,-2.2176,0.0,0.0,0.0,0.0,0.0,0.0,0.0,0.0,0.0,0.0,0.0,0.0,0.0,0.0,0.0,0.0,0.0,0.0,0.0,0.0,0.0,0.0,0.0,0.0,0.0,0.0,0.0,0.0,0.0,0.0,0.0,0.0,0.0,0.0,0.0,0.0,0.0,0.0,0.0,0.0,0.0,0.0,0.0,0.0,0.0,0.0,0.0,0.0,0.0,0.0,0.0,0.0,0.0,0.0,0.0,0.0,0.0,0.0,0.0,0.0,0.0,0.0,0.0,0.0,0.0,0.0,0.0,0.0,0.0,0.0,0.0,0.0,0.0,0.0,0.0,0.0,0.0,0.0,0.0,0.0,0.0,0.0,0.0,0.0,0.0,0.0,0.0,0.0,0.0,0.0,0.0,0.0,0.0,0.0,0.0,0.0,0.0,0.0,0.0,0.0,0.0,0.0,-2.1211,-2.1211,-2.1262,-2.1386,-2.1576,-2.2031,-2.2749,-2.3073,-2.348,-2.4092,0.0,0.0,0.0,0.0,0.0,0.0,0.0,0.0,0.0,0.0,0.0,0.0,0.0,0.0,0.0,0.0,0.0,0.0,0.0,0.0,0.0,0.0,0.0,0.0,0.0,0.0,0.0,0.0,0.0,0.0,0.0,0.0,0.0,0.0,0.0,0.0,0.0,0.0,0.0,0.0,0.0,0.0,0.0,0.0,0.0,0.0,0.0,0.0,0.0,0.0,0.0,0.0,0.0,0.0,0.0,0.0,0.0,0.0,0.0,0.0,0.0,0.0,0.0,0.0,0.0,0.0,0.0,0.0,0.0,0.0,0.0,0.0,0.0,0.0,0.0,0.0,0.0,0.0,0.0,0.0,0.0,0.0,0.0,0.0,0.0,0.0,0.0,0.0,0.0,0.0,0.0,0.0,0.0,0.0,0.0,0.0,0.0,0.0,0.0,0.0,0.0,0.0,-2.1211,-2.124,-2.1364,-2.1664,-2.1752,-2.2475,-2.4251,-2.4451,-2.5085,-2.6512,0.0,0.0,0.0,0.0,0.0,0.0,0.0,0.0,0.0,0.0,0.0,0.0,0.0,0.0,0.0,0.0,0.0,0.0,0.0,0.0,0.0,0.0,0.0,0.0,0.0,0.0,0.0,0.0,0.0,0.0,0.0,0.0,0.0,0.0,0.0,0.0,0.0,0.0,0.0,0.0,0.0,0.0,0.0,0.0,0.0,0.0,0.0,0.0,0.0,0.0,0.0,0.0,0.0,0.0,0.0,0.0,0.0,0.0,0.0,0.0,-1.9279,0.0,0.0,0.0,0.0,0.0,0.0,0.0,0.0,0.0,0.0,0.0,0.0,0.0,0.0,0.0,0.0,0.0,0.0,0.0,0.0,0.0,0.0,0.0,0.0,0.0,0.0,0.0,0.0,0.0,0.0,0.0,0.0,0.0,0.0,0.0,0.0,0.0,0.0,0.0,0.0,0.0,-2.1211,-2.143,-2.162,-2.1686,-2.2132,-2.2598,-2.2966,-2.3219,-2.3522,-2.3961,-2.5554,0.0,0.0,0.0,0.0,0.0,0.0,0.0,0.0,0.0,0.0,0.0,0.0,0.0,0.0,0.0,0.0,0.0,0.0,0.0,0.0,0.0,0.0,0.0,0.0,0.0,0.0,0.0,0.0,0.0,0.0,0.0,0.0,0.0,0.0,0.0,0.0,0.0,0.0,0.0,0.0,0.0,0.0,0.0,0.0,0.0,0.0,0.0,0.0,0.0,0.0,0.0,0.0,0.0,0.0,0.0,0.0,0.0,0.0,0.0,0.0,-1.9279,0.0,0.0,0.0,0.0,0.0,0.0,0.0,0.0,0.0,0.0,0.0,0.0,0.0,0.0,0.0,0.0,0.0,0.0,0.0,0.0,0.0,0.0,0.0,0.0,0.0,0.0,0.0,0.0,0.0,0.0,0.0,0.0,0.0,0.0,0.0,0.0,0.0,0.0,0.0,0.0,-2.1423,-2.1591,-2.1811,-2.2111,-2.2425,-2.2926,-2.3695,-2.447,-2.5178,-2.5896,-2.7116,0.0,0.0,0.0,0.0,0.0,0.0,0.0,0.0,0.0,0.0,0.0,0.0,0.0,0.0,0.0,0.0,0.0,0.0,0.0,0.0,0.0,0.0,0.0,0.0,0.0,0.0,0.0,0.0,0.0,0.0,0.0,0.0,0.0,0.0,0.0,0.0,0.0,0.0,0.0,0.0,0.0,0.0,0.0,0.0,0.0,0.0,0.0,0.0,0.0,0.0,0.0,0.0,0.0,-2.0078,-1.9983,-1.9783,-1.9783,-1.9783,-1.9783,-1.9583,-1.9376,-1.9383,-1.9383,0.0,0.0,0.0,0.0,0.0,0.0,0.0,0.0,0.0,0.0,0.0,0.0,0.0,0.0,0.0,0.0,0.0,0.0,0.0,0.0,0.0,0.0,0.0,0.0,-2.1211,-2.1211,0.0,0.0,0.0,0.0,0.0,0.0,0.0,0.0,0.0,0.0,0.0,0.0,-2.1657,-2.1789,-2.2052,-2.2564,-2.2674,-2.3305,-2.4679,-2.5676,-2.6762,-2.7829,-2.8316,-2.8444,0.0,0.0,0.0,0.0,0.0,0.0,0.0,0.0,0.0,0.0,0.0,0.0,0.0,0.0,0.0,0.0,0.0,0.0,0.0,0.0,0.0,0.0,0.0,0.0,0.0,0.0,0.0,0.0,0.0,0.0,0.0,0.0,-1.9576,-1.9376,0.0,0.0,0.0,0.0,0.0,0.0,0.0,0.0,0.0,0.0,0.0,0.0,0.0,-2.0189,-2.0411,-2.0189,-2.0189,-2.0411,-2.0189,-2.0078,-2.0086,-2.0086,-2.0086,-2.0086,-1.9983,0.0,-1.968,-1.968,0.0,0.0,0.0,0.0,0.0,0.0,0.0,0.0,0.0,0.0,0.0,0.0,0.0,0.0,0.0,0.0,0.0,0.0,0.0,0.0,0.0,0.0,-2.1211,-2.1211,-2.1211,-2.1211,0.0,-2.1211,-2.1211,-2.1211,-2.1211,0.0,0.0,0.0,0.0,0.0,0.0,0.0,-2.1693,-2.2169,-2.2528,-2.2615,-2.2879,-2.3062,-2.3347,-2.3479,-2.372,-2.3837,-2.6034,-2.6762,-2.5676,-2.882,0.0,0.0,0.0,0.0,0.0,0.0,0.0,0.0,0.0,0.0,0.0,0.0,0.0,0.0,0.0,0.0,0.0,0.0,0.0,0.0,0.0,0.0,0.0,0.0,0.0,0.0,0.0,0.0,0.0,-1.9783,-1.999,-1.9998,-1.9887,-1.9783,0.0,0.0,0.0,0.0,0.0,0.0,0.0,0.0,0.0,-2.0498,-2.0498,-2.0609,-2.0719,-2.0609,-2.0609,-2.0719,-2.0609,-2.0506,-2.03,-2.03,-2.03,-2.03,-2.0189,-2.0086,-2.0101,-1.9983,-1.9879,-1.9783,0.0,0.0,0.0,0.0,-1.9776,-1.9879,-1.9776,-1.9904,0.0,-2.0234,0.0,0.0,0.0,0.0,0.0,0.0,0.0,0.0,0.0,0.0,-2.1211,-2.1211,-2.1211,-2.1211,-2.1211,-2.1211,-2.1211,0.0,-2.1211,-2.1211,-2.1211,0.0,0.0,0.0,0.0,-2.1818,-2.2169,-2.2454,-2.2689,-2.2879,-2.3025,-2.3106,-2.3106,-2.3845,-2.4579,-2.5309,-2.7004,-2.8215,-2.8343,-3.0039,-3.0635,0.0,0.0,0.0,0.0,0.0,0.0,0.0,0.0,0.0,0.0,0.0,0.0,0.0,0.0,0.0,0.0,0.0,0.0,0.0,0.0,0.0,0.0,0.0,0.0,0.0,0.0,0.0,0.0,-1.9983,-2.0292,-2.0411,-2.0189,-2.0189,0.0,0.0,0.0,0.0,0.0,0.0,-2.0617,-2.0617,-2.0719,-2.0917,-2.0925,-2.0925,-2.0925,-2.0925,-2.0925,-2.0925,-2.0925,-2.0822,-2.0617,-2.0617,-2.0617,-2.0617,-2.0395,-2.0403,-2.0617,-2.03,-2.0189,-2.0086,-2.0189,-2.0189,-2.0078,-2.0078,-2.0189,-2.0205,-2.0185,-2.0481,-2.0718,-2.0788,-2.0977,-2.1083,-2.1331,0.0,0.0,0.0,0.0,-2.1325,-2.1211,-2.1211,-2.1211,-2.1211,-2.1211,-2.1211,-2.1211,-2.1211,-2.1211,0.0,-2.1211,-2.1211,-2.1211,0.0,0.0,0.0,0.0,-2.2015,-2.255,-2.2696,-2.2842,-2.3084,-2.3106,-2.3106,-2.3106,-2.3969,-2.4949,-2.592,-2.7237,-2.8573,-2.9804,-3.0274,-3.0518,-3.0889,0.0,0.0,0.0,0.0,0.0,0.0,0.0,0.0,0.0,0.0,0.0,0.0,0.0,0.0,0.0,0.0,0.0,0.0,0.0,0.0,0.0,0.0,0.0,0.0,0.0,0.0,0.0,0.0,0.0,-2.0189,-2.0086,0.0,0.0,0.0,0.0,-2.0522,-2.0719,-2.0917,-2.0925,-2.0925,-2.0925,-2.0925,-2.0925,-2.0925,-2.0925,-2.0925,-2.0925,-2.0925,-2.0925,-2.0917,-2.0925,-2.0925,-2.0925,-2.0925,-2.0917,-2.0917,-2.0822,-2.0617,-2.03,-2.0078,-2.0411,-2.03,-2.0078,-2.0078,-2.03,-2.0457,-2.0557,-2.0778,-2.1007,-2.1455,-2.1788,-2.2063,-2.2085,-2.2101,0.0,0.0,-2.1668,-2.1554,-2.1325,-2.1211,-2.1211,-2.1211,-2.1211,-2.1211,-2.1211,-2.1211,-2.1211,0.0,-2.1211,-2.1211,-2.1211,0.0,-2.132,-2.165,-2.1957,-2.2271,-2.2579,-2.2893,-2.3091,-2.3106,-2.3106,-2.3106,-2.3106,-2.3106,-2.323,-2.323,-2.4579,-2.592,-2.7134,-2.8325,-2.9658,-3.0889,-3.0889,0.0,0.0,0.0,0.0,0.0,0.0,0.0,0.0,0.0,0.0,0.0,0.0,0.0,0.0,0.0,0.0,0.0,0.0,0.0,0.0,0.0,0.0,0.0,0.0,0.0,0.0,0.0,0.0,-2.0609,-2.0609,0.0,-2.0609,-2.0719,-2.0719,-2.0719,-2.0822,-2.0925,-2.0925,-2.0925,-2.0925,-2.0925,-2.0925,-2.0925,-2.0925,-2.0925,-2.0925,-2.0925,-2.0925,-2.0925,-2.0925,-2.0925,-2.0925,-2.0925,-2.0925,-2.0925,-2.0917,-2.0822,-2.0719,-2.0601,-2.0719,-2.0719,-2.0609,-2.0609,-2.0853,-2.1073,-2.1086,-2.1522,-2.197,-2.2227,-2.2356,-2.2343,-2.223,-2.2116,-2.2002,-2.1782,-2.1668,-2.1668,-2.1325,-2.1211,-2.1211,-2.1211,-2.1211,-2.1211,-2.1211,-2.1211,-2.1211,-2.1211,-2.1211,-2.1211,-2.1211,-2.1386,-2.1635,-2.1957,-2.2271,-2.2579,-2.2893,-2.304,-2.3106,-2.3106,-2.3106,-2.3106,-2.3106,-2.3106,-2.3479,-2.434,-2.5554,-2.6883,-2.8206,-2.954,-3.0401,-3.0889,-3.0889,-3.0889,0.0,0.0,0.0,0.0,0.0,0.0,0.0,0.0,0.0,0.0,0.0,0.0,0.0,0.0,0.0,0.0,0.0,0.0,0.0,0.0,0.0,0.0,0.0,0.0,0.0,0.0,-2.0925,-2.0925,-2.0925,-2.0925,-2.0925,-2.0925,-2.0925,-2.0925,-2.0925,-2.0925,-2.0925,-2.0925,-2.0925,-2.0925,-2.0925,-2.0925,-2.0925,-2.0925,-2.0925,-2.0925,-2.0925,-2.0925,-2.0925,-2.0925,-2.0925,-2.0925,-2.0925,-2.0925,-2.0925,-2.0925,-2.0925,-2.0925,-2.0925,-2.0925,-2.0933,-2.1052,-2.125,-2.1481,-2.1719,-2.218,-2.2704,-2.2717,-2.2683,-2.2683,-2.2456,-2.2456,-2.2335,-2.2124,-2.201,-2.1896,-2.1439,-2.1325,-2.1325,-2.1211,-2.1211,-2.1211,-2.1211,-2.1211,-2.1211,-2.1211,-2.1211,-2.1247,-2.1357,-2.1554,-2.184,-2.2264,-2.2498,-2.274,-2.3069,-2.3106,-2.3106,-2.3106,-2.3106,-2.3106,-2.3106,-2.3106,-2.3479,-2.434,-2.5676,-2.6883,-2.8206,-2.954,-3.0401,-3.0889,-3.0889,-3.0889,-3.0889,0.0,0.0,0.0,0.0,0.0,0.0,0.0,0.0,0.0,0.0,0.0,0.0,0.0,0.0,0.0,0.0,0.0,0.0,0.0,0.0,0.0,0.0,0.0,-2.0925,-2.0925,-2.0925,-2.0925,-2.0925,-2.0925,-2.0925,-2.0925,-2.0925,-2.0925,-2.0925,-2.0925,-2.0925,-2.0925,-2.0925,-2.0925,-2.0925,-2.0925,-2.0925,-2.0925,-2.0925,-2.0925,-2.0925,-2.0925,-2.0925,-2.0925,-2.0925,-2.0925,-2.0925,-2.0925,-2.0925,-2.0933,-2.0941,-2.0941,-2.0941,-2.0941,-2.098,-2.1338,-2.1473,-2.1584,-2.2267,-2.2728,-2.3014,-2.3014,-2.3014,-2.3014,-2.3014,-2.3014,-2.2901,-2.2683,-2.257,-2.2464,-2.1896,-2.1668,-2.1554,-2.1325,-2.1211,-2.1211,-2.1211,-2.1211,-2.1211,-2.1211,-2.1218,-2.1328,-2.1642,-2.1708,-2.192,-2.2528,-2.263,0.0,-2.3069,-2.3106,-2.3106,-2.3106,-2.3106,-2.3106,-2.3106,-2.3106,-2.3106,-2.3106,-2.4332,-2.5676,-2.6892,-2.8206,-2.954,-3.0889,-3.0889,-3.0889,-3.0889,0.0,0.0,0.0,0.0,0.0,0.0,0.0,0.0,0.0,0.0,0.0,0.0,0.0,0.0,0.0,0.0,0.0,0.0,0.0,0.0,0.0,-2.0814,-2.0925,-2.0925,-2.0925,-2.0925,-2.0925,-2.0925,-2.0925,-2.0925,-2.0925,-2.0925,-2.0925,-2.0925,-2.0925,-2.0925,-2.0925,-2.0925,-2.0925,-2.0925,-2.0925,-2.0925,-2.0925,-2.0925,-2.0925,-2.0925,-2.0925,-2.0925,-2.0925,-2.0925,-2.0925,-2.0925,-2.0925,-2.0941,-2.1195,-2.1306,-2.1306,-2.1306,-2.1306,-2.1346,-2.1687,-2.1981,-2.2267,-2.2712,-2.2934,-2.3014,-2.3014,-2.3014,-2.3014,-2.3014,-2.3014,-2.2901,-2.2683,-2.2456,-2.2116,-2.1782,-2.1554,-2.1325,-2.1211,-2.1211,-2.1211,-2.1211,-2.1211,-2.1211,-2.1211,-2.1401,-2.1591,-2.1679,-2.1891,-2.2184,-2.2564,-2.2828,0.0,-2.3098,-2.3106,-2.3106,-2.3106,-2.3106,-2.3106,-2.3106,-2.3106,-2.3106,-2.3106,-2.4332,-2.5676,-2.6892,-2.8206,-2.954,-3.0889,-3.0889,-3.0889,0.0,0.0,0.0,0.0,0.0,0.0,0.0,0.0,0.0,0.0,0.0,0.0,0.0,0.0,0.0,0.0,0.0,0.0,0.0,0.0,0.0,0.0,-2.0925,-2.0925,-2.0925,-2.0925,-2.0925,-2.0925,-2.0925,-2.0925,-2.0925,-2.0925,-2.0925,-2.0925,-2.0925,-2.0925,-2.0925,-2.0925,-2.0925,-2.0925,-2.0925,-2.0925,-2.0925,-2.0925,-2.0925,-2.0925,-2.0925,-2.0845,-2.071,-2.0853,-2.0845,-2.071,-2.0853,-2.1004,-2.1155,-2.137,-2.1536,0.0,0.0,0.0,0.0,0.0,-2.2402,-2.2736,-2.2942,-2.3014,-2.3014,-2.3014,-2.3014,-2.3014,-2.3014,-2.3014,-2.3014,-2.2788,-2.2675,-2.2449,-2.2124,-2.1888,-2.1668,-2.1439,-2.1439,-2.1325,-2.1211,-2.1211,-2.1247,-2.1386,-2.1569,0.0,-2.2037,-2.2242,-2.2469,-2.2776,-2.2988,-2.3106,-2.3106,-2.3106,-2.3106,-2.3106,-2.3106,-2.3106,-2.3106,-2.3106,0.0,0.0,0.0,-2.592,-2.7727,-2.9057,0.0,0.0,0.0,-3.0889,-3.0889,0.0,0.0,0.0,-3.0644,-3.0615,0.0,0.0,0.0,0.0,0.0,0.0,0.0,0.0,0.0,0.0,0.0,0.0,0.0,0.0,0.0,0.0,-2.0925,-2.0925,-2.0925,-2.0925,-2.0925,-2.0925,-2.0925,-2.0925,-2.0925,-2.0925,-2.0925,-2.0925,-2.0925,-2.0925,-2.0925,0.0,0.0,0.0,0.0,-2.0925,-2.0925,-2.0925,-2.0901,-2.0861,-2.0861,-2.0678,-2.0345,-2.0702,-2.071,-2.0472,-2.0829,-2.1179,-2.1513,-2.1552,-2.1767,-2.2077,-2.2029,-2.2045,-2.2116,-2.2434,-2.2744,-2.3014,-2.3014,0.0,0.0,-2.3014,-2.3014,-2.3014,-2.3014,-2.3014,-2.3014,-2.3014,-2.3014,-2.2901,-2.2683,-2.257,-2.2343,-2.1782,-2.1668,-2.1554,-2.1325,-2.124,-2.135,-2.1642,-2.1752,-2.1972,-2.2528,-2.2623,-2.2732,-2.3062,-2.3106,-2.3106,-2.3106,-2.3106,-2.3106,-2.3106,0.0,0.0,-2.3106,-2.3106,-2.3106,-2.3106,-2.4456,-2.6277,-2.8564,-3.0147,-3.0889,-3.0889,-3.0889,-3.0889,-3.0889,-3.0889,-3.0889,-3.0889,-3.0889,-3.0889,0.0,0.0,0.0,0.0,0.0,0.0,0.0,0.0,0.0,0.0,0.0,0.0,0.0,0.0,0.0,-2.0925,-2.0925,-2.0925,-2.0925,-2.0925,-2.0925,-2.0925,-2.0925,-2.0925,-2.0925,-2.0925,-2.0925,-2.0925,-2.0925,-2.0925,-2.0925,-2.0925,-2.0925,-2.0925,-2.0925,-2.0925,-2.0925,-2.0925,-2.0774,-2.0496,0.0,0.0,-1.9979,-2.0337,-2.0615,-2.0837,-2.1195,-2.1544,-2.1886,-2.2172,-2.249,-2.2784,-2.2498,-2.2561,-2.2815,-2.2887,-2.2958,-2.3014,-2.3014,-2.3014,-2.3014,-2.3014,-2.3014,-2.3014,-2.3014,-2.3014,0.0,-2.3014,-2.2796,-2.2683,-2.257,-2.2456,-2.2116,-2.1782,-2.1668,-2.1554,-2.1325,-2.1415,-2.162,-2.1686,-2.2096,-2.2484,-2.2601,-2.2623,-2.2732,-2.3062,-2.3106,-2.3106,-2.3106,-2.3106,-2.3106,-2.3106,-2.3106,-2.3106,-2.3106,-2.3106,-2.3106,-2.3106,-2.5309,-2.6892,-2.7375,-2.9677,-3.0889,-3.0889,-3.0889,-3.0889,-3.0889,-3.0889,-3.0889,-3.0889,-3.0889,-3.0889,0.0,0.0,0.0,0.0,0.0,0.0,0.0,0.0,0.0,0.0,0.0,-2.0925,-2.0925,0.0,-2.0925,-2.0925,-2.0925,-2.0925,-2.0925,-2.0925,-2.0925,-2.0925,-2.0925,-2.0925,-2.0925,-2.0925,-2.0925,-2.0925,-2.0925,-2.0925,-2.0925,-2.0925,-2.0845,-2.0662,-2.0655,-2.0575,-2.0392,-2.0392,-2.0392,-2.0392,-2.0392,-2.0392,-2.0408,-2.0758,-2.102,-2.1203,-2.1552,-2.1902,-2.2251,-2.2609,-2.2855,-2.2998,-2.2823,-2.2863,-2.3014,-2.3014,-2.3014,-2.3014,-2.3014,-2.3014,-2.3014,-2.3014,-2.3014,-2.3014,-2.3014,-2.3014,-2.3014,-2.3014,-2.2901,-2.2796,-2.2796,-2.257,-2.223,-2.2002,-2.1782,-2.1598,-2.1531,-2.1584,-2.1789,-2.2096,-2.241,-2.2674,-2.2835,-2.2864,-2.2923,-2.3084,-2.3106,-2.3106,-2.3106,-2.3106,-2.3106,-2.3106,-2.3106,-2.3106,-2.3106,-2.3106,-2.3106,-2.3106,-2.4941,-2.6286,-2.7013,-2.882,-3.0157,-3.0889,-3.0889,-3.0889,-3.0889,-3.0889,-3.0889,-3.0889,-3.0889,-3.0889,0.0,0.0,0.0,0.0,0.0,0.0,0.0,0.0,-2.0925,-2.0925,-2.0925,-2.0925,-2.0925,-2.0925,-2.0925,-2.0925,-2.0925,-2.0925,-2.0925,-2.0925,-2.0925,-2.0925,-2.0925,-2.0925,-2.0925,-2.0925,-2.0925,-2.0925,-2.0925,-2.0893,-2.0821,-2.0821,-2.0655,-2.0297,-2.0289,-2.0186,-1.9971,-1.9963,-2.0146,-2.0496,-2.0496,-2.0647,-2.0933,-2.129,-2.1489,-2.1568,-2.1981,-2.2323,-2.2609,-2.2895,-2.3014,-2.3014,-2.3014,-2.3014,-2.3014,-2.3014,-2.3014,-2.3014,-2.3014,-2.3014,-2.3014,-2.3014,-2.3014,-2.3014,-2.3014,-2.3014,-2.3014,-2.3014,-2.3014,-2.3014,-2.3014,-2.2796,-2.257,-2.223,-2.1941,-2.1725,-2.1759,-2.1796,-2.2023,-2.2528,-2.2674,-2.2798,-2.3062,-2.3106,-2.3106,-2.3106,-2.3106,-2.3106,-2.3106,-2.3106,-2.3106,-2.3106,-2.3106,-2.3106,-2.3106,-2.3106,-2.3106,-2.3106,-2.4332,-2.5676,-2.6892,-2.8206,-2.954,-3.0889,-3.0889,-3.0889,-3.0889,-3.0889,-3.0889,-3.0889,-3.0889,-3.0889,-2.0925,-2.0925,-2.0925,-2.0925,-2.0925,-2.0925,0.0,0.0,-2.0925,-2.0925,-2.0925,-2.0925,-2.0925,-2.0925,-2.0925,-2.0925,-2.0925,-2.0925,-2.0925,-2.0925,-2.0925,-2.0925,-2.0925,-2.0925,-2.0925,-2.0925,-2.0925,-2.0925,-2.0925,-2.0782,-2.0464,-2.0448,-2.0289,-1.9932,-1.9924,-2.0051,-2.0329,-2.0337,-2.0512,-2.0861,-2.0861,-2.0885,-2.0933,-2.129,-2.1616,-2.1941,-2.2609,-2.2919,-2.2958,-2.2998,-2.3014,-2.3014,-2.3014,-2.3014,-2.3014,-2.3014,-2.3014,-2.3014,-2.3014,-2.3014,-2.3014,-2.3014,-2.3014,-2.3014,-2.3014,-2.3014,-2.3014,-2.3014,-2.3014,-2.3014,-2.3014,-2.2796,-2.257,-2.223,-2.2115,-2.1992,-2.1803,-2.2132,-2.2535,-2.2608,-2.2857,-2.3062,-2.3098,-2.3106,-2.3106,-2.3106,-2.3106,-2.3106,-2.3106,-2.3106,-2.3106,-2.3106,-2.3106,-2.3106,-2.3106,-2.3106,-2.3106,-2.3106,-2.4332,-2.5676,-2.6892,-2.8206,-2.954,-3.0889,-3.0889,-3.0889,-3.0889,-3.0889,-3.0889,-3.0889,-3.0889,-3.0889,-2.0925,-2.0925,0.0,0.0,-2.0925,-2.0925,-2.0925,-2.0925,-2.0925,-2.0925,-2.0925,-2.0925,-2.0925,-2.0925,-2.0925,0.0,-2.0925,-2.0925,-2.0925,-2.0925,-2.0925,-2.0925,-2.0925,-2.0925,-2.0925,-2.0925,-2.0837,-2.0631,-2.0615,-2.0456,-2.0106,-2.0083,-1.9932,-1.959,-1.9582,-1.9646,-1.9797,-1.9987,-2.0369,-2.0925,-2.1131,-2.1441,-2.1838,-2.1989,-2.2243,-2.2585,-2.2887,-2.3014,-2.3014,-2.3014,-2.3014,-2.3014,-2.3014,-2.3014,-2.3014,-2.3014,-2.3014,-2.3014,-2.3014,-2.3014,-2.3014,-2.3014,-2.3014,-2.3014,-2.3014,-2.3014,-2.3014,-2.3014,-2.3014,-2.3014,-2.3014,-2.2683,-2.2276,-2.236,-2.2173,-2.1906,-2.2154,-2.244,-2.2681,-2.2871,-2.3018,-2.3106,-2.3106,-2.3106,-2.3106,-2.3106,-2.3106,-2.3106,-2.3106,-2.3106,-2.3106,-2.3106,-2.3106,-2.3106,-2.3106,-2.3106,-2.3186,-2.3384,-2.3888,-2.5219,-2.7531,-2.8157,-2.9392,-3.1631,-3.1631,-3.1631,-3.1631,-3.1631,-3.1631,-3.1631,-3.1631,-3.1631,-2.0925,0.0,0.0,-2.0925,-2.0925,-2.0925,-2.0925,-2.0925,-2.0925,-2.0925,-2.0925,-2.0925,-2.0925,-2.0925,-2.0925,-2.0925,-2.0925,-2.0925,-2.0925,-2.0925,-2.0917,-2.0822,-2.0822,-2.068,-2.0586,-2.0672,-2.067,-2.0316,-2.0305,-2.0098,-1.9749,-1.9733,-1.9574,-1.9233,-1.9407,-1.9558,-1.9654,-2.0083,-2.0655,-2.1354,-2.1616,-2.2053,-2.2625,-2.2529,-2.2625,-2.2863,-2.2768,-2.272,-2.272,-2.272,-2.2784,-2.2871,-2.2871,-2.2927,-2.3014,-2.3014,-2.3014,-2.3014,-2.3014,-2.3014,-2.3014,-2.3014,-2.3014,-2.3014,-2.3014,-2.3014,-2.3014,-2.3014,-2.3014,-2.3014,-2.2909,-2.2526,-2.2314,-2.245,-2.2178,-2.2074,-2.2528,-2.2689,-2.2828,-2.3062,-2.3106,-2.3106,-2.3106,-2.3106,-2.3106,-2.3106,-2.3106,-2.3106,-2.3106,-2.3106,-2.3106,-2.3106,-2.3106,-2.3142,-2.3237,-2.3245,-2.3384,-2.3713,-2.3727,-2.5088,-2.8,-2.8134,-2.9395,-3.2168,-3.2168,-3.2168,-3.2168,-3.2168,-3.2168,-3.2168,-3.2168,-3.2168,0.0,0.0,-2.0925,-2.0925,-2.0925,-2.0925,-2.0925,-2.0925,-2.0925,-2.0925,-2.0925,-2.0925,-2.0925,-2.0925,-2.0925,-2.0925,-2.0925,-2.0925,-2.0925,-2.0925,-2.0822,-2.0522,-2.0514,-2.0287,0.0,-2.0116,-2.0308,-2.0,-1.9976,-1.9733,-1.9407,-1.9383,-1.9225,-1.8851,-1.9503,-2.0011,-2.0361,-2.1052,-2.1751,-2.2434,-2.245,-2.2649,-2.299,-2.2649,-2.249,-2.2482,-2.214,-2.1989,-2.1989,-2.1989,-2.2188,-2.2506,-2.2506,-2.2712,-2.3014,-2.3014,-2.3014,-2.3014,-2.3014,-2.3014,-2.3014,-2.3014,-2.3014,-2.3014,-2.3014,-2.3014,-2.3014,-2.3014,-2.3014,-2.2901,-2.2683,-2.259,-2.2488,-2.2154,-2.2386,-2.2601,-2.2615,-2.2871,-2.3098,-2.3106,-2.3106,-2.3106,-2.3106,-2.3106,-2.3106,-2.3106,-2.3106,-2.3106,-2.3106,-2.3106,-2.3106,-2.3106,-2.3106,-2.3237,-2.3552,-2.3581,-2.372,-2.4049,-2.4064,-2.5342,-2.8009,-2.8134,-2.9395,-3.2168,-3.2168,-3.2168,-3.2168,-3.2168,-3.2168,-3.2168,-3.2168,-3.2168,0.0,0.0,-2.0925,-2.0925,-2.0925,-2.0925,-2.0925,-2.0925,-2.0925,-2.0925,-2.0925,-2.0925,-2.0925,-2.0925,-2.0925,-2.0925,-2.0925,-2.0925,-2.0925,-2.0719,-2.0617,-2.0514,-2.0115,0.0,0.0,0.0,0.0,-1.9346,-1.9302,-1.9185,-1.8863,-1.8925,-1.8964,-1.8887,-1.9526,-2.0146,-2.0734,-2.1211,-2.1679,-2.2132,-2.2132,-2.2204,-2.2307,-2.2188,-2.2132,-2.2132,-2.2013,-2.2092,-2.2307,-2.2307,-2.2521,-2.2839,-2.2839,-2.2911,-2.3014,-2.3014,-2.3014,-2.3014,-2.3014,-2.3014,-2.3014,-2.3014,-2.3014,-2.3014,-2.3014,-2.3014,-2.3014,-2.3014,-2.2953,-2.302,-2.2905,-2.2696,-2.2654,-2.2759,-2.2726,-2.2681,-2.2901,-2.3032,-2.3106,-2.3106,-2.3106,-2.3106,-2.3106,-2.3106,-2.3106,-2.3106,-2.3106,-2.3106,-2.3106,-2.3106,-2.3106,-2.3106,-2.3303,-2.3479,-2.3588,-2.3793,-2.4057,-2.4386,-2.4408,-2.5404,-2.7303,-2.8353,-2.9643,-3.157,-3.2479,-3.2998,-3.2998,-3.2998,-3.2998,-3.2998,-3.2998,-3.2998,-2.0925,-2.0925,-2.0925,-2.0925,-2.0925,-2.0925,-2.0925,-2.0925,-2.0925,-2.0925,-2.0925,-2.0925,-2.0925,-2.0925,-2.0925,-2.0925,-2.0925,-2.0822,-2.0822,-2.0624,-2.0372,-2.0036,-1.9727,-1.9305,0.0,0.0,0.0,-1.8907,-1.876,-1.8605,-1.8497,-1.8769,-1.8887,-1.9047,-1.9799,-2.0527,-2.09,-2.1352,-2.1743,-2.1957,-2.1957,-2.1957,-2.1957,-2.183,-2.1838,-2.1949,-2.183,-2.1973,-2.2299,-2.2299,-2.2506,-2.2823,-2.2823,-2.2903,-2.3014,-2.3014,-2.3014,-2.3014,-2.3014,-2.3014,-2.3014,-2.3014,-2.3014,-2.3014,-2.3014,-2.3014,-2.3038,-2.3051,-2.302,-2.2991,-2.2874,-2.281,-2.2758,-2.2845,-2.2848,-2.2857,-2.3062,-2.3106,-2.3106,-2.3106,-2.3106,-2.3106,-2.3106,-2.3106,-2.3106,-2.3106,-2.3106,-2.3106,-2.3106,-2.3106,-2.3157,-2.3274,-2.3471,-2.3691,-2.3925,-2.4137,-2.4393,-2.4723,-2.4744,-2.5486,-2.7012,-2.7941,-2.9117,-3.054,-3.1973,-3.2629,-3.2629,-3.3155,-3.3418,-3.3418,-3.3418,-3.3418,-2.0925,-2.0925,-2.0925,-2.0925,-2.0925,-2.0925,-2.0925,-2.0925,-2.0925,-2.0925,-2.0925,-2.0925,0.0,0.0,-2.0925,-2.0925,-2.0925,-2.0822,-2.0522,-2.0522,-2.0177,0.0,0.0,0.0,0.0,0.0,0.0,-1.8495,0.0,-1.821,-1.8504,-1.8816,-1.9055,-1.9117,-2.0264,-2.0885,-2.093,-2.1668,-2.1918,-2.1902,-2.1902,-2.1918,-2.1918,-2.16,-2.1632,-2.1941,-2.1616,-2.1671,-2.1989,-2.1989,-2.2196,-2.2513,-2.2513,-2.272,-2.3014,-2.3014,-2.3014,-2.3014,-2.3014,-2.3014,-2.3014,-2.3014,-2.3014,-2.3014,-2.3014,-2.303,-2.2996,-2.2983,-2.2983,-2.2975,-2.2714,-2.2803,-2.3041,-2.2652,-2.2879,-2.3106,-2.3106,-2.3106,-2.3106,-2.3106,-2.3106,-2.3106,-2.3106,-2.3106,-2.3106,-2.3106,-2.3106,-2.3106,-2.3106,-2.3128,-2.3252,-2.3567,-2.3625,-2.3896,-2.4518,-2.4583,-2.473,-2.5037,-2.5059,-2.5712,-2.6886,-2.7161,-2.7816,-2.9117,-3.054,-3.1313,-3.1313,-3.2765,-3.3418,-3.3418,-3.3418,-3.3418,-2.0925,-2.0925,-2.0925,-2.0925,-2.0925,-2.0925,-2.0925,-2.0925,-2.0925,-2.0925,-2.0925,-2.0925,0.0,0.0,0.0,-2.0925,-2.0925,0.0,-2.0522,-2.03,0.0,-1.9325,0.0,-1.8361,-1.7852,-1.7596,0.0,0.0,-1.8236,-1.819,-1.8286,-1.8789,-1.9124,-1.9152,-1.9865,-2.0462,-2.0703,-2.1098,-2.1004,-2.0547,-2.0971,-2.1217,-2.1243,-2.1375,-2.1632,-2.1949,-2.1862,-2.2029,-2.2347,-2.2347,-2.2561,-2.2879,-2.2879,-2.2934,-2.3014,-2.3014,-2.2901,-2.2683,-2.2901,-2.3014,-2.3014,-2.3014,-2.3014,-2.3014,-2.3014,-2.2969,-2.2959,-2.3053,-2.3096,-2.3029,-2.2998,-2.3007,-2.3113,-2.2988,-2.3047,-2.3106,-2.3106,-2.3106,-2.3106,-2.3106,-2.3106,-2.3106,-2.3106,-2.3106,-2.3106,-2.3106,-2.3106,-2.3106,-2.3106,-2.3318,-2.3501,-2.3588,-2.4027,-2.4386,-2.4554,-2.4796,-2.4964,-2.5052,-2.5059,-2.5187,-2.5584,-2.6635,-2.7286,-2.7676,-3.0012,-3.1313,-3.1313,-3.2765,-3.3418,-3.3418,-3.3418,-3.3418,-2.0925,-2.0925,-2.0925,-2.0925,-2.0925,-2.0925,-2.0925,-2.0925,-2.0925,-2.0925,-2.0925,0.0,0.0,0.0,0.0,0.0,0.0,0.0,-2.0403,-2.0074,-1.9649,0.0,-1.8383,0.0,-1.7633,-1.756,-1.7618,0.0,-1.8015,-1.8186,-1.8432,-1.8844,-1.9167,-1.9191,-1.9781,-2.0178,-2.0368,-2.057,-2.0547,-2.0307,-2.062,-2.0911,-2.1017,-2.1246,-2.154,-2.197,0.0,-2.2277,-2.272,-2.2609,-2.2727,-2.3014,-2.2901,-2.2796,-2.2796,-2.2796,-2.2683,-2.2456,-2.2562,-2.257,-2.2675,-2.2901,-2.3014,-2.3046,-2.2969,-2.3035,-2.3022,-2.3096,-2.3097,-2.3056,-2.3066,-2.3105,-2.3106,-2.3106,-2.3106,-2.3106,-2.3106,-2.3106,-2.3106,-2.3106,-2.3106,-2.3106,-2.3106,-2.3106,-2.3106,-2.3106,-2.3106,-2.3164,-2.3303,-2.3479,-2.3654,-2.3793,-2.4269,-2.4627,-2.4774,-2.4949,-2.5059,-2.5059,-2.5059,-2.5059,-2.5059,-2.5846,-2.6234,-2.6234,-2.832,-2.9752,-3.041,-3.1668,-3.2488,-3.3144,-3.2959,-3.2871,-2.0917,-2.0925,-2.0925,-2.0925,-2.0925,-2.0925,-2.0925,-2.0925,-2.0925,-2.0925,0.0,-2.0925,-2.0925,-2.0917,-2.0822,-2.0917,0.0,-2.0609,-2.0189,-1.9804,-1.9275,-1.8442,-1.8013,-1.7706,-1.7421,-1.7647,-1.7852,-1.794,-1.7947,-1.8169,-1.8669,-1.9082,-1.9286,-1.9264,-1.9776,-1.9983,-1.9983,-2.0021,-2.0195,-2.0484,-2.0635,-2.0834,-2.1061,-2.1162,-2.1455,-2.1999,-2.1999,-2.2393,-2.2901,-2.2683,-2.2683,-2.2901,-2.257,-2.257,-2.257,-2.257,-2.2343,-2.2002,-2.2116,-2.2139,-2.2177,-2.2691,-2.2933,-2.2914,-2.2983,-2.3022,-2.2989,-2.3104,-2.3056,-2.3145,-2.304,-2.3106,-2.3106,-2.3106,-2.3106,-2.3106,-2.3106,-2.3106,-2.3106,-2.3106,-2.3106,-2.3106,-2.3106,-2.3106,-2.3106,-2.3106,-2.3142,-2.3274,-2.3559,-2.3632,-2.3786,-2.4108,-2.4437,-2.4744,-2.503,-2.5059,-2.5059,-2.5059,-2.5059,-2.5059,-2.5059,-2.5015,-2.4993,-2.4993,-2.6252,-2.7538,-2.8841,-2.9921,-3.1039,-3.2448,-3.208,-3.2037,-2.0822,-2.0925,-2.0925,-2.0925,-2.0925,-2.0925,-2.0925,-2.0925,0.0,0.0,0.0,-2.0925,-2.0925,-2.0719,0.0,-2.0822,0.0,0.0,0.0,0.0,-1.9067,0.0,0.0,0.0,0.0,0.0,0.0,0.0,0.0,-1.8642,-1.8809,-1.9118,-1.9317,-1.9272,-1.9376,-1.948,-1.948,-1.9956,-2.0121,-1.9975,-2.0665,-2.1084,-2.1196,-2.141,-2.1704,-2.2024,-2.2024,0.0,-2.2222,-2.223,-2.2222,-2.2222,-2.223,-2.223,-2.223,-2.223,-2.2002,-2.1782,-2.2002,-2.207,-2.2135,-2.22,-2.2414,-2.2659,-2.272,-2.2891,-2.3119,-2.3118,-2.3081,-2.304,-2.3098,-2.3106,-2.3106,-2.3106,-2.3106,-2.3106,-2.3106,-2.3106,-2.3106,-2.3106,-2.3106,-2.3106,-2.3106,-2.3106,-2.3106,-2.3106,-2.334,-2.353,-2.3588,-2.383,-2.4123,-2.4452,-2.4774,-2.4993,-2.5052,-2.5059,-2.5059,-2.5059,-2.5059,-2.5059,-2.5059,-2.4796,-2.4657,-2.4657,-2.5804,-2.6416,-2.6673,-2.8001,-2.9351,-3.0603,-3.0529,-3.1143,-2.0498,-2.0498,-2.0498,-2.0498,-2.0498,-2.0498,-2.0498,0.0,0.0,0.0,0.0,-2.0498,-2.0498,0.0,0.0,0.0,0.0,0.0,0.0,0.0,0.0,0.0,0.0,0.0,0.0,0.0,0.0,0.0,0.0,-1.9038,-1.9038,-1.9191,-1.9279,-1.9279,-1.944,-1.9528,-1.9528,-1.9949,-2.02,-2.0259,-2.0743,-2.0989,-2.1203,-2.1308,-2.1624,-2.1888,-2.1888,-2.2002,-2.2116,-2.2002,-2.2002,-2.2116,-2.2002,-2.1888,-2.1888,-2.1888,-2.1773,-2.1698,-2.1807,-2.2022,-2.2149,-2.2111,-2.2515,-2.2799,-2.2855,-2.3014,-2.3056,-2.3096,-2.312,-2.3106,-2.3106,-2.3106,-2.3106,-2.3106,-2.3106,-2.3106,-2.3106,-2.3106,-2.3106,-2.3106,-2.3106,-2.3106,-2.3106,-2.3106,-2.3164,-2.3332,-2.3493,-2.372,-2.4057,-2.424,-2.4393,-2.4554,-2.4862,-2.5059,-2.5059,-2.5059,-2.4986,-2.481,-2.4803,-2.473,-2.4554,-2.4401,-2.432,-2.432,-2.4795,-2.5479,-2.624,-2.6681,-2.7577,-2.8818,-2.9346,-2.987,-2.0078,-2.0078,-2.0078,-2.0078,-2.0078,-2.0078,-2.0078,-2.0078,0.0,0.0,0.0,-2.0078,-2.0078,0.0,0.0,0.0,0.0,0.0,0.0,0.0,0.0,0.0,0.0,0.0,0.0,0.0,0.0,0.0,0.0,0.0,-1.9279,-1.9279,-1.9308,-1.9374,-1.963,-1.9798,-1.9864,-2.0186,-2.0464,-2.072,-2.0794,-2.0962,-2.1211,-2.1211,-2.1325,-2.1554,-2.1554,-2.166,-2.1888,-2.1668,-2.1668,-2.1888,-2.1668,-2.1598,-2.1658,-2.1658,-2.1757,-2.1803,-2.1803,-2.2008,-2.2279,-2.2279,-2.2632,-2.3036,-2.2937,-2.3063,-2.3052,-2.304,-2.3106,-2.3106,-2.3106,-2.3106,-2.3106,-2.3106,-2.3106,-2.3106,-2.3106,-2.3106,-2.3106,-2.3106,-2.3106,-2.3106,-2.3106,-2.3106,-2.3215,-2.3545,-2.3654,-2.391,-2.4496,-2.4569,-2.4569,-2.4569,-2.4803,-2.4949,-2.4949,-2.4883,-2.4737,-2.4481,-2.4466,-2.4349,-2.4093,-2.4013,-2.3976,-2.3976,-2.391,-2.4374,-2.5509,-2.5109,-2.5718,-2.7072,-2.7738,-2.8435,-2.0078,-2.0078,-2.0078,-2.0078,-2.0078,-2.0078,-2.0078,0.0,0.0,0.0,-2.0078,-2.0078,-2.0078,0.0,0.0,0.0,0.0,-1.9021,0.0,0.0,0.0,0.0,0.0,0.0,0.0,0.0,0.0,0.0,0.0,0.0,-1.9279,-1.9279,-1.9411,-1.9711,-1.9747,-1.9901,-2.0186,-2.0516,-2.0691,-2.0728,-2.102,-2.1181,-2.1211,-2.1211,-2.1211,-2.1211,-2.1211,-2.1211,0.0,-2.1211,-2.1211,-2.1325,-2.1211,-2.1393,-2.165,-2.165,-2.1862,-2.214,-2.214,-2.2337,-2.2579,-2.2579,-2.2579,-2.2708,-2.2615,-2.2835,-2.3076,-2.3098,-2.3106,-2.3106,-2.3106,-2.3106,-2.3106,-2.3106,-2.3106,-2.3106,-2.3106,-2.3106,-2.3106,-2.3106,-2.3106,-2.3106,-2.3106,-2.3106,-2.3215,-2.3545,-2.3845,-2.4166,-2.4525,-2.4569,-2.4569,-2.4569,-2.4598,-2.4613,-2.4613,-2.4342,-2.4159,-2.413,-2.413,-2.4115,-2.4086,-2.3801,-2.364,-2.364,-2.3347,-2.3326,-2.3319,-2.3289,-2.4007,-2.5365,-2.5448,-2.6641,-1.8729,-1.8624,-1.8408,-1.7759,-1.8087,-1.8624,-1.8624,0.0,0.0,-1.9576,-1.9049,-1.8833,-1.9472,-1.8945,0.0,0.0,-1.9369,0.0,0.0,0.0,0.0,0.0,0.0,0.0,0.0,0.0,0.0,0.0,0.0,0.0,-1.8575,-1.9233,-1.963,-1.9762,-2.0135,-2.0398,-2.053,-2.0852,-2.1013,-2.102,-2.1152,-2.1211,-2.1211,-2.1211,-2.1211,-2.1211,-2.1211,-2.1211,0.0,-2.1211,-2.1328,-2.1503,-2.1503,-2.1701,-2.1986,-2.1986,-2.2184,-2.2447,-2.2447,-2.2652,-2.2915,-2.2915,-2.2915,-2.2915,-2.2915,-2.3003,-2.3106,-2.3106,-2.3106,-2.3106,-2.3106,-2.3106,-2.3106,-2.3106,-2.3106,-2.3106,-2.3106,-2.3106,-2.3106,-2.3106,-2.3106,-2.3106,-2.3106,-2.3106,-2.3215,-2.3545,-2.3706,-2.391,-2.4232,-2.4276,-2.4276,-2.4276,-2.4276,-2.4276,-2.4276,-2.4159,-2.3998,-2.3801,-2.3793,-2.3698,-2.3508,-2.3369,-2.3303,-2.3303,-2.3171,-2.3106,-2.3106,-2.3106,-2.3355,-2.3969,-2.4702,-2.5676,-1.7793,-1.7364,-1.6935,-1.6074,-1.6505,-1.7153,0.0,0.0,0.0,-1.8311,-1.7681,-1.747,-1.8639,-1.8115,-1.8003,-1.9063,-1.888,-1.8316,-1.7271,0.0,0.0,0.0,0.0,0.0,0.0,0.0,0.0,0.0,0.0,0.0,-1.8116,-1.9318,-2.0047,-2.0047,-2.0486,-2.0772,-2.0867,-2.1094,-2.1211,-2.1211,-2.1211,-2.1211,-2.1211,-2.1211,-2.1211,-2.1211,-2.1211,-2.1269,0.0,-2.135,-2.1547,-2.184,-2.184,-2.203,-2.2315,-2.2315,-2.2506,-2.2762,-2.2762,-2.2915,-2.3106,-2.3106,-2.3106,-2.3106,-2.3106,-2.3106,-2.3106,-2.3106,-2.3106,-2.3106,-2.3106,-2.3106,-2.3106,-2.3106,-2.3106,-2.3106,-2.3106,-2.3106,-2.3106,-2.3106,-2.3106,-2.3106,-2.3106,-2.3106,-2.3215,-2.3545,-2.3596,-2.3713,-2.4042,-2.3998,-2.394,-2.394,-2.3852,-2.3837,-2.3925,-2.3852,-2.3698,-2.3464,-2.3457,-2.3347,-2.312,-2.3106,-2.3106,-2.3106,-2.3106,-2.3106,-2.3106,-2.3106,-2.3106,-2.3106,-2.4092,-2.4702,-1.7582,-1.6829,-1.5861,-1.5861,-1.5861,-1.5968,0.0,0.0,0.0,-1.5968,-1.5968,-1.6287,-1.7371,-1.7582,-1.8003,-1.9063,-1.8067,-1.7141,-1.7141,0.0,0.0,0.0,0.0,0.0,0.0,0.0,0.0,0.0,0.0,0.0,-1.8424,-1.9856,-2.0713,-2.0713,-2.072,-2.0874,-2.1203,-2.1211,-2.1211,-2.1211,-2.1211,-2.1211,-2.1211,-2.1211,-2.1211,-2.1211,-2.1211,-2.1393,0.0,-2.1693,-2.1884,-2.2176,-2.2176,-2.2359,-2.2615,-2.2615,-2.2828,-2.3106,-2.3106,-2.3106,-2.3106,-2.3106,-2.3106,-2.3106,-2.3106,-2.3106,-2.3106,-2.3106,-2.3106,-2.3106,-2.3106,-2.3106,-2.3106,-2.3106,-2.3106,-2.3106,-2.3106,-2.3106,-2.3106,-2.3106,-2.3106,-2.3106,-2.3106,-2.3106,-2.3215,-2.3545,-2.3596,-2.3713,-2.4042,-2.3801,-2.3603,-2.3603,-2.331,-2.3252,-2.3574,-2.3303,-2.312,-2.3113,-2.3113,-2.3113,-2.3106,-2.3106,-2.3106,-2.3106,-2.3106,-2.3106,-2.3106,-2.3106,-2.3106,-2.3106,-2.3106,-2.3845,-1.6823,-1.618,-1.5541,-1.3938,-1.4159,-1.4696,-1.4696,0.0,0.0,0.0,-1.5334,-1.512,-1.6187,-1.5767,-1.566,-1.6823,-1.6535,-1.6057,-1.5217,0.0,0.0,0.0,0.0,0.0,0.0,0.0,0.0,0.0,0.0,0.0,-1.7478,-1.8904,-2.0018,-2.0728,-2.094,-2.1101,-2.1211,-2.1211,-2.1211,-2.1211,-2.1211,-2.1211,-2.1211,-2.1211,-2.1211,-2.1218,-2.1445,-2.1598,-2.1715,-2.1935,-2.2213,-2.2484,-2.2484,-2.2674,-2.2952,-2.2952,-2.3018,-2.3106,-2.3106,-2.3106,-2.3106,-2.3106,-2.3106,-2.3106,-2.3106,-2.3106,-2.3106,-2.3106,-2.3106,-2.3106,-2.3106,-2.3106,-2.3106,-2.3106,-2.3106,-2.3106,-2.3106,-2.3106,-2.3106,-2.3106,-2.3106,-2.3106,-2.3106,-2.3106,-2.3142,-2.3245,-2.3267,-2.3303,-2.3406,-2.3325,-2.3267,-2.3267,-2.3171,-2.3149,-2.3252,-2.3171,-2.3106,-2.3106,-2.3106,-2.3106,-2.3106,-2.3106,-2.3106,-2.3106,-2.3106,-2.3106,-2.3106,-2.3106,-2.3106,-2.3106,-2.3106,-2.3473,0.0,-1.4905,-1.4261,-1.2762,-1.298,0.0,0.0,0.0,0.0,0.0,0.0,0.0,-1.5013,-1.4696,-1.4595,-1.5755,-1.5547,-1.5013,-1.4272,0.0,0.0,0.0,0.0,0.0,0.0,0.0,0.0,0.0,0.0,0.0,-1.7183,-1.8519,-1.9828,-2.0798,-2.1101,-2.1211,-2.1211,-2.1211,-2.1211,-2.1211,-2.1211,-2.1211,-2.1211,-2.1335,-2.1393,-2.1415,-2.1737,-2.1942,0.0,-2.2264,-2.2528,-2.2806,-2.2806,-2.293,-2.3106,-2.3106,-2.3106,-2.3106,-2.3106,-2.3106,-2.3106,-2.3106,-2.3106,-2.3106,-2.3106,-2.3106,-2.3106,-2.3106,-2.3106,-2.3106,-2.3106,-2.3106,-2.3106,-2.3106,-2.3106,-2.3106,-2.3106,-2.3106,-2.3106,-2.3106,-2.3106,-2.3106,-2.3106,-2.3106,-2.3106,-2.3106,-2.3106,-2.3106,-2.3106,-2.3106,-2.3106,-2.3106,-2.3106,-2.3106,-2.3106,-2.3106,-2.3106,-2.3106,-2.3106,-2.3106,-2.3106,-2.3106,-2.3106,-2.3106,-2.3106,-2.3106,-2.3106,-2.323,-2.3288,-2.3296,-2.342,-2.3581,0.0,-1.3305,-1.2545,-1.2436,-1.2441,-1.2441,0.0,0.0,0.0,0.0,0.0,0.0,-1.3846,-1.4062,-1.4374,-1.5435,-1.4798,-1.4062,-1.4062,0.0,0.0,0.0,0.0,0.0,0.0,0.0,0.0,0.0,0.0,0.0,-1.7079,-1.8267,-1.9557,-2.0852,-2.0852,-2.0974,-2.1211,-2.1096,-2.1096,-2.1211,-2.1211,-2.1218,-2.1254,-2.1562,-2.1708,0.0,-2.2074,-2.2374,-2.2623,-2.2645,-2.2835,-2.3106,-2.3106,-2.3106,-2.3106,-2.3106,-2.3106,-2.3106,-2.3106,-2.3106,-2.3106,-2.3106,-2.3106,-2.3106,-2.3106,-2.3106,-2.3106,-2.3106,-2.3106,-2.3106,-2.3106,-2.3106,-2.3106,-2.3106,-2.3106,-2.3106,-2.3106,-2.3106,-2.3106,-2.3106,-2.3106,-2.3106,-2.3106,-2.3106,-2.3106,-2.3106,-2.3106,-2.3106,-2.3106,-2.3106,-2.3106,-2.3106,-2.3106,-2.3106,-2.3106,-2.3106,-2.3106,-2.3106,-2.3106,-2.3106,-2.3106,-2.3106,-2.3106,-2.3106,-2.3135,-2.3157,-2.3179,-2.3479,-2.3632,-2.364,-2.394,-2.4093,-1.2214,0.0,-1.3521,-1.2654,-1.2441,-1.2441,0.0,0.0,0.0,0.0,0.0,0.0,0.0,-1.2871,-1.2871,-1.3192,-1.2975,-1.2762,-1.2545,0.0,0.0,0.0,0.0,0.0,0.0,0.0,0.0,0.0,0.0,-1.3851,-1.5192,-1.5548,-1.625,-1.7541,-1.7904,-1.8964,-2.1211,-2.0263,-2.0263,-2.1211,-2.1211,-2.1342,-2.1584,-2.1657,-2.1832,-2.2089,-2.2389,-2.2557,-2.2645,-2.2893,-2.304,-2.3106,-2.3106,-2.3106,-2.3106,-2.3106,-2.3106,-2.3106,-2.3106,-2.3106,-2.3106,-2.3106,-2.3106,-2.3106,-2.3106,-2.3106,-2.3106,-2.3106,-2.3106,-2.3106,-2.3106,-2.3106,-2.3106,-2.3106,-2.3106,-2.3106,-2.3106,-2.3106,-2.3106,-2.3106,-2.3106,-2.3106,-2.3106,-2.3106,-2.3106,-2.3106,-2.3106,-2.3106,-2.3106,-2.3106,-2.3106,-2.3106,-2.3106,-2.3106,-2.3106,-2.3106,-2.3106,-2.3106,-2.3106,-2.3106,-2.3106,-2.3106,-2.3106,-2.3106,-2.3354,-2.3603,-2.3859,-2.3932,-2.3969,-2.3969,-2.4049,-2.4218,-1.135,-1.2219,-1.2866,-1.2223,-1.2005,-1.2005,-1.2005,0.0,0.0,0.0,0.0,0.0,0.0,0.0,0.0,-1.2005,-1.2005,-1.2001,0.0,0.0,0.0,0.0,0.0,0.0,0.0,0.0,0.0,0.0,0.0,-1.3071,-1.4485,-1.4604,-1.5192,-1.648,-1.6133,-1.7196,-2.0026,-1.9448,-1.9802,-2.1211,-2.1234,-2.1402,-2.1708,-2.1993,-2.2213,-2.2403,-2.271,-2.2842,-2.2857,-2.304,-2.3106,-2.3106,-2.3106,-2.3106,-2.3106,-2.3106,-2.3106,-2.3106,-2.3106,-2.3106,-2.3106,-2.3106,-2.3106,-2.3106,-2.3106,-2.3106,-2.3106,-2.3106,-2.3106,-2.3106,-2.3106,-2.3106,-2.3106,-2.3106,-2.3106,-2.3106,-2.3106,-2.3106,-2.3106,-2.3106,-2.3106,-2.3106,-2.3106,-2.3106,-2.3106,-2.3106,-2.3106,-2.3106,-2.3106,-2.3106,-2.3106,-2.3106,-2.3106,-2.3106,-2.3106,-2.3106,-2.3106,-2.3106,-2.3106,-2.3106,-2.3106,-2.3106,-2.3179,-2.3325,-2.3654,-2.3903,-2.4086,-2.4232,-2.4305,-2.4313,-2.4459,-2.462,-1.1021,-1.1236,-1.1459,-1.1568,-1.1568,-1.1568,0.0,0.0,0.0,0.0,0.0,0.0,0.0,0.0,0.0,0.0,0.0,0.0,0.0,0.0,0.0,0.0,0.0,0.0,0.0,0.0,0.0,0.0,0.0,-1.2711,-1.4133,-1.4133,-1.4723,-1.5779,-1.4837,-1.5424,-1.8008,-1.8389,-1.9359,-2.0816,-2.1074,-2.137,-2.1736,-2.226,-2.2652,-2.2588,0.0,0.0,-2.3106,-2.3106,-2.3106,-2.3106,-2.3106,-2.3106,-2.3106,-2.3106,-2.3106,-2.3106,-2.3106,-2.3106,-2.3106,-2.3106,-2.3106,-2.3106,-2.3106,-2.3106,-2.3106,-2.3106,-2.3106,-2.3106,-2.3106,-2.3106,-2.3106,-2.3106,-2.3106,-2.3106,-2.3106,-2.3106,-2.3106,-2.3106,-2.3106,-2.3106,-2.3106,-2.3106,-2.3106,-2.3106,-2.3106,-2.3106,-2.3106,-2.3106,-2.3106,-2.3106,-2.3106,-2.3106,-2.3106,-2.3106,-2.3106,-2.3106,-2.3106,-2.3135,-2.3179,-2.323,-2.3413,-2.3735,-2.402,-2.4181,-2.4232,-2.451,-2.4642,-2.4649,-2.4927,-2.5059,-1.0802,-1.0802,-1.0911,-1.1459,-1.1568,-1.1568,0.0,0.0,0.0,0.0,0.0,0.0,0.0,0.0,0.0,0.0,0.0,0.0,0.0,0.0,0.0,0.0,0.0,0.0,0.0,0.0,0.0,0.0,0.0,-1.2014,-1.2251,-1.2251,-1.2367,-1.2487,-1.2595,-1.3297,-1.4826,-1.6144,-1.7681,-1.9213,-2.0572,-2.1356,-2.1631,-2.2335,-2.2646,-2.2666,0.0,-2.3106,-2.3106,-2.3106,-2.3106,-2.3106,-2.3106,-2.3106,-2.3106,-2.3106,-2.3106,-2.3106,-2.3106,-2.3106,-2.3106,-2.3106,-2.3106,-2.3106,-2.3106,-2.3106,-2.3106,-2.3106,-2.3106,-2.3106,-2.3106,-2.3106,-2.3106,-2.3106,-2.3106,-2.3106,-2.3106,-2.3106,-2.3106,-2.3106,-2.3106,-2.3106,-2.3106,-2.3106,-2.3106,-2.3106,-2.3106,-2.3106,-2.3106,-2.3106,-2.3106,-2.3106,-2.3106,-2.3106,-2.3106,-2.3106,-2.3106,-2.3106,-2.3106,-2.3237,-2.3508,-2.3786,-2.4086,-2.4415,-2.4466,-2.4627,-2.4905,-2.4957,-2.4986,-2.4986,-2.503,-2.5059,-1.0692,-1.0692,-1.0802,-1.1021,-1.1131,0.0,0.0,0.0,0.0,0.0,0.0,0.0,0.0,0.0,0.0,0.0,0.0,0.0,0.0,0.0,0.0,0.0,0.0,0.0,0.0,0.0,0.0,0.0,0.0,0.0,-1.1776,-1.1776,-1.1776,-1.1776,-1.1889,-1.2289,-1.2981,-1.4434,-1.5921,-1.7715,-1.9344,-2.0245,-2.0511,-2.1037,-2.17,-2.2613,0.0,-2.2988,-2.3106,-2.3106,-2.3106,-2.3106,-2.3106,-2.3106,-2.3106,-2.3106,-2.3106,-2.3106,-2.3106,-2.3106,-2.3106,-2.3106,-2.3106,-2.3106,-2.3106,-2.3106,-2.3106,-2.3106,-2.3106,-2.3106,-2.3106,-2.3106,-2.3106,-2.3106,-2.3106,-2.3106,-2.3106,-2.3106,-2.3106,-2.3106,-2.3106,-2.3106,-2.3106,-2.3106,-2.3106,-2.3106,-2.2981,-2.2856,-2.3113,-2.2981,-2.2856,-2.3113,-2.3106,-2.3106,-2.3106,-2.3274,-2.3369,-2.3369,-2.3369,-2.3515,-2.3845,-2.4174,-2.4415,-2.4569,-2.4744,-2.4905,-2.5059,-2.5059,-2.5059,-2.5059,-2.5059,-2.5059,-1.0692,-1.0692,-1.0692,0.0,0.0,0.0,0.0,0.0,0.0,0.0,0.0,0.0,0.0,0.0,0.0,0.0,0.0,0.0,0.0,0.0,0.0,0.0,0.0,0.0,0.0,0.0,0.0,0.0,0.0,0.0,-1.1776,-1.1776,-1.1776,-1.1776,-1.1813,-1.1898,-1.2028,-1.334,-1.473,-1.6187,-1.7807,-1.8787,-1.8973,-1.9688,-2.0683,-2.1846,-2.2355,-2.2613,-2.2856,-2.2856,-2.2863,-2.2988,-2.2988,-2.2988,-2.3106,-2.3106,-2.3106,-2.3106,-2.3106,-2.3106,-2.3106,-2.3106,-2.3106,-2.3106,-2.3106,-2.3106,-2.3106,-2.3106,-2.3106,-2.3106,-2.3106,-2.3106,-2.3106,-2.3106,-2.3106,-2.3106,-2.3106,-2.3106,-2.3106,-2.3106,-2.3106,-2.3106,-2.3106,-2.3106,-2.3106,-2.2981,-2.2731,-2.2606,-2.2856,-2.2606,-2.2613,-2.2856,-2.2988,-2.301,-2.309,-2.3396,-2.3614,-2.3558,-2.3565,-2.3674,-2.405,-2.4378,-2.4679,-2.4686,-2.4927,-2.5059,-2.5059,-2.5059,-2.5059,-2.5059,-2.5059,-2.5059,-1.0692,-1.0692,-1.0692,0.0,0.0,0.0,0.0,0.0,0.0,0.0,0.0,0.0,0.0,0.0,0.0,0.0,0.0,0.0,0.0,0.0,0.0,0.0,0.0,0.0,0.0,0.0,0.0,0.0,0.0,0.0,-1.1776,-1.1776,-1.1776,-1.1776,-1.1926,-1.2016,-1.2028,-1.373,-1.4671,-1.4793,-1.6339,-1.7108,-1.7205,-1.9139,-1.9922,-1.9795,-2.1461,-2.2111,-2.2111,-2.2111,-2.2362,-2.2613,-2.2613,-2.2863,-2.3106,-2.3106,-2.3106,-2.3106,-2.3106,-2.3106,-2.3106,-2.3106,-2.3106,-2.3106,-2.3106,-2.3106,-2.3106,-2.3106,-2.3106,-2.3106,-2.3106,-2.3106,-2.3106,-2.3106,-2.3106,-2.3106,-2.3106,-2.3106,-2.3106,-2.3106,-2.3106,-2.3106,-2.3106,-2.3106,-2.2981,-2.2738,-2.2606,-2.2487,-2.2237,-2.2111,-2.2111,-2.2111,-2.2487,-2.2727,-2.3028,-2.3336,-2.3513,-2.3539,-2.356,-2.37,-2.3987,-2.4295,-2.4745,-2.5022,-2.5044,-2.5059,-2.5059,-2.5059,-2.5059,-2.5059,-2.5059,-2.5059,-1.0692,-1.0692,-1.0692,-1.0692,0.0,0.0,0.0,0.0,0.0,0.0,0.0,0.0,0.0,0.0,0.0,0.0,0.0,0.0,0.0,0.0,0.0,0.0,0.0,0.0,0.0,0.0,0.0,0.0,0.0,0.0,-1.1776,-1.1776,-1.1825,-1.1931,-1.1996,-1.2138,-1.2357,-1.2999,-1.3384,-1.3505,-1.5043,-1.5729,-1.5684,-1.6452,-1.7865,-1.954,-2.0182,-2.1082,-2.2111,-2.2111,-2.2111,-2.2362,-2.248,-2.2856,-2.3106,-2.2856,-2.2731,-2.2731,-2.2731,-2.2731,-2.2856,-2.2988,-2.3106,-2.3106,-2.3106,-2.3106,-2.3106,-2.3106,-2.2981,-2.2863,-2.3106,-2.3106,-2.3106,-2.2856,-2.2731,-2.2738,-2.248,-2.2606,-2.2731,-2.2731,-2.2988,-2.3106,-2.3106,-2.2988,-2.2731,-2.2606,-2.2237,-2.1985,-2.2111,-2.1859,-2.1929,-2.2377,-2.2694,-2.2933,-2.3381,-2.3245,-2.3174,-2.3486,-2.3461,-2.3715,-2.4047,-2.4167,-2.4367,-2.4781,-2.4774,-2.4916,-2.5059,-2.5059,-2.5162,-2.5352,-2.5352,-2.5461,-1.0472,-1.0472,-1.0472,-1.0582,0.0,0.0,0.0,0.0,0.0,0.0,0.0,0.0,0.0,0.0,0.0,0.0,0.0,0.0,0.0,0.0,0.0,0.0,0.0,0.0,0.0,0.0,0.0,0.0,0.0,0.0,0.0,-1.1829,-1.191,-1.2024,-1.2138,-1.2316,-1.256,-1.2621,-1.2714,-1.2836,-1.3744,-1.4263,-1.4263,-1.4651,-1.6328,-1.8768,-1.9158,-2.0309,-2.1734,-2.1734,-2.1859,-2.1985,-2.2362,-2.2613,-2.2738,-2.2487,-2.248,-2.248,-2.248,-2.248,-2.2487,-2.2738,-2.2738,-2.2738,-2.2738,-2.2738,-2.2738,-2.2738,-2.2606,-2.248,-2.2731,-2.2738,-2.2738,-2.2487,-2.248,-2.2362,-2.2111,-2.2237,-2.248,-2.248,-2.2613,-2.2738,-2.2738,-2.2606,-2.2362,-2.2362,-2.1859,-2.1642,-2.1864,-2.1751,-2.1867,-2.2556,-2.2862,-2.3127,-2.3342,-2.3178,-2.3045,-2.3256,-2.335,-2.3465,-2.3809,-2.3816,-2.4095,-2.4503,-2.4503,-2.4689,-2.5205,-2.5205,-2.5374,-2.5681,-2.5681,-2.5798,-0.9926,-0.9816,-0.9926,0.0,0.0,0.0,0.0,0.0,0.0,0.0,0.0,0.0,0.0,0.0,0.0,0.0,0.0,0.0,0.0,0.0,0.0,0.0,0.0,0.0,0.0,0.0,0.0,0.0,0.0,0.0,0.0,-1.1939,-1.2032,-1.2032,-1.2377,-1.2564,-1.2564,-1.2747,-1.2836,-1.2836,-1.2836,-1.2836,-1.2836,-1.4263,-1.5684,-1.7103,-1.839,-1.9814,-2.1109,-2.1109,-2.1235,-2.1607,-2.1985,-2.2104,-2.2104,-2.2111,-2.2111,-2.2111,-2.2111,-2.2111,-2.2111,-2.2111,-2.2111,-2.2111,-2.2111,-2.2111,-2.2111,-2.2111,-2.2111,-2.2111,-2.2111,-2.2111,-2.2111,-2.2111,-2.2111,-2.2111,-2.2111,-2.2111,-2.2111,-2.2111,-2.2111,-2.2111,-2.2111,-2.2111,-2.1985,-2.1614,-2.1614,-2.1597,-2.1645,-2.1563,-2.18,-2.2483,-2.2784,-2.2962,-2.2955,-2.3229,-2.327,-2.2859,-2.2859,-2.2996,-2.3406,-2.3406,-2.3679,-2.4503,-2.4503,-2.4797,-2.5535,-2.5535,-2.5703,-2.6018,-2.6018,-2.6025,-0.9816,0.0,0.0,0.0,0.0,0.0,0.0,0.0,0.0,0.0,0.0,0.0,0.0,0.0,0.0,0.0,0.0,0.0,0.0,0.0,0.0,0.0,0.0,0.0,0.0,0.0,0.0,0.0,0.0,0.0,0.0,-1.2004,-1.2146,-1.2398,-1.2507,-1.2625,-1.2755,-1.2808,-1.2836,-1.2836,-1.2836,-1.2836,-1.2836,-1.3227,-1.4132,-1.5559,-1.5944,-1.749,-1.968,-1.968,-1.9807,-2.0055,-1.9152,-1.9018,-1.9267,-2.0043,-2.0432,-2.0715,-2.1549,-2.1878,-2.215,-2.2055,-2.2111,-2.2111,-2.2111,-2.2111,-2.2111,-2.2111,-2.1985,-2.1734,-2.1734,-2.1607,-2.1488,-2.1734,-2.1734,-2.1734,-2.1481,-2.1607,-2.1734,-2.1734,-2.1985,-2.2111,-2.2111,-2.1859,-2.1809,-2.1895,-2.1801,-2.1652,-2.1824,-2.2038,-2.2191,-2.2412,-2.2687,-2.2868,-2.2862,-2.2942,-2.2996,-2.2866,-2.2859,-2.2996,-2.2996,-2.2996,-2.3509,-2.4412,-2.4143,-2.4712,-2.5871,-2.5297,-2.5462,-2.6361,-2.6069,-2.6192,0.0,0.0,0.0,0.0,0.0,0.0,0.0,0.0,0.0,0.0,0.0,0.0,0.0,0.0,0.0,0.0,0.0,0.0,0.0,0.0,0.0,0.0,0.0,0.0,0.0,0.0,0.0,0.0,0.0,0.0,0.0,-1.2162,-1.2341,-1.2556,-1.2633,-1.2726,-1.2836,-1.2836,-1.2836,-1.2836,-1.2836,-1.2836,-1.2836,-1.2836,-1.3617,-1.4907,-1.5424,-1.6716,-1.8267,-1.8267,-1.8262,-1.8384,-1.7613,-1.7479,-1.7748,-1.9016,-1.9481,-1.9782,-2.1162,-2.1706,-2.1726,-2.1669,-2.1734,-2.1734,-2.1734,-2.1734,-2.1734,-2.1734,-2.1607,-2.1362,-2.1362,-2.1235,-2.1109,-2.1362,-2.1362,-2.1362,-2.1109,-2.1235,-2.1362,-2.1362,-2.1703,-2.1919,-2.1919,-2.176,-2.1774,-2.2087,-2.1955,-2.1964,-2.2131,-2.2412,-2.2599,-2.2599,-2.2752,-2.2859,-2.2859,-2.2859,-2.2859,-2.2859,-2.2979,-2.3046,-2.3046,-2.3046,-2.3403,-2.4129,-2.4121,-2.4616,-2.5775,-2.52,-2.5362,-2.6258,-2.5961,-2.6206,0.0,0.0,0.0,0.0,0.0,0.0,0.0,0.0,0.0,0.0,0.0,0.0,0.0,0.0,0.0,0.0,0.0,0.0,0.0,0.0,0.0,0.0,0.0,0.0,0.0,0.0,0.0,0.0,0.0,0.0,-1.2077,-1.2385,-1.2572,-1.2588,-1.2751,-1.2836,-1.2836,-1.2836,-1.2836,-1.2836,-1.2836,-1.2836,-1.2836,-1.2836,-1.3486,-1.4782,-1.6203,-1.6845,-1.6845,-1.6845,-1.6845,-1.685,-1.6721,-1.6602,-1.6904,-1.8557,-1.9036,-1.9145,-2.0812,-2.1248,-2.1149,-2.1116,-2.1109,-2.1109,-2.1109,-2.1109,-2.1109,-2.1109,-2.1109,-2.1109,-2.1109,-2.1109,-2.1109,-2.1109,-2.1109,-2.1109,-2.1109,-2.1129,-2.1149,-2.1149,-2.139,-2.159,-2.159,-2.181,-2.1991,-2.2024,-2.2271,-2.2458,-2.2458,-2.2692,-2.2859,-2.2859,-2.2859,-2.2859,-2.2859,-2.2859,-2.2873,-2.2899,-2.3173,-2.334,-2.3367,-2.3367,-2.3514,-2.394,-2.4227,-2.4657,-2.5373,-2.5228,-2.5375,-2.58,-2.58,-2.5946,0.0,0.0,0.0,0.0,0.0,0.0,0.0,0.0,0.0,0.0,0.0,0.0,0.0,0.0,0.0,0.0,0.0,0.0,0.0,0.0,0.0,0.0,0.0,0.0,0.0,0.0,0.0,0.0,0.0,0.0,-1.2434,-1.2519,-1.2629,-1.2775,-1.2816,-1.2836,-1.2836,-1.2836,-1.2836,0.0,-1.2836,-1.2836,-1.2836,-1.2836,-1.2964,-1.3354,-1.4782,-1.5298,-1.5298,-1.5298,-1.5298,-1.5298,-1.4132,-1.3835,-1.4099,-1.5589,-1.6885,-1.8183,-1.937,-2.0586,-2.1423,-2.1189,-2.1109,-2.1109,-2.1109,-2.1109,-2.1109,-2.1109,-2.1109,-2.1109,-2.1109,-2.1109,-2.1109,-2.1109,-2.1109,-2.1109,-2.1109,-2.1296,-2.1456,-2.1456,-2.169,-2.1891,-2.1891,-2.1944,-2.2064,-2.2291,-2.2579,-2.2766,-2.2766,-2.2819,-2.2859,-2.2859,-2.2859,-2.2859,-2.2859,-2.2859,-2.2966,-2.3213,-2.3293,-2.3434,-2.3667,-2.3674,-2.3917,-2.4562,-2.4357,-2.4677,-2.5695,-2.5123,-2.5151,-2.5793,-2.5513,-2.5513,0.0,0.0,0.0,0.0,0.0,0.0,0.0,0.0,0.0,0.0,0.0,0.0,0.0,0.0,0.0,0.0,0.0,0.0,0.0,0.0,0.0,0.0,0.0,0.0,0.0,0.0,0.0,0.0,0.0,-1.2369,-1.2552,-1.2649,-1.2739,-1.2836,-1.2836,-1.2836,-1.2836,-1.2836,-1.2836,-1.2836,-1.2836,-1.2836,-1.2836,-1.2836,-1.2836,-1.2836,-1.3617,-1.3875,-1.3875,-1.3875,-1.3875,-1.3875,-1.3095,-1.2942,-1.3234,-1.4795,-1.5903,-1.6845,-1.8841,-1.9862,-2.04,-2.0902,-2.1109,-2.1109,-2.1109,-2.1109,-2.1109,-2.1109,-2.1109,-2.1109,-2.1109,-2.1216,-2.1323,-2.1323,-2.1323,-2.1323,-2.1323,-2.1557,-2.1757,-2.1757,-2.1991,-2.2191,-2.2191,-2.2311,-2.2458,-2.2605,-2.2766,-2.2859,-2.2859,-2.2859,-2.2859,-2.2859,-2.2859,-2.2859,-2.2859,-2.2999,-2.3153,-2.3313,-2.3587,-2.3814,-2.3975,-2.4108,-2.4333,-2.4478,-2.4481,-2.4629,-2.5212,-2.4777,-2.4784,-2.5212,-2.5079,-2.5079,0.0,0.0,0.0,0.0,0.0,0.0,0.0,0.0,0.0,0.0,0.0,0.0,0.0,0.0,0.0,0.0,0.0,0.0,0.0,0.0,0.0,0.0,0.0,0.0,0.0,0.0,0.0,0.0,0.0,-1.258,-1.2609,-1.2755,-1.2836,-1.2836,-1.2836,-1.2836,-1.2836,-1.2836,-1.2836,-1.2836,-1.2836,-1.2836,-1.2836,-1.2836,-1.2836,-1.2836,-1.2836,-1.2836,-1.2836,-1.2836,-1.2836,-1.284,-1.2869,-1.299,-1.3296,-1.4701,-1.5185,-1.5553,-1.8156,-1.8827,-1.8908,-2.0329,-2.0722,-2.0722,-2.0982,-2.1109,-2.1109,-2.1109,-2.1109,-2.1122,-2.1169,-2.137,-2.157,-2.1617,-2.1663,-2.169,-2.1637,-2.1857,-2.2064,-2.2064,-2.2298,-2.2498,-2.2498,-2.2699,-2.2859,-2.2859,-2.2859,-2.2859,-2.2859,-2.2859,-2.2859,-2.2859,-2.2906,-2.2939,-2.2939,-2.3227,-2.3427,-2.3474,-2.3935,-2.4222,-2.4275,-2.4509,-2.4523,-2.4282,-2.4516,-2.4636,-2.4636,-2.4636,-2.4636,-2.4636,-2.4636,-2.4784,0.0,0.0,0.0,0.0,0.0,0.0,0.0,0.0,0.0,0.0,0.0,0.0,0.0,0.0,0.0,0.0,0.0,0.0,0.0,0.0,0.0,0.0,0.0,0.0,0.0,0.0,0.0,0.0,-1.245,-1.2633,-1.2791,-1.2824,-1.2836,-1.2836,-1.2836,-1.2836,-1.2836,-1.2836,-1.2836,-1.2836,-1.2836,-1.2836,-1.2836,-1.2836,-1.2836,-1.2836,-1.2836,-1.2836,-1.2836,-1.2836,-1.2836,-1.2852,-1.3003,-1.3173,-1.3356,-1.3673,-1.4444,-1.5489,-1.5784,-1.6578,-1.749,-1.878,-1.9297,-1.9553,-2.0722,-2.1109,-2.1109,-2.1109,-2.1109,-2.1169,-2.143,-2.1523,-2.1617,-2.1864,-2.2118,-2.2231,-2.1984,-2.2158,-2.2358,-2.2358,-2.2599,-2.2806,-2.2806,-2.2839,-2.2859,-2.2859,-2.2859,-2.2859,-2.2859,-2.2859,-2.2859,-2.2859,-2.3106,-2.3267,-2.3267,-2.3541,-2.3821,-2.4075,-2.4162,-2.4315,-2.4569,-2.4616,-2.4616,-2.4576,-2.4616,-2.4636,-2.4636,-2.4636,-2.4636,-2.4636,-2.4636,-2.4636,0.0,0.0,0.0,0.0,0.0,0.0,0.0,0.0,0.0,0.0,0.0,0.0,0.0,0.0,0.0,0.0,0.0,0.0,0.0,0.0,0.0,0.0,0.0,0.0,0.0,0.0,0.0,0.0,-1.2617,-1.2751,-1.2832,-1.2836,-1.2836,-1.2836,-1.2836,-1.2836,-1.2836,-1.2836,-1.2836,-1.2836,-1.2836,-1.2836,-1.2836,-1.2836,-1.2836,-1.2836,-1.2836,-1.2836,-1.2836,-1.2836,-1.2893,-1.299,-1.3063,-1.3271,-1.3522,-1.3498,-1.3846,-1.4433,-1.499,-1.6074,-1.7232,-1.8524,-1.9553,-2.0329,-2.0849,-2.1109,-2.1142,-2.1309,-2.0708,-2.038,-2.1587,-2.1378,-2.0997,-2.2065,-2.2452,-2.2632,-2.2505,-2.2579,-2.2665,-2.2665,-2.2772,-2.2859,-2.2859,-2.2859,-2.2859,-2.2859,-2.2859,-2.2859,-2.2859,-2.3013,-2.312,-2.312,-2.3394,-2.3574,-2.3574,-2.3841,-2.4068,-2.4195,-2.4356,-2.4502,-2.4636,-2.4636,-2.4636,-2.4636,-2.4636,-2.4636,-2.4636,-2.4636,-2.4636,-2.4636,-2.4636,-2.4636,0.0,0.0,0.0,0.0,0.0,0.0,0.0,0.0,0.0,0.0,0.0,0.0,0.0,0.0,0.0,0.0,0.0,0.0,0.0,0.0,0.0,0.0,0.0,0.0,0.0,0.0,0.0,0.0,-1.2735,-1.2836,-1.2836,-1.2836,-1.2836,-1.2836,-1.2836,-1.2836,-1.2836,-1.2836,-1.2836,-1.2836,-1.2836,-1.2836,-1.2836,-1.2836,-1.2836,-1.2836,-1.2836,-1.2836,-1.284,-1.2885,-1.2978,-1.3104,-1.3197,-1.3405,-1.3628,-1.349,-1.3413,-1.3481,-1.4356,-1.5209,-1.6203,-1.7876,-1.917,-2.0202,-2.0849,-2.0902,-2.0746,-2.0967,-2.0017,-1.9208,-2.1078,-2.0906,-2.0527,-2.2107,-2.2699,-2.2859,-2.2859,-2.2859,-2.2859,-2.2859,-2.2859,-2.2859,-2.2859,-2.2859,-2.2893,-2.2966,-2.2979,-2.3006,-2.3086,-2.3293,-2.344,-2.344,-2.3701,-2.3881,-2.3881,-2.4148,-2.4309,-2.4309,-2.4516,-2.4636,-2.4636,-2.4636,-2.4636,-2.4636,-2.4636,-2.4636,-2.4636,-2.4636,-2.4636,-2.4636,-2.4636,-2.4636,0.0,0.0,0.0,0.0,0.0,0.0,0.0,0.0,0.0,0.0,0.0,0.0,0.0,0.0,0.0,0.0,0.0,0.0,0.0,0.0,0.0,0.0,0.0,0.0,0.0,0.0,0.0,0.0,-1.2469,-1.2836,-1.2836,-1.2836,-1.2836,-1.2836,-1.2836,-1.2836,-1.2836,-1.2836,-1.2836,-1.2836,-1.2836,-1.2836,-1.2836,-1.2836,-1.2836,-1.2836,-1.2836,-1.2836,-1.2848,-1.3011,-1.3084,-1.3128,-1.3478,-1.3628,-1.364,-1.3632,-1.3518,-1.3344,-1.3292,-1.3111,-1.3486,-1.6198,-1.7103,-1.7753,-2.0335,-2.0265,-1.9428,-1.944,-1.8559,-1.7987,-1.9876,-2.0231,-2.0712,-2.2493,-2.2853,-2.2859,-2.2859,-2.2859,-2.2859,-2.2859,-2.2859,-2.2859,-2.2859,-2.2859,-2.2966,-2.326,-2.33,-2.3407,-2.3688,-2.3741,-2.3748,-2.3748,-2.4008,-2.4182,-2.4182,-2.4449,-2.4616,-2.4616,-2.4629,-2.4636,-2.4636,-2.4636,-2.4636,-2.4636,-2.4636,-2.4636,-2.4636,-2.4636,-2.4636,-2.4636,-2.4636,-2.4636,0.0,0.0,0.0,0.0,0.0,0.0,0.0,0.0,0.0,0.0,0.0,0.0,0.0,0.0,0.0,0.0,0.0,0.0,0.0,0.0,0.0,0.0,0.0,0.0,0.0,0.0,0.0,0.0,0.0,-1.2177,-1.2177,-1.2309,-1.2441,-1.2441,-1.2704,-1.2836,-1.2836,-1.2836,-1.2836,-1.2836,-1.2836,-1.2836,-1.2836,-1.2836,-1.2836,-1.2836,-1.2836,-1.2836,-1.2848,-1.3023,-1.3165,-1.3295,-1.3547,-1.3713,-1.3782,-1.3551,-1.3429,-1.3327,-1.3031,-1.3409,-1.4263,-1.5298,-1.6203,-1.7265,-1.8335,-1.8319,-1.806,-1.8368,-1.7433,-1.7011,-1.9725,-1.979,-1.9669,-2.2278,-2.2859,-2.2859,-2.2859,-2.2859,-2.2859,-2.2859,-2.2859,-2.2926,-2.3126,-2.316,-2.3267,-2.3567,-2.3614,-2.3647,-2.3754,-2.3935,-2.4048,-2.4048,-2.4309,-2.4482,-2.4482,-2.4576,-2.4636,-2.4636,-2.4636,-2.4636,-2.4636,-2.4636,-2.4636,-2.4636,-2.4636,-2.4636,-2.4636,-2.4636,-2.4636,-2.4636,-2.4636,-2.4636,0.0,0.0,0.0,0.0,0.0,0.0,0.0,0.0,0.0,0.0,0.0,0.0,0.0,0.0,0.0,0.0,0.0,0.0,0.0,0.0,0.0,0.0,0.0,0.0,0.0,0.0,0.0,0.0,0.0,0.0,-1.178,-1.2045,-1.2177,-1.2309,-1.2572,-1.2836,-1.2836,-1.2836,-1.2836,-1.2836,-1.2836,-1.2836,-1.2836,-1.2836,-1.2836,-1.284,-1.2897,-1.2921,-1.2938,-1.3116,-1.3295,-1.3482,-1.366,-1.3798,-1.3859,-1.3502,-1.3372,-1.3319,-1.2962,-1.3354,-1.4263,-1.4782,-1.5603,-1.6473,-1.7023,-1.6916,-1.6695,-1.7128,-1.6163,-1.57,-1.8347,-1.9089,-1.9507,-2.1038,-2.216,-2.2722,-2.2304,-2.2578,-2.2893,-2.2999,-2.302,-2.312,-2.3427,-2.3474,-2.3574,-2.3875,-2.3915,-2.3955,-2.4048,-2.4229,-2.4349,-2.4349,-2.4523,-2.4636,-2.4636,-2.4636,-2.4636,-2.4636,-2.4636,-2.4636,-2.4636,-2.4636,-2.4636,-2.4636,-2.4636,-2.4636,-2.4636,-2.4636,-2.4636,-2.4636,-2.4636,-2.4636,0.0,0.0,0.0,0.0,0.0,0.0,0.0,0.0,0.0,0.0,0.0,0.0,0.0,0.0,0.0,0.0,0.0,0.0,0.0,0.0,0.0,0.0,0.0,0.0,0.0,0.0,0.0,0.0,-1.1516,-1.178,-1.178,-1.178,-1.1912,-1.2309,-1.2572,-1.2836,-1.2704,-1.2836,-1.2836,-1.2704,-1.2704,-1.2836,-1.2836,-1.2836,-1.284,-1.2852,-1.3023,-1.31,-1.3124,-1.3303,-1.3486,-1.366,-1.3835,-1.39,-1.3859,-1.3502,-1.3372,-1.3319,-1.2962,-1.2836,-1.2968,-1.4399,-1.4917,-1.5343,-1.669,-1.6471,-1.557,-1.5718,-1.4745,-1.4181,-1.573,-1.825,-2.0207,-1.8804,-2.0617,-2.2304,-2.0918,-2.176,-2.2966,-2.3267,-2.3333,-2.3434,-2.3734,-2.3788,-2.3881,-2.4168,-2.4215,-2.4322,-2.4603,-2.4636,-2.4636,-2.4636,-2.4636,-2.4636,-2.4636,-2.4636,-2.4636,-2.4636,-2.4636,-2.4636,-2.4636,-2.4636,-2.4636,-2.4636,-2.4636,-2.4636,-2.4636,-2.4636,-2.4636,-2.4636,-2.4636,-2.4636,-0.4766,0.0,0.0,0.0,0.0,0.0,-0.8277,-0.9057,-0.9822,0.0,0.0,0.0,0.0,0.0,0.0,0.0,0.0,0.0,0.0,0.0,0.0,0.0,0.0,0.0,0.0,0.0,0.0,0.0,-1.0986,-1.0982,-1.0982,-1.1251,-1.1512,-1.1912,-1.2309,-1.2309,-1.2045,-1.2309,-1.2309,-1.2045,-1.2045,-1.2177,-1.2441,-1.2441,-1.264,-1.3027,-1.3072,-1.3246,-1.3498,-1.3547,-1.36,-1.366,-1.3835,-1.39,-1.3859,-1.3502,-1.3372,-1.3319,-1.2962,-1.2836,-1.2856,-1.3373,-1.3582,-1.381,-1.4362,-1.4388,-1.4225,-1.4352,-1.4144,-1.4181,-1.573,-1.7549,-1.8944,-1.8519,-1.9083,-1.9837,-2.0736,-2.1346,-2.1938,-2.3027,-2.35,-2.3741,-2.4035,-2.4082,-2.4182,-2.4476,-2.4516,-2.4549,-2.4623,-2.4636,-2.4636,-2.4636,-2.4636,-2.4636,-2.4636,-2.4636,-2.4636,-2.4636,-2.4636,-2.4636,-2.4636,-2.4636,-2.4636,-2.4636,-2.4636,-2.4636,-2.4636,-2.4636,-2.4636,-2.4636,-2.4636,-2.4636,0.0,0.0,0.0,0.0,0.0,0.0,-0.772,-0.8471,-0.9207,0.0,0.0,0.0,0.0,0.0,0.0,0.0,0.0,0.0,0.0,0.0,0.0,0.0,0.0,0.0,0.0,-1.0666,-1.0721,-1.0721,-1.0721,-1.0721,-1.0721,-1.0986,-1.1247,-1.1512,-1.1912,-1.2045,-1.178,-1.2045,-1.2045,-1.178,-1.178,-1.2045,-1.2309,-1.2379,-1.2732,-1.3104,-1.3258,-1.3445,-1.3652,-1.3721,-1.375,-1.3762,-1.3863,-1.3855,-1.3762,-1.3474,-1.3323,-1.3214,-1.2934,-1.2885,-1.2962,-1.3063,-1.3197,-1.3364,-1.3579,-1.3693,-1.3774,-1.3872,-1.39,-1.4043,-1.5026,-1.6287,-1.7268,-1.6705,-1.7616,-1.8856,-1.9849,-2.0769,-2.1802,-2.3397,-2.3834,-2.4042,-2.4335,-2.4382,-2.4442,-2.4609,-2.4636,-2.4636,-2.4636,-2.4636,-2.4636,-2.4636,-2.4636,-2.4636,-2.4636,-2.4636,-2.4636,-2.4636,-2.4636,-2.4636,-2.4636,-2.4636,-2.4636,-2.4636,-2.4636,-2.4636,-2.4636,-2.4636,-2.4636,-2.4636,-2.4636,-2.4636,0.0,0.0,0.0,0.0,0.0,0.0,-0.7245,-0.7736,-0.8105,-0.9332,0.0,0.0,0.0,0.0,0.0,0.0,0.0,0.0,0.0,0.0,0.0,0.0,0.0,0.0,-1.0707,-1.0721,-1.0721,-1.0721,-1.0721,-1.0721,-1.0721,-1.0982,-1.1115,-1.1115,-1.1516,-1.178,-1.1648,-1.1648,-1.1648,-1.1648,-1.1648,-1.192,-1.2207,-1.2488,-1.2712,-1.3173,-1.3502,-1.3652,-1.3544,-1.3839,-1.39,-1.39,-1.39,-1.3794,-1.362,-1.3437,-1.3254,-1.3072,-1.2917,-1.2966,-1.31,-1.3141,-1.3376,-1.3648,-1.3669,-1.3778,-1.39,-1.39,-1.39,-1.39,-1.39,-1.4884,-1.5598,-1.421,-1.6187,-1.8333,-1.8513,-2.0027,-2.169,-2.3355,-2.3951,-2.4335,-2.4294,-2.4482,-2.4636,-2.4636,-2.4636,-2.4636,-2.4636,-2.4636,-2.4636,-2.4636,-2.4636,-2.4636,-2.4636,-2.4636,-2.4636,-2.4636,-2.4636,-2.4636,-2.4636,-2.4636,-2.4636,-2.4636,-2.4636,-2.4636,-2.4636,-2.4636,-2.4636,-2.4636,-2.4636,-2.4636,0.0,0.0,0.0,0.0,0.0,0.0,-0.5174,-0.6283,-0.7391,0.0,0.0,0.0,0.0,0.0,0.0,0.0,0.0,0.0,0.0,0.0,0.0,0.0,0.0,0.0,-1.0707,-1.0721,-1.0721,-1.0721,-1.0721,-1.0721,-1.0721,-1.0721,-1.0853,-1.0853,-1.1118,-1.1251,-1.0986,-1.1118,-1.1118,-1.0853,-1.0853,-1.1315,-1.2101,-1.2135,-1.2573,-1.3539,-1.3612,-1.344,-1.3421,-1.3745,-1.39,-1.39,-1.39,-1.3794,-1.362,-1.3437,-1.3254,-1.3088,-1.3055,-1.3068,-1.3141,-1.3441,-1.3583,-1.3669,-1.3811,-1.3876,-1.39,-1.39,-1.39,-1.39,-1.39,-1.4043,-1.4365,-1.4231,-1.4583,-1.5554,-1.703,-1.7763,-1.8469,-2.0308,-2.2744,-2.412,-2.2819,-2.3729,-2.4636,-2.4636,-2.4636,-2.4636,-2.4636,-2.4636,-2.4636,-2.4636,-2.4636,-2.4636,-2.4636,-2.4636,-2.4636,-2.4636,-2.4636,-2.4636,-2.4636,-2.4636,-2.4636,-2.4636,-2.4636,-2.4636,-2.4636,-2.4636,-2.4636,-2.4636,-2.4636,-2.4636,0.0,0.0,0.0,-0.1973,0.0,0.0,0.0,-0.3447,-0.4553,-0.6156,0.0,0.0,0.0,0.0,0.0,0.0,0.0,0.0,0.0,0.0,0.0,0.0,0.0,0.0,-1.0714,-1.0721,-1.0721,-1.0721,-1.0721,-1.0721,-1.0721,-1.0721,-1.0721,-1.0721,-1.0853,-1.0853,-1.0721,-1.0853,-1.0853,-1.0721,-1.0799,-1.1139,-1.1756,-1.1916,-1.2358,-1.3083,-1.3165,-1.3109,-1.3039,-1.3325,-1.3472,-1.3615,-1.3757,-1.3742,-1.3498,-1.3405,-1.3254,-1.3092,-1.3092,-1.3214,-1.3401,-1.3583,-1.3701,-1.3786,-1.3876,-1.39,-1.39,-1.39,-1.39,-1.39,-1.39,-1.3969,-1.4062,-1.4156,-1.4314,-1.493,-1.674,-1.7166,-1.7572,-1.8436,-2.0564,-2.2223,-2.2223,-2.2825,-2.3729,-2.4488,-2.4636,-2.4636,-2.4636,-2.4636,-2.4636,-2.4636,-2.4636,-2.4636,-2.4636,-2.4636,-2.4636,-2.4636,-2.4636,-2.4636,-2.4636,-2.4636,-2.4636,-2.4636,-2.4636,-2.4636,-2.4636,-2.4636,-2.4636,-2.4636,-2.4636,-2.4636,0.0,0.0,0.0,0.0,0.0,-0.1852,0.0,0.0,0.0,0.0,0.0,0.0,0.0,0.0,0.0,0.0,0.0,0.0,0.0,0.0,0.0,0.0,0.0,0.0,-1.0721,-1.0721,-1.0721,-1.0721,-1.0721,-1.0721,-1.0721,-1.0721,-1.0721,-1.0721,-1.0721,-1.0721,-1.0721,-1.0721,-1.0734,-1.0765,-1.089,-1.1114,-1.1589,-1.1842,-1.2252,-1.257,-1.2697,-1.2753,-1.2757,-1.2753,-1.2896,-1.3186,-1.3615,-1.3685,-1.3376,-1.3413,-1.3283,-1.3104,-1.3173,-1.3392,-1.3652,-1.3685,-1.3786,-1.39,-1.39,-1.39,-1.39,-1.39,-1.39,-1.3908,-1.3945,-1.4066,-1.4196,-1.4261,-1.4501,-1.5014,-1.6387,-1.6825,-1.6945,-1.6945,-1.8001,-1.951,-2.1469,-2.1924,-2.2676,-2.4334,-2.4636,-2.4636,-2.4636,-2.4636,-2.4636,-2.4636,-2.4636,-2.4636,-2.4636,-2.4636,-2.4636,-2.4636,-2.4636,-2.4636,-2.4636,-2.4636,-2.4636,-2.4636,-2.4636,-2.4636,-2.4636,-2.4636,-2.4636,-2.4636,-2.4636,-2.4636,0.0,0.0,0.0,0.0,-0.1977,0.0,0.0,0.0,-0.0247,-0.0617,0.0,0.0,0.0,0.0,0.0,0.0,0.0,0.0,-0.9679,-1.0166,-1.0473,-1.049,-1.0626,-1.0721,-1.0721,-1.0721,-1.0721,-1.0721,-1.0721,-1.0721,-1.0721,-1.0721,-1.0721,-1.0721,-1.0721,-1.0721,-1.0721,-1.0721,-1.0789,-1.0921,-1.0941,-1.1224,-1.1902,-1.1938,-1.231,-1.2727,-1.2745,-1.2617,-1.2338,-1.2613,-1.2617,-1.2338,-1.3043,-1.34,-1.3388,-1.3555,-1.3392,-1.3141,-1.347,-1.3608,-1.3669,-1.3823,-1.3888,-1.39,-1.39,-1.39,-1.39,-1.39,-1.39,-1.3941,-1.4103,-1.4164,-1.4257,-1.4574,-1.468,-1.4749,-1.5205,-1.5254,-1.5271,-1.5271,-1.542,-1.6483,-1.951,-2.132,-2.2676,-2.4334,-2.4636,-2.4636,-2.4636,-2.4636,-2.4636,-2.4636,-2.4636,-2.4636,-2.4636,-2.4636,-2.4636,-2.4636,-2.4636,-2.4636,-2.4636,-2.4636,-2.4636,-2.4636,-2.4636,-2.4636,-2.4636,-2.4636,-2.4636,-2.4636,-2.4636,-2.4636,0.0,0.0,0.0,0.0,0.0,0.0,-0.0988,0.0,0.0,0.0,0.0,0.0,0.0,0.0,0.0,0.0,-0.8475,0.0,0.0,0.0,-1.0263,0.0,0.0,0.0,-1.0721,-1.0721,-1.0721,0.0,-1.0721,-1.0721,-1.0721,-1.0721,-1.0721,-1.0721,-1.0721,-1.0721,-1.0721,-1.0809,-1.0884,-1.0951,-1.1124,-1.141,-1.1678,-1.1768,-1.1841,-1.2043,-1.2043,-1.2047,-1.1907,-1.2047,-1.2191,-1.2187,-1.2514,-1.2814,-1.3249,-1.3359,-1.3453,-1.3433,-1.3591,-1.3568,-1.3377,-1.3591,-1.3757,-1.39,-1.39,-1.39,-1.39,-1.39,-1.3977,-1.4079,-1.416,-1.433,-1.4525,-1.4672,-1.4785,-1.4879,-1.4952,-1.4964,-1.4964,-1.4964,-1.4964,-1.5727,-1.8001,-1.891,-1.9962,-2.1619,-2.2676,-2.3277,-2.3277,-2.4031,-2.4636,-2.4636,-2.4636,-2.4636,-2.4636,-2.4636,-2.4636,-2.4636,-2.4636,-2.4636,-2.4636,-2.4636,-2.4636,-2.4636,-2.4636,-2.4636,-2.4636,-2.4636,-2.4636,-2.4636,-2.4636,-2.4636,-0.3696,0.0,0.0,0.0,0.0,0.0,0.0,0.0,0.0,0.0,0.0,0.0,0.0,0.0,-0.1903,-0.5496,0.0,-0.8822,0.0,-0.9853,0.0,0.0,0.0,0.0,0.0,-1.0721,-1.0721,-1.0721,0.0,-1.0721,-1.0721,-1.0721,-1.0721,-1.0721,-1.0721,-1.0741,-1.0782,-1.0894,-1.0989,-1.1073,-1.1287,-1.1413,-1.1457,-1.1569,-1.1619,-1.1619,-1.1619,-1.1619,-1.1619,-1.1619,-1.1739,-1.1977,-1.1998,-1.2378,-1.2788,-1.3217,-1.3253,-1.3368,-1.3416,-1.3369,-1.3182,-1.3182,-1.3468,-1.3757,-1.3757,-1.3757,-1.39,-1.39,-1.4034,-1.4188,-1.4237,-1.4477,-1.472,-1.4769,-1.4875,-1.4964,-1.4964,-1.4964,-1.4964,-1.4964,-1.4964,-1.5424,-1.6487,-1.7098,-1.8006,-1.951,-2.0714,-2.1469,-2.1469,-2.2521,-2.3426,-2.3883,-2.3883,-2.4179,-2.4488,-2.4636,-2.4636,-2.4636,-2.4636,-2.4636,-2.4636,-2.4636,-2.4636,-2.4636,-2.4636,-2.4636,-2.4636,-2.4636,-2.4636,-2.4636,-2.4636,-2.4636,0.0,0.0,0.0,-0.1969,0.0,0.0,0.0,0.0,0.0,0.0,0.0,0.0,0.0,-0.0,-0.1023,-0.3914,-0.6963,0.0,0.0,0.0,0.0,0.0,0.0,0.0,0.0,-1.0721,-1.0721,0.0,-1.0721,-1.0721,-1.0721,-1.0721,-1.0721,-1.0721,-1.0721,-1.0792,-1.0941,-1.0948,-1.109,-1.1375,-1.1385,-1.1467,-1.1613,-1.1616,-1.1619,-1.1619,-1.1619,-1.1619,-1.1619,-1.1619,-1.1531,-1.1399,-1.1815,-1.1956,-1.2096,-1.2795,-1.2935,-1.254,-1.312,-1.3035,-1.2753,-1.2753,-1.3039,-1.3325,-1.3325,-1.3615,-1.39,-1.39,-1.4034,-1.4217,-1.4379,-1.4566,-1.4753,-1.4919,-1.496,-1.4964,-1.4964,-1.4964,-1.4964,-1.4964,-1.4964,-1.4968,-1.5117,-1.6339,-1.8006,-1.951,-1.9811,-1.9811,-1.9811,-1.9962,-2.0564,-2.2073,-2.2223,-2.2974,-2.4488,-2.4636,-2.4636,-2.4636,-2.4636,-2.4636,-2.4636,-2.4636,-2.4636,-2.4636,-2.4636,-2.4636,-2.4636,-2.4636,-2.4636,-2.4636,-2.4636,-2.4636,0.0,0.0,-0.5158,-0.2091,0.0,0.0,0.0,0.0,0.0,0.0,0.0,0.0,0.0,0.0,-0.1571,-0.6329,-0.7987,-0.8687,0.0,0.0,0.0,0.0,0.0,0.0,0.0,0.0,0.0,0.0,-1.0721,0.0,-1.0721,-1.0721,-1.0721,-1.0721,-1.0819,-1.0897,-1.0948,-1.1145,-1.129,-1.1392,-1.1494,-1.1569,-1.1619,-1.1619,-1.1619,-1.1619,-1.1619,-1.1619,-1.1619,-1.1619,-1.1589,-1.1531,-1.1571,-1.1595,-1.1817,-1.2418,-1.2726,-1.2682,-1.2599,-1.2617,-1.2753,-1.2474,-1.2617,-1.3039,-1.3039,-1.3039,-1.3209,-1.3613,-1.3917,-1.4092,-1.4416,-1.4745,-1.4895,-1.4952,-1.4964,-1.4964,-1.4964,-1.4964,-1.4964,-1.4964,-1.4964,-1.4964,-1.4964,-1.5424,-1.6029,-1.6483,-1.7545,-1.8153,-1.8153,-1.9213,-1.9962,-2.0564,-2.1619,-2.2372,-2.298,-2.4031,-2.4636,-2.4636,-2.4636,-2.4636,-2.4636,-2.4636,-2.4636,-2.4636,-2.4636,-2.4636,-2.4636,-2.4636,-2.4636,-2.4636,-2.4636,-2.4636,-0.7487,-0.7861,0.0,-0.4669,-0.295,0.0,-0.037,0.0,0.0,0.0,0.0,0.0,0.0,0.0,-0.1198,-0.4977,-0.6339,-0.7145,0.0,-0.8734,0.0,0.0,0.0,0.0,0.0,0.0,0.0,-1.0721,-1.0721,-1.0721,0.0,-1.0721,-1.0744,-1.0799,-1.0897,-1.0999,-1.1104,-1.1294,-1.1419,-1.1474,-1.1572,-1.1619,-1.1619,-1.1619,-1.1619,-1.1619,-1.1619,-1.1619,-1.1619,-1.1619,-1.1589,-1.1535,-1.1491,-1.1501,-1.1528,-1.2132,-1.2477,-1.2474,-1.2194,-1.2191,-1.233,-1.2051,-1.2191,-1.2617,-1.2617,-1.2654,-1.3009,-1.3268,-1.3606,-1.4105,-1.4374,-1.4682,-1.4964,-1.4964,-1.4964,-1.4964,-1.4964,-1.4964,-1.4964,-1.4964,-1.4964,-1.4964,-1.4964,-1.4964,-1.4964,-1.4964,-1.588,-1.6487,-1.6487,-1.7393,-1.8299,-1.891,-2.0414,-2.1769,-2.2974,-2.3432,-2.4031,-2.4488,-2.4636,-2.4636,-2.4636,-2.4636,-2.4636,-2.4636,-2.4636,-2.4636,-2.4636,-2.4743,-2.4796,-2.4796,-2.4903,-2.4943]}]]